<?xml version="1.0" encoding="UTF-8"?>
<gpx version="1.1" creator="https://www.youtrack.es" xsi:schemaLocation="http://www.topografix.com/GPX/1/1 http://www.topografix.com/GPX/1/1/gpx.xsd http://www.garmin.com/xmlschemas/GpxExtensions/v3 http://www.garmin.com/xmlschemas/GpxExtensionsv3.xsd http://www.garmin.com/xmlschemas/TrackPointExtension/v1 http://www.garmin.com/xmlschemas/TrackPointExtensionv1.xsd" xmlns:gpxtpx="http://www.garmin.com/xmlschemas/TrackPointExtension/v1" xmlns:gpxx="http://www.garmin.com/xmlschemas/GpxExtensions/v3" xmlns:xsi="http://www.w3.org/2001/XMLSchema-instance">
  <metadata>
    <link href="https://www.youtrack.es">
      <text>YouTrack.es</text>
    </link>
    <time>2026-05-08T12:48:22Z</time>
  </metadata>
  <trk>
    <src>https://www.youtrack.es</src>
    <link href="https://www.youtrack.es/ruta/31601-guateque--sutatenza--tenza--la-capilla">
      <text>YouTrack.es</text>
    </link>
    <trkseg>
      <trkpt lat="5.0064356625" lon="-73.4727664199">
        <ele>1827.77</ele>
        <time>2022-04-28T15:08:54Z</time>
      </trkpt>
      <trkpt lat="5.0064358301" lon="-73.4727657493">
        <ele>1827.77</ele>
        <time>2022-04-28T15:08:55Z</time>
      </trkpt>
      <trkpt lat="5.0064688548" lon="-73.4727462195">
        <ele>1827.81</ele>
        <time>2022-04-28T15:09:03Z</time>
      </trkpt>
      <trkpt lat="5.0064826850" lon="-73.4727422800">
        <ele>1827.85</ele>
        <time>2022-04-28T15:09:04Z</time>
      </trkpt>
      <trkpt lat="5.0065008737" lon="-73.4727356583">
        <ele>1827.90</ele>
        <time>2022-04-28T15:09:05Z</time>
      </trkpt>
      <trkpt lat="5.0065210741" lon="-73.4727311321">
        <ele>1827.96</ele>
        <time>2022-04-28T15:09:06Z</time>
      </trkpt>
      <trkpt lat="5.0065381732" lon="-73.4727206547">
        <ele>1828.03</ele>
        <time>2022-04-28T15:09:07Z</time>
      </trkpt>
      <trkpt lat="5.0065592956" lon="-73.4727129433">
        <ele>1828.12</ele>
        <time>2022-04-28T15:09:08Z</time>
      </trkpt>
      <trkpt lat="5.0065831002" lon="-73.4727080818">
        <ele>1828.23</ele>
        <time>2022-04-28T15:09:09Z</time>
      </trkpt>
      <trkpt lat="5.0068415143" lon="-73.4726370871">
        <ele>1830.00</ele>
        <time>2022-04-28T15:09:20Z</time>
      </trkpt>
      <trkpt lat="5.0071667321" lon="-73.4725587163">
        <ele>1831.04</ele>
        <time>2022-04-28T15:09:35Z</time>
      </trkpt>
      <trkpt lat="5.0074644573" lon="-73.4725021385">
        <ele>1832.31</ele>
        <time>2022-04-28T15:09:47Z</time>
      </trkpt>
      <trkpt lat="5.0077866577" lon="-73.4724127036">
        <ele>1834.66</ele>
        <time>2022-04-28T15:10:00Z</time>
      </trkpt>
      <trkpt lat="5.0078890007" lon="-73.4723725542">
        <ele>1835.74</ele>
        <time>2022-04-28T15:10:04Z</time>
      </trkpt>
      <trkpt lat="5.0079180021" lon="-73.4723692853">
        <ele>1835.99</ele>
        <time>2022-04-28T15:10:05Z</time>
      </trkpt>
      <trkpt lat="5.0082445610" lon="-73.4723027330">
        <ele>1839.14</ele>
        <time>2022-04-28T15:10:17Z</time>
      </trkpt>
      <trkpt lat="5.0083772466" lon="-73.4722332470">
        <ele>1840.88</ele>
        <time>2022-04-28T15:10:24Z</time>
      </trkpt>
      <trkpt lat="5.0083870534" lon="-73.4722165670">
        <ele>1841.06</ele>
        <time>2022-04-28T15:10:25Z</time>
      </trkpt>
      <trkpt lat="5.0083910767" lon="-73.4721958637">
        <ele>1841.23</ele>
        <time>2022-04-28T15:10:26Z</time>
      </trkpt>
      <trkpt lat="5.0083858799" lon="-73.4721739870">
        <ele>1841.38</ele>
        <time>2022-04-28T15:10:27Z</time>
      </trkpt>
      <trkpt lat="5.0083792582" lon="-73.4721520264">
        <ele>1841.50</ele>
        <time>2022-04-28T15:10:28Z</time>
      </trkpt>
      <trkpt lat="5.0083785877" lon="-73.4721303172">
        <ele>1841.58</ele>
        <time>2022-04-28T15:10:29Z</time>
      </trkpt>
      <trkpt lat="5.0083676074" lon="-73.4721021540">
        <ele>1841.63</ele>
        <time>2022-04-28T15:10:30Z</time>
      </trkpt>
      <trkpt lat="5.0083529390" lon="-73.4720707219">
        <ele>1841.68</ele>
        <time>2022-04-28T15:10:31Z</time>
      </trkpt>
      <trkpt lat="5.0082048308" lon="-73.4716322646">
        <ele>1840.88</ele>
        <time>2022-04-28T15:10:44Z</time>
      </trkpt>
      <trkpt lat="5.0082279649" lon="-73.4715580847">
        <ele>1839.93</ele>
        <time>2022-04-28T15:11:05Z</time>
      </trkpt>
      <trkpt lat="5.0082312338" lon="-73.4715383034">
        <ele>1839.90</ele>
        <time>2022-04-28T15:11:06Z</time>
      </trkpt>
      <trkpt lat="5.0082350895" lon="-73.4715145826">
        <ele>1839.90</ele>
        <time>2022-04-28T15:11:07Z</time>
      </trkpt>
      <trkpt lat="5.0082464051" lon="-73.4714912809">
        <ele>1839.86</ele>
        <time>2022-04-28T15:11:08Z</time>
      </trkpt>
      <trkpt lat="5.0082697067" lon="-73.4714652132">
        <ele>1839.83</ele>
        <time>2022-04-28T15:11:09Z</time>
      </trkpt>
      <trkpt lat="5.0084950961" lon="-73.4712839965">
        <ele>1839.51</ele>
        <time>2022-04-28T15:11:15Z</time>
      </trkpt>
      <trkpt lat="5.0085267797" lon="-73.4712423384">
        <ele>1839.45</ele>
        <time>2022-04-28T15:11:16Z</time>
      </trkpt>
      <trkpt lat="5.0085535180" lon="-73.4711971600">
        <ele>1839.38</ele>
        <time>2022-04-28T15:11:17Z</time>
      </trkpt>
      <trkpt lat="5.0085714553" lon="-73.4711453598">
        <ele>1839.33</ele>
        <time>2022-04-28T15:11:18Z</time>
      </trkpt>
      <trkpt lat="5.0085843634" lon="-73.4710896201">
        <ele>1839.23</ele>
        <time>2022-04-28T15:11:19Z</time>
      </trkpt>
      <trkpt lat="5.0087170489" lon="-73.4700520243">
        <ele>1836.10</ele>
        <time>2022-04-28T15:11:36Z</time>
      </trkpt>
      <trkpt lat="5.0087735429" lon="-73.4694486950">
        <ele>1832.84</ele>
        <time>2022-04-28T15:11:47Z</time>
      </trkpt>
      <trkpt lat="5.0088374969" lon="-73.4689646401">
        <ele>1829.53</ele>
        <time>2022-04-28T15:11:56Z</time>
      </trkpt>
      <trkpt lat="5.0088882074" lon="-73.4687782265">
        <ele>1828.31</ele>
        <time>2022-04-28T15:11:59Z</time>
      </trkpt>
      <trkpt lat="5.0089183822" lon="-73.4687155299">
        <ele>1827.87</ele>
        <time>2022-04-28T15:12:00Z</time>
      </trkpt>
      <trkpt lat="5.0089601241" lon="-73.4686550125">
        <ele>1827.40</ele>
        <time>2022-04-28T15:12:01Z</time>
      </trkpt>
      <trkpt lat="5.0090114214" lon="-73.4685985185">
        <ele>1826.91</ele>
        <time>2022-04-28T15:12:02Z</time>
      </trkpt>
      <trkpt lat="5.0090736151" lon="-73.4685496520">
        <ele>1826.44</ele>
        <time>2022-04-28T15:12:03Z</time>
      </trkpt>
      <trkpt lat="5.0091449451" lon="-73.4685106762">
        <ele>1825.97</ele>
        <time>2022-04-28T15:12:04Z</time>
      </trkpt>
      <trkpt lat="5.0092233159" lon="-73.4684815910">
        <ele>1825.48</ele>
        <time>2022-04-28T15:12:05Z</time>
      </trkpt>
      <trkpt lat="5.0093080569" lon="-73.4684625641">
        <ele>1824.98</ele>
        <time>2022-04-28T15:12:06Z</time>
      </trkpt>
      <trkpt lat="5.0093974080" lon="-73.4684479795">
        <ele>1824.43</ele>
        <time>2022-04-28T15:12:07Z</time>
      </trkpt>
      <trkpt lat="5.0098567363" lon="-73.4683646634">
        <ele>1821.33</ele>
        <time>2022-04-28T15:12:12Z</time>
      </trkpt>
      <trkpt lat="5.0099381246" lon="-73.4683204070">
        <ele>1820.82</ele>
        <time>2022-04-28T15:12:13Z</time>
      </trkpt>
      <trkpt lat="5.0100056827" lon="-73.4682643320">
        <ele>1820.39</ele>
        <time>2022-04-28T15:12:14Z</time>
      </trkpt>
      <trkpt lat="5.0103943516" lon="-73.4678652696">
        <ele>1817.18</ele>
        <time>2022-04-28T15:12:22Z</time>
      </trkpt>
      <trkpt lat="5.0107742194" lon="-73.4675679635">
        <ele>1816.86</ele>
        <time>2022-04-28T15:12:34Z</time>
      </trkpt>
      <trkpt lat="5.0112607051" lon="-73.4672902711">
        <ele>1819.75</ele>
        <time>2022-04-28T15:12:49Z</time>
      </trkpt>
      <trkpt lat="5.0116821472" lon="-73.4669879358">
        <ele>1822.35</ele>
        <time>2022-04-28T15:13:02Z</time>
      </trkpt>
      <trkpt lat="5.0120377075" lon="-73.4667367302">
        <ele>1825.53</ele>
        <time>2022-04-28T15:13:15Z</time>
      </trkpt>
      <trkpt lat="5.0122988038" lon="-73.4665089101">
        <ele>1827.90</ele>
        <time>2022-04-28T15:13:28Z</time>
      </trkpt>
      <trkpt lat="5.0126428809" lon="-73.4662348218">
        <ele>1830.56</ele>
        <time>2022-04-28T15:13:43Z</time>
      </trkpt>
      <trkpt lat="5.0128834415" lon="-73.4660528507">
        <ele>1832.61</ele>
        <time>2022-04-28T15:13:55Z</time>
      </trkpt>
      <trkpt lat="5.0131177157" lon="-73.4658570495">
        <ele>1834.67</ele>
        <time>2022-04-28T15:14:07Z</time>
      </trkpt>
      <trkpt lat="5.0133195519" lon="-73.4656995535">
        <ele>1836.83</ele>
        <time>2022-04-28T15:14:19Z</time>
      </trkpt>
      <trkpt lat="5.0134548359" lon="-73.4654516168">
        <ele>1840.03</ele>
        <time>2022-04-28T15:14:35Z</time>
      </trkpt>
      <trkpt lat="5.0134487171" lon="-73.4652219526">
        <ele>1842.77</ele>
        <time>2022-04-28T15:14:49Z</time>
      </trkpt>
      <trkpt lat="5.0133767165" lon="-73.4649528936">
        <ele>1845.05</ele>
        <time>2022-04-28T15:15:03Z</time>
      </trkpt>
      <trkpt lat="5.0133430213" lon="-73.4647544101">
        <ele>1847.05</ele>
        <time>2022-04-28T15:15:13Z</time>
      </trkpt>
      <trkpt lat="5.0133156963" lon="-73.4646658134">
        <ele>1847.96</ele>
        <time>2022-04-28T15:15:18Z</time>
      </trkpt>
      <trkpt lat="5.0133150257" lon="-73.4644030407">
        <ele>1849.93</ele>
        <time>2022-04-28T15:15:32Z</time>
      </trkpt>
      <trkpt lat="5.0134956557" lon="-73.4641412739">
        <ele>1850.15</ele>
        <time>2022-04-28T15:15:47Z</time>
      </trkpt>
      <trkpt lat="5.0138761103" lon="-73.4639951773">
        <ele>1848.71</ele>
        <time>2022-04-28T15:15:58Z</time>
      </trkpt>
      <trkpt lat="5.0141903479" lon="-73.4639186505">
        <ele>1846.97</ele>
        <time>2022-04-28T15:16:04Z</time>
      </trkpt>
      <trkpt lat="5.0143534597" lon="-73.4638454765">
        <ele>1845.72</ele>
        <time>2022-04-28T15:16:07Z</time>
      </trkpt>
      <trkpt lat="5.0148443878" lon="-73.4635783453">
        <ele>1842.95</ele>
        <time>2022-04-28T15:16:16Z</time>
      </trkpt>
      <trkpt lat="5.0152316317" lon="-73.4633512795">
        <ele>1841.16</ele>
        <time>2022-04-28T15:16:22Z</time>
      </trkpt>
      <trkpt lat="5.0156741124" lon="-73.4631614294">
        <ele>1839.60</ele>
        <time>2022-04-28T15:16:32Z</time>
      </trkpt>
      <trkpt lat="5.0160492864" lon="-73.4628350381">
        <ele>1841.82</ele>
        <time>2022-04-28T15:16:48Z</time>
      </trkpt>
      <trkpt lat="5.0163247157" lon="-73.4626228083">
        <ele>1844.65</ele>
        <time>2022-04-28T15:17:01Z</time>
      </trkpt>
      <trkpt lat="5.0166867301" lon="-73.4623910487">
        <ele>1845.63</ele>
        <time>2022-04-28T15:17:16Z</time>
      </trkpt>
      <trkpt lat="5.0169043243" lon="-73.4620074928">
        <ele>1845.55</ele>
        <time>2022-04-28T15:17:29Z</time>
      </trkpt>
      <trkpt lat="5.0171910692" lon="-73.4615987912">
        <ele>1845.78</ele>
        <time>2022-04-28T15:17:44Z</time>
      </trkpt>
      <trkpt lat="5.0176298618" lon="-73.4613680374">
        <ele>1844.84</ele>
        <time>2022-04-28T15:17:55Z</time>
      </trkpt>
      <trkpt lat="5.0177726895" lon="-73.4612827934">
        <ele>1844.50</ele>
        <time>2022-04-28T15:17:58Z</time>
      </trkpt>
      <trkpt lat="5.0180772878" lon="-73.4612734057">
        <ele>1843.95</ele>
        <time>2022-04-28T15:18:03Z</time>
      </trkpt>
      <trkpt lat="5.0182765257" lon="-73.4613766707">
        <ele>1843.53</ele>
        <time>2022-04-28T15:18:06Z</time>
      </trkpt>
      <trkpt lat="5.0189092755" lon="-73.4616925009">
        <ele>1840.55</ele>
        <time>2022-04-28T15:18:16Z</time>
      </trkpt>
      <trkpt lat="5.0193038955" lon="-73.4616798442">
        <ele>1839.35</ele>
        <time>2022-04-28T15:18:26Z</time>
      </trkpt>
      <trkpt lat="5.0195729546" lon="-73.4615748189">
        <ele>1840.22</ele>
        <time>2022-04-28T15:18:36Z</time>
      </trkpt>
      <trkpt lat="5.0196888763" lon="-73.4614904970">
        <ele>1841.82</ele>
        <time>2022-04-28T15:18:45Z</time>
      </trkpt>
      <trkpt lat="5.0198139343" lon="-73.4613941889">
        <ele>1843.53</ele>
        <time>2022-04-28T15:19:02Z</time>
      </trkpt>
      <trkpt lat="5.0198907964" lon="-73.4613473341">
        <ele>1845.06</ele>
        <time>2022-04-28T15:19:10Z</time>
      </trkpt>
      <trkpt lat="5.0199010223" lon="-73.4613412991">
        <ele>1845.20</ele>
        <time>2022-04-28T15:19:11Z</time>
      </trkpt>
      <trkpt lat="5.0199102424" lon="-73.4613323305">
        <ele>1845.33</ele>
        <time>2022-04-28T15:19:12Z</time>
      </trkpt>
      <trkpt lat="5.0199976657" lon="-73.4613087773">
        <ele>1846.27</ele>
        <time>2022-04-28T15:19:22Z</time>
      </trkpt>
      <trkpt lat="5.0200125016" lon="-73.4613081906">
        <ele>1846.32</ele>
        <time>2022-04-28T15:19:23Z</time>
      </trkpt>
      <trkpt lat="5.0200286787" lon="-73.4613073524">
        <ele>1846.36</ele>
        <time>2022-04-28T15:19:24Z</time>
      </trkpt>
      <trkpt lat="5.0200448558" lon="-73.4613066819">
        <ele>1846.42</ele>
        <time>2022-04-28T15:19:25Z</time>
      </trkpt>
      <trkpt lat="5.0200629607" lon="-73.4613060113">
        <ele>1846.52</ele>
        <time>2022-04-28T15:19:26Z</time>
      </trkpt>
      <trkpt lat="5.0202792976" lon="-73.4613345936">
        <ele>1848.09</ele>
        <time>2022-04-28T15:19:38Z</time>
      </trkpt>
      <trkpt lat="5.0205503684" lon="-73.4613611642">
        <ele>1849.55</ele>
        <time>2022-04-28T15:19:50Z</time>
      </trkpt>
      <trkpt lat="5.0208941102" lon="-73.4613641817">
        <ele>1850.19</ele>
        <time>2022-04-28T15:20:02Z</time>
      </trkpt>
      <trkpt lat="5.0211214274" lon="-73.4611434862">
        <ele>1850.48</ele>
        <time>2022-04-28T15:20:12Z</time>
      </trkpt>
      <trkpt lat="5.0212365109" lon="-73.4607135784">
        <ele>1852.54</ele>
        <time>2022-04-28T15:20:25Z</time>
      </trkpt>
      <trkpt lat="5.0213012192" lon="-73.4602982551">
        <ele>1854.14</ele>
        <time>2022-04-28T15:20:39Z</time>
      </trkpt>
      <trkpt lat="5.0213416200" lon="-73.4599342290">
        <ele>1856.68</ele>
        <time>2022-04-28T15:20:53Z</time>
      </trkpt>
      <trkpt lat="5.0213640835" lon="-73.4595997073">
        <ele>1859.84</ele>
        <time>2022-04-28T15:21:05Z</time>
      </trkpt>
      <trkpt lat="5.0212195795" lon="-73.4592798539">
        <ele>1862.00</ele>
        <time>2022-04-28T15:21:17Z</time>
      </trkpt>
      <trkpt lat="5.0210964493" lon="-73.4590464178">
        <ele>1864.21</ele>
        <time>2022-04-28T15:21:26Z</time>
      </trkpt>
      <trkpt lat="5.0210654363" lon="-73.4586947132">
        <ele>1866.26</ele>
        <time>2022-04-28T15:21:41Z</time>
      </trkpt>
      <trkpt lat="5.0209920108" lon="-73.4584392328">
        <ele>1867.09</ele>
        <time>2022-04-28T15:21:52Z</time>
      </trkpt>
      <trkpt lat="5.0209575612" lon="-73.4580728598">
        <ele>1868.97</ele>
        <time>2022-04-28T15:22:05Z</time>
      </trkpt>
      <trkpt lat="5.0209092814" lon="-73.4577434510">
        <ele>1871.42</ele>
        <time>2022-04-28T15:22:18Z</time>
      </trkpt>
      <trkpt lat="5.0209875684" lon="-73.4573060833">
        <ele>1872.04</ele>
        <time>2022-04-28T15:22:33Z</time>
      </trkpt>
      <trkpt lat="5.0210960303" lon="-73.4568339307">
        <ele>1872.41</ele>
        <time>2022-04-28T15:22:47Z</time>
      </trkpt>
      <trkpt lat="5.0212946814" lon="-73.4562483709">
        <ele>1874.63</ele>
        <time>2022-04-28T15:23:05Z</time>
      </trkpt>
      <trkpt lat="5.0214136206" lon="-73.4557518270">
        <ele>1876.79</ele>
        <time>2022-04-28T15:23:21Z</time>
      </trkpt>
      <trkpt lat="5.0214643311" lon="-73.4554014634">
        <ele>1878.02</ele>
        <time>2022-04-28T15:23:37Z</time>
      </trkpt>
      <trkpt lat="5.0215411931" lon="-73.4550702944">
        <ele>1880.14</ele>
        <time>2022-04-28T15:23:53Z</time>
      </trkpt>
      <trkpt lat="5.0216100924" lon="-73.4547367785">
        <ele>1883.26</ele>
        <time>2022-04-28T15:24:10Z</time>
      </trkpt>
      <trkpt lat="5.0216064043" lon="-73.4544587508">
        <ele>1885.44</ele>
        <time>2022-04-28T15:24:26Z</time>
      </trkpt>
      <trkpt lat="5.0214433763" lon="-73.4541892726">
        <ele>1887.07</ele>
        <time>2022-04-28T15:24:43Z</time>
      </trkpt>
      <trkpt lat="5.0212525204" lon="-73.4540029429">
        <ele>1888.77</ele>
        <time>2022-04-28T15:24:58Z</time>
      </trkpt>
      <trkpt lat="5.0211123750" lon="-73.4538767114">
        <ele>1891.60</ele>
        <time>2022-04-28T15:25:11Z</time>
      </trkpt>
      <trkpt lat="5.0210302323" lon="-73.4537483845">
        <ele>1892.83</ele>
        <time>2022-04-28T15:25:19Z</time>
      </trkpt>
      <trkpt lat="5.0210222695" lon="-73.4537270106">
        <ele>1892.94</ele>
        <time>2022-04-28T15:25:20Z</time>
      </trkpt>
      <trkpt lat="5.0210169889" lon="-73.4537092410">
        <ele>1893.05</ele>
        <time>2022-04-28T15:25:21Z</time>
      </trkpt>
      <trkpt lat="5.0210113730" lon="-73.4536924772">
        <ele>1893.17</ele>
        <time>2022-04-28T15:25:22Z</time>
      </trkpt>
      <trkpt lat="5.0209962018" lon="-73.4536737856">
        <ele>1893.30</ele>
        <time>2022-04-28T15:25:23Z</time>
      </trkpt>
      <trkpt lat="5.0209858082" lon="-73.4536542557">
        <ele>1893.40</ele>
        <time>2022-04-28T15:25:24Z</time>
      </trkpt>
      <trkpt lat="5.0209796894" lon="-73.4536378272">
        <ele>1893.49</ele>
        <time>2022-04-28T15:25:25Z</time>
      </trkpt>
      <trkpt lat="5.0209737383" lon="-73.4536234103">
        <ele>1893.58</ele>
        <time>2022-04-28T15:25:26Z</time>
      </trkpt>
      <trkpt lat="5.0209702179" lon="-73.4536098316">
        <ele>1893.70</ele>
        <time>2022-04-28T15:25:27Z</time>
      </trkpt>
      <trkpt lat="5.0209628418" lon="-73.4535968397">
        <ele>1893.86</ele>
        <time>2022-04-28T15:25:28Z</time>
      </trkpt>
      <trkpt lat="5.0209536217" lon="-73.4535842668">
        <ele>1894.03</ele>
        <time>2022-04-28T15:25:29Z</time>
      </trkpt>
      <trkpt lat="5.0209446531" lon="-73.4535701852">
        <ele>1894.18</ele>
        <time>2022-04-28T15:25:30Z</time>
      </trkpt>
      <trkpt lat="5.0209316611" lon="-73.4535541758">
        <ele>1894.32</ele>
        <time>2022-04-28T15:25:31Z</time>
      </trkpt>
      <trkpt lat="5.0209301524" lon="-73.4535436146">
        <ele>1894.47</ele>
        <time>2022-04-28T15:25:32Z</time>
      </trkpt>
      <trkpt lat="5.0209239498" lon="-73.4535298683">
        <ele>1894.65</ele>
        <time>2022-04-28T15:25:33Z</time>
      </trkpt>
      <trkpt lat="5.0209145620" lon="-73.4535105061">
        <ele>1894.83</ele>
        <time>2022-04-28T15:25:34Z</time>
      </trkpt>
      <trkpt lat="5.0209099520" lon="-73.4534959216">
        <ele>1895.02</ele>
        <time>2022-04-28T15:25:35Z</time>
      </trkpt>
      <trkpt lat="5.0209117960" lon="-73.4534762241">
        <ele>1895.35</ele>
        <time>2022-04-28T15:25:36Z</time>
      </trkpt>
      <trkpt lat="5.0209133886" lon="-73.4534541797">
        <ele>1895.49</ele>
        <time>2022-04-28T15:25:37Z</time>
      </trkpt>
      <trkpt lat="5.0209134724" lon="-73.4534338955">
        <ele>1895.61</ele>
        <time>2022-04-28T15:25:38Z</time>
      </trkpt>
      <trkpt lat="5.0209122151" lon="-73.4534132760">
        <ele>1895.73</ele>
        <time>2022-04-28T15:25:39Z</time>
      </trkpt>
      <trkpt lat="5.0209088624" lon="-73.4533948358">
        <ele>1895.86</ele>
        <time>2022-04-28T15:25:40Z</time>
      </trkpt>
      <trkpt lat="5.0208976306" lon="-73.4533783235">
        <ele>1896.00</ele>
        <time>2022-04-28T15:25:41Z</time>
      </trkpt>
      <trkpt lat="5.0208866503" lon="-73.4533609729">
        <ele>1896.13</ele>
        <time>2022-04-28T15:25:42Z</time>
      </trkpt>
      <trkpt lat="5.0208807830" lon="-73.4533429518">
        <ele>1896.26</ele>
        <time>2022-04-28T15:25:43Z</time>
      </trkpt>
      <trkpt lat="5.0208725687" lon="-73.4533242602">
        <ele>1896.41</ele>
        <time>2022-04-28T15:25:44Z</time>
      </trkpt>
      <trkpt lat="5.0208058488" lon="-73.4530851245">
        <ele>1897.80</ele>
        <time>2022-04-28T15:25:56Z</time>
      </trkpt>
      <trkpt lat="5.0207931083" lon="-73.4530699532">
        <ele>1897.91</ele>
        <time>2022-04-28T15:25:57Z</time>
      </trkpt>
      <trkpt lat="5.0207776856" lon="-73.4530531894">
        <ele>1898.01</ele>
        <time>2022-04-28T15:25:58Z</time>
      </trkpt>
      <trkpt lat="5.0207656156" lon="-73.4530363418">
        <ele>1898.09</ele>
        <time>2022-04-28T15:25:59Z</time>
      </trkpt>
      <trkpt lat="5.0207589939" lon="-73.4530175664">
        <ele>1898.17</ele>
        <time>2022-04-28T15:26:00Z</time>
      </trkpt>
      <trkpt lat="5.0207532942" lon="-73.4529975336">
        <ele>1898.25</ele>
        <time>2022-04-28T15:26:01Z</time>
      </trkpt>
      <trkpt lat="5.0207453314" lon="-73.4529769979">
        <ele>1898.46</ele>
        <time>2022-04-28T15:26:02Z</time>
      </trkpt>
      <trkpt lat="5.0207373686" lon="-73.4529594798">
        <ele>1898.58</ele>
        <time>2022-04-28T15:26:03Z</time>
      </trkpt>
      <trkpt lat="5.0207289029" lon="-73.4529450629">
        <ele>1898.68</ele>
        <time>2022-04-28T15:26:04Z</time>
      </trkpt>
      <trkpt lat="5.0207206048" lon="-73.4529286344">
        <ele>1898.79</ele>
        <time>2022-04-28T15:26:05Z</time>
      </trkpt>
      <trkpt lat="5.0206723250" lon="-73.4526457451">
        <ele>1899.84</ele>
        <time>2022-04-28T15:26:18Z</time>
      </trkpt>
      <trkpt lat="5.0206875801" lon="-73.4524295758">
        <ele>1900.46</ele>
        <time>2022-04-28T15:26:29Z</time>
      </trkpt>
      <trkpt lat="5.0206940342" lon="-73.4524124768">
        <ele>1900.52</ele>
        <time>2022-04-28T15:26:30Z</time>
      </trkpt>
      <trkpt lat="5.0207040086" lon="-73.4523930307">
        <ele>1900.58</ele>
        <time>2022-04-28T15:26:31Z</time>
      </trkpt>
      <trkpt lat="5.0207166653" lon="-73.4523758478">
        <ele>1900.67</ele>
        <time>2022-04-28T15:26:32Z</time>
      </trkpt>
      <trkpt lat="5.0207322557" lon="-73.4523612633">
        <ele>1900.75</ele>
        <time>2022-04-28T15:26:33Z</time>
      </trkpt>
      <trkpt lat="5.0207487680" lon="-73.4523478523">
        <ele>1900.84</ele>
        <time>2022-04-28T15:26:34Z</time>
      </trkpt>
      <trkpt lat="5.0208096206" lon="-73.4522926994">
        <ele>1901.31</ele>
        <time>2022-04-28T15:26:38Z</time>
      </trkpt>
      <trkpt lat="5.0208288152" lon="-73.4522906877">
        <ele>1901.43</ele>
        <time>2022-04-28T15:26:39Z</time>
      </trkpt>
      <trkpt lat="5.0208516978" lon="-73.4522907715">
        <ele>1901.55</ele>
        <time>2022-04-28T15:26:40Z</time>
      </trkpt>
      <trkpt lat="5.0208723173" lon="-73.4522836469">
        <ele>1901.68</ele>
        <time>2022-04-28T15:26:41Z</time>
      </trkpt>
      <trkpt lat="5.0208857283" lon="-73.4522680566">
        <ele>1901.81</ele>
        <time>2022-04-28T15:26:42Z</time>
      </trkpt>
      <trkpt lat="5.0208911765" lon="-73.4522475209">
        <ele>1901.95</ele>
        <time>2022-04-28T15:26:43Z</time>
      </trkpt>
      <trkpt lat="5.0208962895" lon="-73.4522260632">
        <ele>1902.09</ele>
        <time>2022-04-28T15:26:44Z</time>
      </trkpt>
      <trkpt lat="5.0209108740" lon="-73.4522118140">
        <ele>1902.23</ele>
        <time>2022-04-28T15:26:45Z</time>
      </trkpt>
      <trkpt lat="5.0209321640" lon="-73.4522112273">
        <ele>1902.38</ele>
        <time>2022-04-28T15:26:46Z</time>
      </trkpt>
      <trkpt lat="5.0209551305" lon="-73.4522163402">
        <ele>1902.56</ele>
        <time>2022-04-28T15:26:47Z</time>
      </trkpt>
      <trkpt lat="5.0209795218" lon="-73.4522189386">
        <ele>1902.75</ele>
        <time>2022-04-28T15:26:48Z</time>
      </trkpt>
      <trkpt lat="5.0210036617" lon="-73.4522212856">
        <ele>1902.93</ele>
        <time>2022-04-28T15:26:49Z</time>
      </trkpt>
      <trkpt lat="5.0210268795" lon="-73.4522240516">
        <ele>1903.10</ele>
        <time>2022-04-28T15:26:50Z</time>
      </trkpt>
      <trkpt lat="5.0210489240" lon="-73.4522253927">
        <ele>1903.25</ele>
        <time>2022-04-28T15:26:51Z</time>
      </trkpt>
      <trkpt lat="5.0210640114" lon="-73.4522233810">
        <ele>1903.52</ele>
        <time>2022-04-28T15:26:52Z</time>
      </trkpt>
      <trkpt lat="5.0210935157" lon="-73.4522052761">
        <ele>1904.23</ele>
        <time>2022-04-28T15:26:55Z</time>
      </trkpt>
      <trkpt lat="5.0211086031" lon="-73.4522123169">
        <ele>1904.48</ele>
        <time>2022-04-28T15:26:56Z</time>
      </trkpt>
      <trkpt lat="5.0211202540" lon="-73.4522255603">
        <ele>1904.72</ele>
        <time>2022-04-28T15:26:57Z</time>
      </trkpt>
      <trkpt lat="5.0211324915" lon="-73.4522389714">
        <ele>1904.95</ele>
        <time>2022-04-28T15:26:58Z</time>
      </trkpt>
      <trkpt lat="5.0211447291" lon="-73.4522459283">
        <ele>1905.18</ele>
        <time>2022-04-28T15:26:59Z</time>
      </trkpt>
      <trkpt lat="5.0211616606" lon="-73.4522415698">
        <ele>1905.60</ele>
        <time>2022-04-28T15:27:01Z</time>
      </trkpt>
      <trkpt lat="5.0211707968" lon="-73.4522301704">
        <ele>1905.76</ele>
        <time>2022-04-28T15:27:02Z</time>
      </trkpt>
      <trkpt lat="5.0211799331" lon="-73.4522185195">
        <ele>1905.91</ele>
        <time>2022-04-28T15:27:03Z</time>
      </trkpt>
      <trkpt lat="5.0211930089" lon="-73.4522090480">
        <ele>1906.03</ele>
        <time>2022-04-28T15:27:04Z</time>
      </trkpt>
      <trkpt lat="5.0212108623" lon="-73.4522038512">
        <ele>1906.12</ele>
        <time>2022-04-28T15:27:05Z</time>
      </trkpt>
      <trkpt lat="5.0212295540" lon="-73.4522014204">
        <ele>1906.20</ele>
        <time>2022-04-28T15:27:06Z</time>
      </trkpt>
      <trkpt lat="5.0212479103" lon="-73.4521996602">
        <ele>1906.26</ele>
        <time>2022-04-28T15:27:07Z</time>
      </trkpt>
      <trkpt lat="5.0213042367" lon="-73.4521922842">
        <ele>1906.38</ele>
        <time>2022-04-28T15:27:10Z</time>
      </trkpt>
      <trkpt lat="5.0213189051" lon="-73.4521801304">
        <ele>1906.43</ele>
        <time>2022-04-28T15:27:11Z</time>
      </trkpt>
      <trkpt lat="5.0213326514" lon="-73.4521702398">
        <ele>1906.50</ele>
        <time>2022-04-28T15:27:12Z</time>
      </trkpt>
      <trkpt lat="5.0213443022" lon="-73.4521597624">
        <ele>1906.56</ele>
        <time>2022-04-28T15:27:13Z</time>
      </trkpt>
      <trkpt lat="5.0213583838" lon="-73.4521487821">
        <ele>1906.63</ele>
        <time>2022-04-28T15:27:14Z</time>
      </trkpt>
      <trkpt lat="5.0215455517" lon="-73.4520293400">
        <ele>1907.65</ele>
        <time>2022-04-28T15:27:26Z</time>
      </trkpt>
      <trkpt lat="5.0218108390" lon="-73.4518087283">
        <ele>1909.18</ele>
        <time>2022-04-28T15:27:43Z</time>
      </trkpt>
      <trkpt lat="5.0220616255" lon="-73.4515393339">
        <ele>1910.68</ele>
        <time>2022-04-28T15:27:59Z</time>
      </trkpt>
      <trkpt lat="5.0222927146" lon="-73.4512819257">
        <ele>1912.30</ele>
        <time>2022-04-28T15:28:14Z</time>
      </trkpt>
      <trkpt lat="5.0223186985" lon="-73.4512539301">
        <ele>1912.48</ele>
        <time>2022-04-28T15:28:16Z</time>
      </trkpt>
      <trkpt lat="5.0223319419" lon="-73.4512483981">
        <ele>1912.61</ele>
        <time>2022-04-28T15:28:17Z</time>
      </trkpt>
      <trkpt lat="5.0223454367" lon="-73.4512387589">
        <ele>1912.73</ele>
        <time>2022-04-28T15:28:18Z</time>
      </trkpt>
      <trkpt lat="5.0223601889" lon="-73.4512267727">
        <ele>1912.83</ele>
        <time>2022-04-28T15:28:19Z</time>
      </trkpt>
      <trkpt lat="5.0223721750" lon="-73.4512116853">
        <ele>1912.92</ele>
        <time>2022-04-28T15:28:20Z</time>
      </trkpt>
      <trkpt lat="5.0225734245" lon="-73.4509932529">
        <ele>1915.22</ele>
        <time>2022-04-28T15:28:35Z</time>
      </trkpt>
      <trkpt lat="5.0227939524" lon="-73.4507833701">
        <ele>1917.13</ele>
        <time>2022-04-28T15:28:49Z</time>
      </trkpt>
      <trkpt lat="5.0228499435" lon="-73.4507554583">
        <ele>1917.55</ele>
        <time>2022-04-28T15:28:52Z</time>
      </trkpt>
      <trkpt lat="5.0228693057" lon="-73.4507558774">
        <ele>1917.69</ele>
        <time>2022-04-28T15:28:53Z</time>
      </trkpt>
      <trkpt lat="5.0228876621" lon="-73.4507575538">
        <ele>1917.83</ele>
        <time>2022-04-28T15:28:54Z</time>
      </trkpt>
      <trkpt lat="5.0229050126" lon="-73.4507549554">
        <ele>1917.97</ele>
        <time>2022-04-28T15:28:55Z</time>
      </trkpt>
      <trkpt lat="5.0229169149" lon="-73.4507441428">
        <ele>1918.13</ele>
        <time>2022-04-28T15:28:56Z</time>
      </trkpt>
      <trkpt lat="5.0229229499" lon="-73.4507277142">
        <ele>1918.40</ele>
        <time>2022-04-28T15:28:57Z</time>
      </trkpt>
      <trkpt lat="5.0229219440" lon="-73.4507121239">
        <ele>1918.51</ele>
        <time>2022-04-28T15:28:58Z</time>
      </trkpt>
      <trkpt lat="5.0229196809" lon="-73.4506951086">
        <ele>1918.59</ele>
        <time>2022-04-28T15:28:59Z</time>
      </trkpt>
      <trkpt lat="5.0229220279" lon="-73.4506791830">
        <ele>1918.67</ele>
        <time>2022-04-28T15:29:00Z</time>
      </trkpt>
      <trkpt lat="5.0229330920" lon="-73.4506637603">
        <ele>1918.77</ele>
        <time>2022-04-28T15:29:01Z</time>
      </trkpt>
      <trkpt lat="5.0229498558" lon="-73.4506536182">
        <ele>1918.89</ele>
        <time>2022-04-28T15:29:02Z</time>
      </trkpt>
      <trkpt lat="5.0229667034" lon="-73.4506468289">
        <ele>1919.01</ele>
        <time>2022-04-28T15:29:03Z</time>
      </trkpt>
      <trkpt lat="5.0229843054" lon="-73.4506417997">
        <ele>1919.13</ele>
        <time>2022-04-28T15:29:04Z</time>
      </trkpt>
      <trkpt lat="5.0232001394" lon="-73.4505475871">
        <ele>1920.70</ele>
        <time>2022-04-28T15:29:16Z</time>
      </trkpt>
      <trkpt lat="5.0232077669" lon="-73.4505319968">
        <ele>1920.79</ele>
        <time>2022-04-28T15:29:17Z</time>
      </trkpt>
      <trkpt lat="5.0232143048" lon="-73.4505157359">
        <ele>1920.89</ele>
        <time>2022-04-28T15:29:18Z</time>
      </trkpt>
      <trkpt lat="5.0232248660" lon="-73.4505013190">
        <ele>1921.00</ele>
        <time>2022-04-28T15:29:19Z</time>
      </trkpt>
      <trkpt lat="5.0232393667" lon="-73.4504907578">
        <ele>1921.15</ele>
        <time>2022-04-28T15:29:20Z</time>
      </trkpt>
      <trkpt lat="5.0232546218" lon="-73.4504822921">
        <ele>1921.32</ele>
        <time>2022-04-28T15:29:21Z</time>
      </trkpt>
      <trkpt lat="5.0232713856" lon="-73.4504731558">
        <ele>1921.47</ele>
        <time>2022-04-28T15:29:22Z</time>
      </trkpt>
      <trkpt lat="5.0232894905" lon="-73.4504639357">
        <ele>1921.60</ele>
        <time>2022-04-28T15:29:23Z</time>
      </trkpt>
      <trkpt lat="5.0235168915" lon="-73.4503011592">
        <ele>1923.27</ele>
        <time>2022-04-28T15:29:37Z</time>
      </trkpt>
      <trkpt lat="5.0236806739" lon="-73.4500274900">
        <ele>1924.94</ele>
        <time>2022-04-28T15:29:52Z</time>
      </trkpt>
      <trkpt lat="5.0236858707" lon="-73.4497166891">
        <ele>1926.61</ele>
        <time>2022-04-28T15:30:07Z</time>
      </trkpt>
      <trkpt lat="5.0236906484" lon="-73.4497000929">
        <ele>1926.75</ele>
        <time>2022-04-28T15:30:08Z</time>
      </trkpt>
      <trkpt lat="5.0236940011" lon="-73.4496814013">
        <ele>1926.92</ele>
        <time>2022-04-28T15:30:09Z</time>
      </trkpt>
      <trkpt lat="5.0238114316" lon="-73.4494125936">
        <ele>1929.48</ele>
        <time>2022-04-28T15:30:24Z</time>
      </trkpt>
      <trkpt lat="5.0240939017" lon="-73.4493801557">
        <ele>1931.68</ele>
        <time>2022-04-28T15:30:39Z</time>
      </trkpt>
      <trkpt lat="5.0242294371" lon="-73.4494906291">
        <ele>1932.71</ele>
        <time>2022-04-28T15:30:49Z</time>
      </trkpt>
      <trkpt lat="5.0242353883" lon="-73.4495075606">
        <ele>1932.80</ele>
        <time>2022-04-28T15:30:50Z</time>
      </trkpt>
      <trkpt lat="5.0241920538" lon="-73.4497847501">
        <ele>1935.26</ele>
        <time>2022-04-28T15:31:05Z</time>
      </trkpt>
      <trkpt lat="5.0241677463" lon="-73.4500388056">
        <ele>1936.68</ele>
        <time>2022-04-28T15:31:17Z</time>
      </trkpt>
      <trkpt lat="5.0240496453" lon="-73.4504634328">
        <ele>1938.43</ele>
        <time>2022-04-28T15:31:36Z</time>
      </trkpt>
      <trkpt lat="5.0238807499" lon="-73.4507357609">
        <ele>1939.53</ele>
        <time>2022-04-28T15:31:49Z</time>
      </trkpt>
      <trkpt lat="5.0236553606" lon="-73.4510361683">
        <ele>1940.40</ele>
        <time>2022-04-28T15:32:04Z</time>
      </trkpt>
      <trkpt lat="5.0234805979" lon="-73.4511903953">
        <ele>1940.29</ele>
        <time>2022-04-28T15:32:13Z</time>
      </trkpt>
      <trkpt lat="5.0234690309" lon="-73.4512093384">
        <ele>1940.41</ele>
        <time>2022-04-28T15:32:14Z</time>
      </trkpt>
      <trkpt lat="5.0233488344" lon="-73.4515695088">
        <ele>1942.91</ele>
        <time>2022-04-28T15:32:30Z</time>
      </trkpt>
      <trkpt lat="5.0233566295" lon="-73.4519025218">
        <ele>1944.43</ele>
        <time>2022-04-28T15:32:45Z</time>
      </trkpt>
      <trkpt lat="5.0234289654" lon="-73.4521200322">
        <ele>1945.65</ele>
        <time>2022-04-28T15:32:56Z</time>
      </trkpt>
      <trkpt lat="5.0234298874" lon="-73.4521407355">
        <ele>1945.79</ele>
        <time>2022-04-28T15:32:57Z</time>
      </trkpt>
      <trkpt lat="5.0234318990" lon="-73.4521636181">
        <ele>1945.92</ele>
        <time>2022-04-28T15:32:58Z</time>
      </trkpt>
      <trkpt lat="5.0234313961" lon="-73.4521862492">
        <ele>1946.05</ele>
        <time>2022-04-28T15:32:59Z</time>
      </trkpt>
      <trkpt lat="5.0234345812" lon="-73.4522071201">
        <ele>1946.20</ele>
        <time>2022-04-28T15:33:00Z</time>
      </trkpt>
      <trkpt lat="5.0234390236" lon="-73.4522280749">
        <ele>1946.37</ele>
        <time>2022-04-28T15:33:01Z</time>
      </trkpt>
      <trkpt lat="5.0234358385" lon="-73.4525366127">
        <ele>1948.07</ele>
        <time>2022-04-28T15:33:16Z</time>
      </trkpt>
      <trkpt lat="5.0233590603" lon="-73.4528012294">
        <ele>1950.08</ele>
        <time>2022-04-28T15:33:30Z</time>
      </trkpt>
      <trkpt lat="5.0233342499" lon="-73.4530044068">
        <ele>1951.51</ele>
        <time>2022-04-28T15:33:41Z</time>
      </trkpt>
      <trkpt lat="5.0233328249" lon="-73.4530391917">
        <ele>1951.90</ele>
        <time>2022-04-28T15:33:43Z</time>
      </trkpt>
      <trkpt lat="5.0233414583" lon="-73.4530536924">
        <ele>1952.12</ele>
        <time>2022-04-28T15:33:44Z</time>
      </trkpt>
      <trkpt lat="5.0233536121" lon="-73.4530655947">
        <ele>1952.31</ele>
        <time>2022-04-28T15:33:45Z</time>
      </trkpt>
      <trkpt lat="5.0233733095" lon="-73.4530976973">
        <ele>1953.61</ele>
        <time>2022-04-28T15:34:00Z</time>
      </trkpt>
      <trkpt lat="5.0233928394" lon="-73.4531354159">
        <ele>1953.38</ele>
        <time>2022-04-28T15:34:22Z</time>
      </trkpt>
      <trkpt lat="5.0234016404" lon="-73.4531440493">
        <ele>1953.41</ele>
        <time>2022-04-28T15:34:23Z</time>
      </trkpt>
      <trkpt lat="5.0234093517" lon="-73.4531562030">
        <ele>1953.52</ele>
        <time>2022-04-28T15:34:24Z</time>
      </trkpt>
      <trkpt lat="5.0234170631" lon="-73.4531719610">
        <ele>1953.59</ele>
        <time>2022-04-28T15:34:25Z</time>
      </trkpt>
      <trkpt lat="5.0234241039" lon="-73.4531898145">
        <ele>1953.65</ele>
        <time>2022-04-28T15:34:26Z</time>
      </trkpt>
      <trkpt lat="5.0234293845" lon="-73.4532083385">
        <ele>1953.71</ele>
        <time>2022-04-28T15:34:27Z</time>
      </trkpt>
      <trkpt lat="5.0234368443" lon="-73.4532275330">
        <ele>1953.77</ele>
        <time>2022-04-28T15:34:28Z</time>
      </trkpt>
      <trkpt lat="5.0234469865" lon="-73.4532463923">
        <ele>1953.81</ele>
        <time>2022-04-28T15:34:29Z</time>
      </trkpt>
      <trkpt lat="5.0234613195" lon="-73.4532645810">
        <ele>1953.85</ele>
        <time>2022-04-28T15:34:30Z</time>
      </trkpt>
      <trkpt lat="5.0234774966" lon="-73.4532818478">
        <ele>1953.90</ele>
        <time>2022-04-28T15:34:31Z</time>
      </trkpt>
      <trkpt lat="5.0234931707" lon="-73.4532976057">
        <ele>1953.96</ele>
        <time>2022-04-28T15:34:32Z</time>
      </trkpt>
      <trkpt lat="5.0235058274" lon="-73.4533152916">
        <ele>1954.05</ele>
        <time>2022-04-28T15:34:33Z</time>
      </trkpt>
      <trkpt lat="5.0235178135" lon="-73.4533342347">
        <ele>1954.12</ele>
        <time>2022-04-28T15:34:34Z</time>
      </trkpt>
      <trkpt lat="5.0237317197" lon="-73.4536321275">
        <ele>1955.88</ele>
        <time>2022-04-28T15:34:49Z</time>
      </trkpt>
      <trkpt lat="5.0237994455" lon="-73.4537457861">
        <ele>1956.68</ele>
        <time>2022-04-28T15:34:55Z</time>
      </trkpt>
      <trkpt lat="5.0238049775" lon="-73.4537679143">
        <ele>1956.87</ele>
        <time>2022-04-28T15:34:56Z</time>
      </trkpt>
      <trkpt lat="5.0238675065" lon="-73.4541123267">
        <ele>1958.45</ele>
        <time>2022-04-28T15:35:11Z</time>
      </trkpt>
      <trkpt lat="5.0238925684" lon="-73.4543642867">
        <ele>1960.84</ele>
        <time>2022-04-28T15:35:23Z</time>
      </trkpt>
      <trkpt lat="5.0239180494" lon="-73.4544368740">
        <ele>1961.64</ele>
        <time>2022-04-28T15:35:27Z</time>
      </trkpt>
      <trkpt lat="5.0239325501" lon="-73.4544470161">
        <ele>1961.80</ele>
        <time>2022-04-28T15:35:28Z</time>
      </trkpt>
      <trkpt lat="5.0239478052" lon="-73.4544575773">
        <ele>1961.94</ele>
        <time>2022-04-28T15:35:29Z</time>
      </trkpt>
      <trkpt lat="5.0239635631" lon="-73.4544668812">
        <ele>1962.07</ele>
        <time>2022-04-28T15:35:30Z</time>
      </trkpt>
      <trkpt lat="5.0239789020" lon="-73.4544771072">
        <ele>1962.20</ele>
        <time>2022-04-28T15:35:31Z</time>
      </trkpt>
      <trkpt lat="5.0239942409" lon="-73.4544867463">
        <ele>1962.33</ele>
        <time>2022-04-28T15:35:32Z</time>
      </trkpt>
      <trkpt lat="5.0240114238" lon="-73.4544947091">
        <ele>1962.47</ele>
        <time>2022-04-28T15:35:33Z</time>
      </trkpt>
      <trkpt lat="5.0241777208" lon="-73.4544918593">
        <ele>1963.89</ele>
        <time>2022-04-28T15:35:43Z</time>
      </trkpt>
      <trkpt lat="5.0241913833" lon="-73.4544815496">
        <ele>1964.02</ele>
        <time>2022-04-28T15:35:44Z</time>
      </trkpt>
      <trkpt lat="5.0242039561" lon="-73.4544708207">
        <ele>1964.16</ele>
        <time>2022-04-28T15:35:45Z</time>
      </trkpt>
      <trkpt lat="5.0242170319" lon="-73.4544588346">
        <ele>1964.30</ele>
        <time>2022-04-28T15:35:46Z</time>
      </trkpt>
      <trkpt lat="5.0242293533" lon="-73.4544466808">
        <ele>1964.45</ele>
        <time>2022-04-28T15:35:47Z</time>
      </trkpt>
      <trkpt lat="5.0242405850" lon="-73.4544325992">
        <ele>1964.62</ele>
        <time>2022-04-28T15:35:48Z</time>
      </trkpt>
      <trkpt lat="5.0242493860" lon="-73.4544180147">
        <ele>1964.79</ele>
        <time>2022-04-28T15:35:49Z</time>
      </trkpt>
      <trkpt lat="5.0242560916" lon="-73.4544020053">
        <ele>1964.93</ele>
        <time>2022-04-28T15:35:50Z</time>
      </trkpt>
      <trkpt lat="5.0242601987" lon="-73.4543872532">
        <ele>1965.04</ele>
        <time>2022-04-28T15:35:51Z</time>
      </trkpt>
      <trkpt lat="5.0242798962" lon="-73.4543806314">
        <ele>1965.72</ele>
        <time>2022-04-28T15:36:08Z</time>
      </trkpt>
      <trkpt lat="5.0243713427" lon="-73.4542603511">
        <ele>1966.30</ele>
        <time>2022-04-28T15:36:20Z</time>
      </trkpt>
      <trkpt lat="5.0245618634" lon="-73.4540912881">
        <ele>1967.89</ele>
        <time>2022-04-28T15:36:34Z</time>
      </trkpt>
      <trkpt lat="5.0245764479" lon="-73.4540813137">
        <ele>1968.09</ele>
        <time>2022-04-28T15:36:35Z</time>
      </trkpt>
      <trkpt lat="5.0247579161" lon="-73.4539157711">
        <ele>1969.78</ele>
        <time>2022-04-28T15:36:50Z</time>
      </trkpt>
      <trkpt lat="5.0250315852" lon="-73.4538170323">
        <ele>1971.88</ele>
        <time>2022-04-28T15:37:05Z</time>
      </trkpt>
      <trkpt lat="5.0253329985" lon="-73.4539026953">
        <ele>1973.47</ele>
        <time>2022-04-28T15:37:22Z</time>
      </trkpt>
      <trkpt lat="5.0255037379" lon="-73.4540807270">
        <ele>1976.07</ele>
        <time>2022-04-28T15:37:37Z</time>
      </trkpt>
      <trkpt lat="5.0255083479" lon="-73.4540954791">
        <ele>1976.25</ele>
        <time>2022-04-28T15:37:38Z</time>
      </trkpt>
      <trkpt lat="5.0255137123" lon="-73.4541117400">
        <ele>1976.43</ele>
        <time>2022-04-28T15:37:39Z</time>
      </trkpt>
      <trkpt lat="5.0255356729" lon="-73.4543404821">
        <ele>1978.03</ele>
        <time>2022-04-28T15:37:53Z</time>
      </trkpt>
      <trkpt lat="5.0255413726" lon="-73.4545360319">
        <ele>1979.11</ele>
        <time>2022-04-28T15:38:06Z</time>
      </trkpt>
      <trkpt lat="5.0255554542" lon="-73.4545969684">
        <ele>1979.65</ele>
        <time>2022-04-28T15:38:10Z</time>
      </trkpt>
      <trkpt lat="5.0255663507" lon="-73.4546703938">
        <ele>1980.07</ele>
        <time>2022-04-28T15:38:14Z</time>
      </trkpt>
      <trkpt lat="5.0255937595" lon="-73.4548699670">
        <ele>1981.46</ele>
        <time>2022-04-28T15:38:25Z</time>
      </trkpt>
      <trkpt lat="5.0256114453" lon="-73.4549762495">
        <ele>1982.23</ele>
        <time>2022-04-28T15:38:40Z</time>
      </trkpt>
      <trkpt lat="5.0256158877" lon="-73.4550010599">
        <ele>1982.38</ele>
        <time>2022-04-28T15:38:44Z</time>
      </trkpt>
      <trkpt lat="5.0256448053" lon="-73.4552862123">
        <ele>1983.64</ele>
        <time>2022-04-28T15:39:01Z</time>
      </trkpt>
      <trkpt lat="5.0256847870" lon="-73.4554811753">
        <ele>1985.31</ele>
        <time>2022-04-28T15:39:13Z</time>
      </trkpt>
      <trkpt lat="5.0257038977" lon="-73.4555828478">
        <ele>1986.12</ele>
        <time>2022-04-28T15:39:19Z</time>
      </trkpt>
      <trkpt lat="5.0257748086" lon="-73.4558265097">
        <ele>1987.85</ele>
        <time>2022-04-28T15:39:33Z</time>
      </trkpt>
      <trkpt lat="5.0258924905" lon="-73.4559607878">
        <ele>1988.60</ele>
        <time>2022-04-28T15:39:42Z</time>
      </trkpt>
      <trkpt lat="5.0261555985" lon="-73.4559444431">
        <ele>1990.61</ele>
        <time>2022-04-28T15:39:57Z</time>
      </trkpt>
      <trkpt lat="5.0262472127" lon="-73.4556958359">
        <ele>1992.66</ele>
        <time>2022-04-28T15:40:11Z</time>
      </trkpt>
      <trkpt lat="5.0261290278" lon="-73.4554701950">
        <ele>1994.55</ele>
        <time>2022-04-28T15:40:27Z</time>
      </trkpt>
      <trkpt lat="5.0260732044" lon="-73.4554021340">
        <ele>1995.21</ele>
        <time>2022-04-28T15:40:32Z</time>
      </trkpt>
      <trkpt lat="5.0260496512" lon="-73.4553116933">
        <ele>1995.99</ele>
        <time>2022-04-28T15:40:38Z</time>
      </trkpt>
      <trkpt lat="5.0259893015" lon="-73.4551629983">
        <ele>1997.31</ele>
        <time>2022-04-28T15:40:49Z</time>
      </trkpt>
      <trkpt lat="5.0261412654" lon="-73.4549244493">
        <ele>1998.82</ele>
        <time>2022-04-28T15:41:05Z</time>
      </trkpt>
      <trkpt lat="5.0263567641" lon="-73.4548744932">
        <ele>2000.08</ele>
        <time>2022-04-28T15:41:17Z</time>
      </trkpt>
      <trkpt lat="5.0263696723" lon="-73.4548676200">
        <ele>2000.22</ele>
        <time>2022-04-28T15:41:18Z</time>
      </trkpt>
      <trkpt lat="5.0265867636" lon="-73.4546852298">
        <ele>2002.26</ele>
        <time>2022-04-28T15:41:34Z</time>
      </trkpt>
      <trkpt lat="5.0267262384" lon="-73.4544689767">
        <ele>2003.76</ele>
        <time>2022-04-28T15:41:48Z</time>
      </trkpt>
      <trkpt lat="5.0267259870" lon="-73.4543524683">
        <ele>2004.34</ele>
        <time>2022-04-28T15:41:54Z</time>
      </trkpt>
      <trkpt lat="5.0267041940" lon="-73.4542138316">
        <ele>2005.35</ele>
        <time>2022-04-28T15:42:02Z</time>
      </trkpt>
      <trkpt lat="5.0266275834" lon="-73.4538716823">
        <ele>2007.47</ele>
        <time>2022-04-28T15:42:21Z</time>
      </trkpt>
      <trkpt lat="5.0264929701" lon="-73.4535789862">
        <ele>2009.26</ele>
        <time>2022-04-28T15:42:40Z</time>
      </trkpt>
      <trkpt lat="5.0264281780" lon="-73.4533937462">
        <ele>2010.60</ele>
        <time>2022-04-28T15:42:53Z</time>
      </trkpt>
      <trkpt lat="5.0264016911" lon="-73.4531663451">
        <ele>2012.15</ele>
        <time>2022-04-28T15:43:07Z</time>
      </trkpt>
      <trkpt lat="5.0263954047" lon="-73.4529379383">
        <ele>2013.93</ele>
        <time>2022-04-28T15:43:21Z</time>
      </trkpt>
      <trkpt lat="5.0264161918" lon="-73.4527150635">
        <ele>2015.70</ele>
        <time>2022-04-28T15:43:35Z</time>
      </trkpt>
      <trkpt lat="5.0265005976" lon="-73.4524765145">
        <ele>2017.40</ele>
        <time>2022-04-28T15:43:50Z</time>
      </trkpt>
      <trkpt lat="5.0266072154" lon="-73.4522273205">
        <ele>2018.94</ele>
        <time>2022-04-28T15:44:07Z</time>
      </trkpt>
      <trkpt lat="5.0267305132" lon="-73.4519929625">
        <ele>2020.37</ele>
        <time>2022-04-28T15:44:23Z</time>
      </trkpt>
      <trkpt lat="5.0268570799" lon="-73.4518062137">
        <ele>2021.72</ele>
        <time>2022-04-28T15:44:37Z</time>
      </trkpt>
      <trkpt lat="5.0270095468" lon="-73.4515885357">
        <ele>2023.63</ele>
        <time>2022-04-28T15:44:52Z</time>
      </trkpt>
      <trkpt lat="5.0271739997" lon="-73.4513758030">
        <ele>2025.59</ele>
        <time>2022-04-28T15:45:07Z</time>
      </trkpt>
      <trkpt lat="5.0271825492" lon="-73.4513609670">
        <ele>2025.70</ele>
        <time>2022-04-28T15:45:08Z</time>
      </trkpt>
      <trkpt lat="5.0273502711" lon="-73.4511831030">
        <ele>2027.64</ele>
        <time>2022-04-28T15:45:23Z</time>
      </trkpt>
      <trkpt lat="5.0273810327" lon="-73.4510808438">
        <ele>2028.39</ele>
        <time>2022-04-28T15:45:30Z</time>
      </trkpt>
      <trkpt lat="5.0275283866" lon="-73.4508796781">
        <ele>2030.10</ele>
        <time>2022-04-28T15:45:46Z</time>
      </trkpt>
      <trkpt lat="5.0277017243" lon="-73.4507257026">
        <ele>2031.96</ele>
        <time>2022-04-28T15:46:03Z</time>
      </trkpt>
      <trkpt lat="5.0277112797" lon="-73.4507169016">
        <ele>2032.05</ele>
        <time>2022-04-28T15:46:04Z</time>
      </trkpt>
      <trkpt lat="5.0278932508" lon="-73.4506283887">
        <ele>2033.60</ele>
        <time>2022-04-28T15:46:17Z</time>
      </trkpt>
      <trkpt lat="5.0280416943" lon="-73.4505468328">
        <ele>2034.68</ele>
        <time>2022-04-28T15:46:25Z</time>
      </trkpt>
      <trkpt lat="5.0282033812" lon="-73.4503749199">
        <ele>2036.85</ele>
        <time>2022-04-28T15:46:37Z</time>
      </trkpt>
      <trkpt lat="5.0283534173" lon="-73.4501630254">
        <ele>2038.84</ele>
        <time>2022-04-28T15:46:52Z</time>
      </trkpt>
      <trkpt lat="5.0283988472" lon="-73.4500823915">
        <ele>2039.68</ele>
        <time>2022-04-28T15:46:58Z</time>
      </trkpt>
      <trkpt lat="5.0284806546" lon="-73.4499963094">
        <ele>2040.44</ele>
        <time>2022-04-28T15:47:05Z</time>
      </trkpt>
      <trkpt lat="5.0286194589" lon="-73.4497656394">
        <ele>2041.78</ele>
        <time>2022-04-28T15:47:22Z</time>
      </trkpt>
      <trkpt lat="5.0286524836" lon="-73.4496625420">
        <ele>2042.31</ele>
        <time>2022-04-28T15:47:29Z</time>
      </trkpt>
      <trkpt lat="5.0286437664" lon="-73.4495735262">
        <ele>2042.89</ele>
        <time>2022-04-28T15:47:35Z</time>
      </trkpt>
      <trkpt lat="5.0286620390" lon="-73.4495143499">
        <ele>2043.12</ele>
        <time>2022-04-28T15:47:39Z</time>
      </trkpt>
      <trkpt lat="5.0286768749" lon="-73.4494716860">
        <ele>2043.31</ele>
        <time>2022-04-28T15:47:42Z</time>
      </trkpt>
      <trkpt lat="5.0286974106" lon="-73.4494064748">
        <ele>2043.76</ele>
        <time>2022-04-28T15:47:47Z</time>
      </trkpt>
      <trkpt lat="5.0287987478" lon="-73.4491629805">
        <ele>2045.43</ele>
        <time>2022-04-28T15:48:04Z</time>
      </trkpt>
      <trkpt lat="5.0289440062" lon="-73.4488798399">
        <ele>2047.39</ele>
        <time>2022-04-28T15:48:21Z</time>
      </trkpt>
      <trkpt lat="5.0291559007" lon="-73.4487010539">
        <ele>2049.83</ele>
        <time>2022-04-28T15:48:38Z</time>
      </trkpt>
      <trkpt lat="5.0293045957" lon="-73.4486116190">
        <ele>2051.73</ele>
        <time>2022-04-28T15:48:52Z</time>
      </trkpt>
      <trkpt lat="5.0295465812" lon="-73.4485017322">
        <ele>2053.67</ele>
        <time>2022-04-28T15:49:10Z</time>
      </trkpt>
      <trkpt lat="5.0295760855" lon="-73.4485065099">
        <ele>2053.89</ele>
        <time>2022-04-28T15:49:12Z</time>
      </trkpt>
      <trkpt lat="5.0296625029" lon="-73.4484940208">
        <ele>2054.48</ele>
        <time>2022-04-28T15:49:18Z</time>
      </trkpt>
      <trkpt lat="5.0297321565" lon="-73.4484733175">
        <ele>2054.94</ele>
        <time>2022-04-28T15:49:23Z</time>
      </trkpt>
      <trkpt lat="5.0299405307" lon="-73.4484201763">
        <ele>2056.88</ele>
        <time>2022-04-28T15:49:38Z</time>
      </trkpt>
      <trkpt lat="5.0301905628" lon="-73.4483973775">
        <ele>2058.48</ele>
        <time>2022-04-28T15:49:54Z</time>
      </trkpt>
      <trkpt lat="5.0304229092" lon="-73.4483876545">
        <ele>2060.03</ele>
        <time>2022-04-28T15:50:08Z</time>
      </trkpt>
      <trkpt lat="5.0307016913" lon="-73.4483949468">
        <ele>2062.12</ele>
        <time>2022-04-28T15:50:24Z</time>
      </trkpt>
      <trkpt lat="5.0309502985" lon="-73.4484526981">
        <ele>2063.77</ele>
        <time>2022-04-28T15:50:39Z</time>
      </trkpt>
      <trkpt lat="5.0311805494" lon="-73.4484695457">
        <ele>2065.47</ele>
        <time>2022-04-28T15:50:52Z</time>
      </trkpt>
      <trkpt lat="5.0313534681" lon="-73.4483867325">
        <ele>2066.95</ele>
        <time>2022-04-28T15:51:04Z</time>
      </trkpt>
      <trkpt lat="5.0315149035" lon="-73.4482397977">
        <ele>2068.47</ele>
        <time>2022-04-28T15:51:18Z</time>
      </trkpt>
      <trkpt lat="5.0316525344" lon="-73.4479883406">
        <ele>2070.45</ele>
        <time>2022-04-28T15:51:35Z</time>
      </trkpt>
      <trkpt lat="5.0317270495" lon="-73.4478110634">
        <ele>2071.58</ele>
        <time>2022-04-28T15:51:48Z</time>
      </trkpt>
      <trkpt lat="5.0318050850" lon="-73.4476101492">
        <ele>2073.15</ele>
        <time>2022-04-28T15:52:01Z</time>
      </trkpt>
      <trkpt lat="5.0318849646" lon="-73.4473316185">
        <ele>2075.08</ele>
        <time>2022-04-28T15:52:18Z</time>
      </trkpt>
      <trkpt lat="5.0319015607" lon="-73.4472648147">
        <ele>2076.04</ele>
        <time>2022-04-28T15:52:35Z</time>
      </trkpt>
      <trkpt lat="5.0319326576" lon="-73.4471431095">
        <ele>2076.43</ele>
        <time>2022-04-28T15:52:49Z</time>
      </trkpt>
      <trkpt lat="5.0319149718" lon="-73.4469813388">
        <ele>2078.07</ele>
        <time>2022-04-28T15:53:03Z</time>
      </trkpt>
      <trkpt lat="5.0318877306" lon="-73.4468578734">
        <ele>2079.22</ele>
        <time>2022-04-28T15:53:12Z</time>
      </trkpt>
      <trkpt lat="5.0319067575" lon="-73.4466876369">
        <ele>2080.35</ele>
        <time>2022-04-28T15:53:21Z</time>
      </trkpt>
      <trkpt lat="5.0320691988" lon="-73.4464893211">
        <ele>2082.10</ele>
        <time>2022-04-28T15:53:37Z</time>
      </trkpt>
      <trkpt lat="5.0323158782" lon="-73.4464749042">
        <ele>2083.12</ele>
        <time>2022-04-28T15:53:50Z</time>
      </trkpt>
      <trkpt lat="5.0326711033" lon="-73.4464443941">
        <ele>2085.65</ele>
        <time>2022-04-28T15:54:08Z</time>
      </trkpt>
      <trkpt lat="5.0327835884" lon="-73.4463854693">
        <ele>2086.41</ele>
        <time>2022-04-28T15:54:15Z</time>
      </trkpt>
      <trkpt lat="5.0328267552" lon="-73.4463291429">
        <ele>2087.19</ele>
        <time>2022-04-28T15:54:20Z</time>
      </trkpt>
      <trkpt lat="5.0328130089" lon="-73.4461151529">
        <ele>2088.84</ele>
        <time>2022-04-28T15:54:33Z</time>
      </trkpt>
      <trkpt lat="5.0327426847" lon="-73.4459335171">
        <ele>2090.14</ele>
        <time>2022-04-28T15:54:44Z</time>
      </trkpt>
      <trkpt lat="5.0327098276" lon="-73.4458775260">
        <ele>2090.60</ele>
        <time>2022-04-28T15:54:48Z</time>
      </trkpt>
      <trkpt lat="5.0326299481" lon="-73.4456419945">
        <ele>2092.18</ele>
        <time>2022-04-28T15:55:00Z</time>
      </trkpt>
      <trkpt lat="5.0325241685" lon="-73.4453233983">
        <ele>2093.56</ele>
        <time>2022-04-28T15:55:17Z</time>
      </trkpt>
      <trkpt lat="5.0324644893" lon="-73.4450598713">
        <ele>2095.25</ele>
        <time>2022-04-28T15:55:32Z</time>
      </trkpt>
      <trkpt lat="5.0324683450" lon="-73.4450416826">
        <ele>2095.39</ele>
        <time>2022-04-28T15:55:33Z</time>
      </trkpt>
      <trkpt lat="5.0326064788" lon="-73.4448498208">
        <ele>2096.93</ele>
        <time>2022-04-28T15:55:46Z</time>
      </trkpt>
      <trkpt lat="5.0328883622" lon="-73.4448013734">
        <ele>2097.83</ele>
        <time>2022-04-28T15:56:01Z</time>
      </trkpt>
      <trkpt lat="5.0331704132" lon="-73.4447497409">
        <ele>2098.78</ele>
        <time>2022-04-28T15:56:15Z</time>
      </trkpt>
      <trkpt lat="5.0333878398" lon="-73.4444886446">
        <ele>2101.76</ele>
        <time>2022-04-28T15:56:32Z</time>
      </trkpt>
      <trkpt lat="5.0334006641" lon="-73.4443490859">
        <ele>2102.72</ele>
        <time>2022-04-28T15:56:39Z</time>
      </trkpt>
      <trkpt lat="5.0332970638" lon="-73.4440641012">
        <ele>2104.50</ele>
        <time>2022-04-28T15:56:54Z</time>
      </trkpt>
      <trkpt lat="5.0332048628" lon="-73.4437961318">
        <ele>2106.43</ele>
        <time>2022-04-28T15:57:10Z</time>
      </trkpt>
      <trkpt lat="5.0331704970" lon="-73.4435549006">
        <ele>2108.26</ele>
        <time>2022-04-28T15:57:24Z</time>
      </trkpt>
      <trkpt lat="5.0331815612" lon="-73.4434349556">
        <ele>2108.52</ele>
        <time>2022-04-28T15:57:31Z</time>
      </trkpt>
      <trkpt lat="5.0331755262" lon="-73.4433641285">
        <ele>2109.02</ele>
        <time>2022-04-28T15:57:35Z</time>
      </trkpt>
      <trkpt lat="5.0331953913" lon="-73.4430350550">
        <ele>2110.89</ele>
        <time>2022-04-28T15:57:52Z</time>
      </trkpt>
      <trkpt lat="5.0332836527" lon="-73.4427586198">
        <ele>2112.70</ele>
        <time>2022-04-28T15:58:07Z</time>
      </trkpt>
      <trkpt lat="5.0333532225" lon="-73.4426692687">
        <ele>2113.56</ele>
        <time>2022-04-28T15:58:13Z</time>
      </trkpt>
      <trkpt lat="5.0334040169" lon="-73.4425826836">
        <ele>2114.07</ele>
        <time>2022-04-28T15:58:18Z</time>
      </trkpt>
      <trkpt lat="5.0334422383" lon="-73.4422956035">
        <ele>2115.64</ele>
        <time>2022-04-28T15:58:34Z</time>
      </trkpt>
      <trkpt lat="5.0332813058" lon="-73.4419667814">
        <ele>2117.33</ele>
        <time>2022-04-28T15:58:51Z</time>
      </trkpt>
      <trkpt lat="5.0333246402" lon="-73.4416610934">
        <ele>2118.85</ele>
        <time>2022-04-28T15:59:06Z</time>
      </trkpt>
      <trkpt lat="5.0334967207" lon="-73.4415320959">
        <ele>2119.35</ele>
        <time>2022-04-28T15:59:17Z</time>
      </trkpt>
      <trkpt lat="5.0338519458" lon="-73.4414929524">
        <ele>2120.59</ele>
        <time>2022-04-28T15:59:34Z</time>
      </trkpt>
      <trkpt lat="5.0340300612" lon="-73.4413780365">
        <ele>2121.34</ele>
        <time>2022-04-28T15:59:44Z</time>
      </trkpt>
      <trkpt lat="5.0342123676" lon="-73.4412342031">
        <ele>2123.20</ele>
        <time>2022-04-28T15:59:57Z</time>
      </trkpt>
      <trkpt lat="5.0344955083" lon="-73.4412964806">
        <ele>2124.66</ele>
        <time>2022-04-28T16:00:12Z</time>
      </trkpt>
      <trkpt lat="5.0346869510" lon="-73.4414330218">
        <ele>2125.89</ele>
        <time>2022-04-28T16:00:25Z</time>
      </trkpt>
      <trkpt lat="5.0349482987" lon="-73.4415009152">
        <ele>2127.13</ele>
        <time>2022-04-28T16:00:41Z</time>
      </trkpt>
      <trkpt lat="5.0350979995" lon="-73.4414315969">
        <ele>2128.12</ele>
        <time>2022-04-28T16:00:50Z</time>
      </trkpt>
      <trkpt lat="5.0351036154" lon="-73.4413521364">
        <ele>2128.49</ele>
        <time>2022-04-28T16:00:55Z</time>
      </trkpt>
      <trkpt lat="5.0351021904" lon="-73.4410037845">
        <ele>2130.47</ele>
        <time>2022-04-28T16:01:13Z</time>
      </trkpt>
      <trkpt lat="5.0351272523" lon="-73.4407014493">
        <ele>2131.83</ele>
        <time>2022-04-28T16:01:28Z</time>
      </trkpt>
      <trkpt lat="5.0352906156" lon="-73.4404003713">
        <ele>2133.64</ele>
        <time>2022-04-28T16:01:45Z</time>
      </trkpt>
      <trkpt lat="5.0355574954" lon="-73.4401639178">
        <ele>2135.33</ele>
        <time>2022-04-28T16:02:02Z</time>
      </trkpt>
      <trkpt lat="5.0357776042" lon="-73.4400487505">
        <ele>2136.18</ele>
        <time>2022-04-28T16:02:14Z</time>
      </trkpt>
      <trkpt lat="5.0360084418" lon="-73.4398683719">
        <ele>2137.62</ele>
        <time>2022-04-28T16:02:29Z</time>
      </trkpt>
      <trkpt lat="5.0360778440" lon="-73.4396605007">
        <ele>2138.61</ele>
        <time>2022-04-28T16:02:42Z</time>
      </trkpt>
      <trkpt lat="5.0360314921" lon="-73.4394067805">
        <ele>2140.29</ele>
        <time>2022-04-28T16:02:55Z</time>
      </trkpt>
      <trkpt lat="5.0358594116" lon="-73.4391733445">
        <ele>2142.08</ele>
        <time>2022-04-28T16:03:10Z</time>
      </trkpt>
      <trkpt lat="5.0356415659" lon="-73.4389477037">
        <ele>2143.47</ele>
        <time>2022-04-28T16:03:24Z</time>
      </trkpt>
      <trkpt lat="5.0355591718" lon="-73.4386540018">
        <ele>2144.65</ele>
        <time>2022-04-28T16:03:40Z</time>
      </trkpt>
      <trkpt lat="5.0357456692" lon="-73.4384488128">
        <ele>2145.97</ele>
        <time>2022-04-28T16:03:55Z</time>
      </trkpt>
      <trkpt lat="5.0358117186" lon="-73.4384149499">
        <ele>2146.62</ele>
        <time>2022-04-28T16:03:59Z</time>
      </trkpt>
      <trkpt lat="5.0358993094" lon="-73.4383816738">
        <ele>2147.36</ele>
        <time>2022-04-28T16:04:05Z</time>
      </trkpt>
      <trkpt lat="5.0359429792" lon="-73.4383538458">
        <ele>2147.72</ele>
        <time>2022-04-28T16:04:08Z</time>
      </trkpt>
      <trkpt lat="5.0361025706" lon="-73.4381407779">
        <ele>2149.30</ele>
        <time>2022-04-28T16:04:24Z</time>
      </trkpt>
      <trkpt lat="5.0361552928" lon="-73.4378707130">
        <ele>2151.06</ele>
        <time>2022-04-28T16:04:38Z</time>
      </trkpt>
      <trkpt lat="5.0361257046" lon="-73.4375972115">
        <ele>2152.72</ele>
        <time>2022-04-28T16:04:54Z</time>
      </trkpt>
      <trkpt lat="5.0360742398" lon="-73.4373650327">
        <ele>2154.50</ele>
        <time>2022-04-28T16:05:09Z</time>
      </trkpt>
      <trkpt lat="5.0361456536" lon="-73.4371683933">
        <ele>2155.67</ele>
        <time>2022-04-28T16:05:22Z</time>
      </trkpt>
      <trkpt lat="5.0363552012" lon="-73.4370810539">
        <ele>2156.71</ele>
        <time>2022-04-28T16:05:34Z</time>
      </trkpt>
      <trkpt lat="5.0366024673" lon="-73.4369830694">
        <ele>2158.91</ele>
        <time>2022-04-28T16:05:51Z</time>
      </trkpt>
      <trkpt lat="5.0368017890" lon="-73.4367839992">
        <ele>2160.53</ele>
        <time>2022-04-28T16:06:06Z</time>
      </trkpt>
      <trkpt lat="5.0369267631" lon="-73.4364804905">
        <ele>2162.56</ele>
        <time>2022-04-28T16:06:23Z</time>
      </trkpt>
      <trkpt lat="5.0369777251" lon="-73.4363395907">
        <ele>2163.12</ele>
        <time>2022-04-28T16:06:31Z</time>
      </trkpt>
      <trkpt lat="5.0369677506" lon="-73.4362397622">
        <ele>2163.99</ele>
        <time>2022-04-28T16:06:37Z</time>
      </trkpt>
      <trkpt lat="5.0370857678" lon="-73.4359084256">
        <ele>2166.26</ele>
        <time>2022-04-28T16:06:55Z</time>
      </trkpt>
      <trkpt lat="5.0371963251" lon="-73.4356700443">
        <ele>2167.60</ele>
        <time>2022-04-28T16:07:07Z</time>
      </trkpt>
      <trkpt lat="5.0373432599" lon="-73.4354109596">
        <ele>2168.68</ele>
        <time>2022-04-28T16:07:21Z</time>
      </trkpt>
      <trkpt lat="5.0374860875" lon="-73.4352249652">
        <ele>2168.50</ele>
        <time>2022-04-28T16:07:35Z</time>
      </trkpt>
      <trkpt lat="5.0374982413" lon="-73.4352186788">
        <ele>2168.26</ele>
        <time>2022-04-28T16:08:09Z</time>
      </trkpt>
      <trkpt lat="5.0374871772" lon="-73.4352135658">
        <ele>2167.86</ele>
        <time>2022-04-28T16:09:15Z</time>
      </trkpt>
      <trkpt lat="5.0374751911" lon="-73.4352060221">
        <ele>2168.41</ele>
        <time>2022-04-28T16:10:13Z</time>
      </trkpt>
      <trkpt lat="5.0374974869" lon="-73.4352195170">
        <ele>2168.68</ele>
        <time>2022-04-28T16:11:22Z</time>
      </trkpt>
      <trkpt lat="5.0374886021" lon="-73.4352007415">
        <ele>2168.89</ele>
        <time>2022-04-28T16:12:29Z</time>
      </trkpt>
      <trkpt lat="5.0374679826" lon="-73.4351775236">
        <ele>2168.41</ele>
        <time>2022-04-28T16:13:34Z</time>
      </trkpt>
      <trkpt lat="5.0374823157" lon="-73.4352130629">
        <ele>2169.08</ele>
        <time>2022-04-28T16:14:14Z</time>
      </trkpt>
      <trkpt lat="5.0374891888" lon="-73.4352310002">
        <ele>2168.93</ele>
        <time>2022-04-28T16:14:56Z</time>
      </trkpt>
      <trkpt lat="5.0374886021" lon="-73.4352381248">
        <ele>2169.33</ele>
        <time>2022-04-28T16:15:17Z</time>
      </trkpt>
      <trkpt lat="5.0374930445" lon="-73.4352348559">
        <ele>2168.90</ele>
        <time>2022-04-28T16:15:37Z</time>
      </trkpt>
      <trkpt lat="5.0374846626" lon="-73.4352297429">
        <ele>2169.18</ele>
        <time>2022-04-28T16:15:58Z</time>
      </trkpt>
      <trkpt lat="5.0374956429" lon="-73.4352223668">
        <ele>2169.20</ele>
        <time>2022-04-28T16:16:35Z</time>
      </trkpt>
      <trkpt lat="5.0375132449" lon="-73.4352301620">
        <ele>2168.80</ele>
        <time>2022-04-28T16:17:03Z</time>
      </trkpt>
      <trkpt lat="5.0375057850" lon="-73.4352297429">
        <ele>2169.74</ele>
        <time>2022-04-28T16:17:51Z</time>
      </trkpt>
      <trkpt lat="5.0375105627" lon="-73.4352233727">
        <ele>2169.08</ele>
        <time>2022-04-28T16:18:29Z</time>
      </trkpt>
      <trkpt lat="5.0375291705" lon="-73.4352447465">
        <ele>2168.74</ele>
        <time>2022-04-28T16:18:50Z</time>
      </trkpt>
      <trkpt lat="5.0374901947" lon="-73.4352282342">
        <ele>2169.47</ele>
        <time>2022-04-28T16:19:47Z</time>
      </trkpt>
      <trkpt lat="5.0374865904" lon="-73.4352154098">
        <ele>2169.14</ele>
        <time>2022-04-28T16:20:09Z</time>
      </trkpt>
      <trkpt lat="5.0374830700" lon="-73.4352478478">
        <ele>2169.25</ele>
        <time>2022-04-28T16:20:30Z</time>
      </trkpt>
      <trkpt lat="5.0374863390" lon="-73.4352294914">
        <ele>2169.58</ele>
        <time>2022-04-28T16:20:58Z</time>
      </trkpt>
      <trkpt lat="5.0374819804" lon="-73.4352444112">
        <ele>2169.16</ele>
        <time>2022-04-28T16:21:15Z</time>
      </trkpt>
      <trkpt lat="5.0374660548" lon="-73.4352593310">
        <ele>2169.47</ele>
        <time>2022-04-28T16:23:24Z</time>
      </trkpt>
      <trkpt lat="5.0374552421" lon="-73.4352444112">
        <ele>2169.47</ele>
        <time>2022-04-28T16:24:38Z</time>
      </trkpt>
      <trkpt lat="5.0374694914" lon="-73.4352507815">
        <ele>2169.69</ele>
        <time>2022-04-28T16:25:36Z</time>
      </trkpt>
      <trkpt lat="5.0374495424" lon="-73.4352500271">
        <ele>2169.77</ele>
        <time>2022-04-28T16:25:55Z</time>
      </trkpt>
      <trkpt lat="5.0375372171" lon="-73.4352601692">
        <ele>2170.06</ele>
        <time>2022-04-28T16:26:05Z</time>
      </trkpt>
      <trkpt lat="5.0375419110" lon="-73.4353128076">
        <ele>2170.23</ele>
        <time>2022-04-28T16:26:08Z</time>
      </trkpt>
      <trkpt lat="5.0375455152" lon="-73.4356503468">
        <ele>2172.81</ele>
        <time>2022-04-28T16:26:26Z</time>
      </trkpt>
      <trkpt lat="5.0375249796" lon="-73.4358474053">
        <ele>2175.87</ele>
        <time>2022-04-28T16:26:41Z</time>
      </trkpt>
      <trkpt lat="5.0374503806" lon="-73.4360564500">
        <ele>2178.22</ele>
        <time>2022-04-28T16:26:56Z</time>
      </trkpt>
      <trkpt lat="5.0373502169" lon="-73.4362948313">
        <ele>2179.72</ele>
        <time>2022-04-28T16:27:11Z</time>
      </trkpt>
      <trkpt lat="5.0374138355" lon="-73.4365952387">
        <ele>2179.83</ele>
        <time>2022-04-28T16:27:24Z</time>
      </trkpt>
      <trkpt lat="5.0378263090" lon="-73.4367650561">
        <ele>2179.50</ele>
        <time>2022-04-28T16:27:37Z</time>
      </trkpt>
      <trkpt lat="5.0380434841" lon="-73.4368870966">
        <ele>2178.88</ele>
        <time>2022-04-28T16:27:43Z</time>
      </trkpt>
      <trkpt lat="5.0382563844" lon="-73.4369399026">
        <ele>2177.75</ele>
        <time>2022-04-28T16:27:48Z</time>
      </trkpt>
      <trkpt lat="5.0383972842" lon="-73.4369673114">
        <ele>2176.92</ele>
        <time>2022-04-28T16:27:51Z</time>
      </trkpt>
      <trkpt lat="5.0386283733" lon="-73.4370051976">
        <ele>2175.60</ele>
        <time>2022-04-28T16:27:56Z</time>
      </trkpt>
      <trkpt lat="5.0388330594" lon="-73.4370274935">
        <ele>2174.61</ele>
        <time>2022-04-28T16:28:00Z</time>
      </trkpt>
      <trkpt lat="5.0390393380" lon="-73.4369708318">
        <ele>2173.25</ele>
        <time>2022-04-28T16:28:04Z</time>
      </trkpt>
      <trkpt lat="5.0391498953" lon="-73.4369506314">
        <ele>2172.42</ele>
        <time>2022-04-28T16:28:06Z</time>
      </trkpt>
      <trkpt lat="5.0393415894" lon="-73.4369612765">
        <ele>2171.18</ele>
        <time>2022-04-28T16:28:09Z</time>
      </trkpt>
      <trkpt lat="5.0395829044" lon="-73.4370409045">
        <ele>2168.15</ele>
        <time>2022-04-28T16:28:13Z</time>
      </trkpt>
      <trkpt lat="5.0399369560" lon="-73.4369911999">
        <ele>2164.18</ele>
        <time>2022-04-28T16:28:19Z</time>
      </trkpt>
      <trkpt lat="5.0400750060" lon="-73.4371066187">
        <ele>2161.42</ele>
        <time>2022-04-28T16:28:23Z</time>
      </trkpt>
      <trkpt lat="5.0402102899" lon="-73.4372376278">
        <ele>2158.19</ele>
        <time>2022-04-28T16:28:27Z</time>
      </trkpt>
      <trkpt lat="5.0406065024" lon="-73.4372588340">
        <ele>2153.87</ele>
        <time>2022-04-28T16:28:33Z</time>
      </trkpt>
      <trkpt lat="5.0406823587" lon="-73.4372561518">
        <ele>2153.17</ele>
        <time>2022-04-28T16:28:34Z</time>
      </trkpt>
      <trkpt lat="5.0409621466" lon="-73.4372642823">
        <ele>2148.53</ele>
        <time>2022-04-28T16:28:38Z</time>
      </trkpt>
      <trkpt lat="5.0411255937" lon="-73.4374189284">
        <ele>2145.23</ele>
        <time>2022-04-28T16:28:41Z</time>
      </trkpt>
      <trkpt lat="5.0413682498" lon="-73.4375818726">
        <ele>2141.31</ele>
        <time>2022-04-28T16:28:45Z</time>
      </trkpt>
      <trkpt lat="5.0415630452" lon="-73.4375817887">
        <ele>2138.27</ele>
        <time>2022-04-28T16:28:48Z</time>
      </trkpt>
      <trkpt lat="5.0419248082" lon="-73.4375027474">
        <ele>2133.44</ele>
        <time>2022-04-28T16:28:53Z</time>
      </trkpt>
      <trkpt lat="5.0422849786" lon="-73.4375184216">
        <ele>2129.26</ele>
        <time>2022-04-28T16:28:58Z</time>
      </trkpt>
      <trkpt lat="5.0424216874" lon="-73.4375530388">
        <ele>2127.82</ele>
        <time>2022-04-28T16:29:00Z</time>
      </trkpt>
      <trkpt lat="5.0428532716" lon="-73.4375267196">
        <ele>2123.08</ele>
        <time>2022-04-28T16:29:06Z</time>
      </trkpt>
      <trkpt lat="5.0429784134" lon="-73.4374491032">
        <ele>2122.16</ele>
        <time>2022-04-28T16:29:08Z</time>
      </trkpt>
      <trkpt lat="5.0430895574" lon="-73.4373682179">
        <ele>2121.33</ele>
        <time>2022-04-28T16:29:10Z</time>
      </trkpt>
      <trkpt lat="5.0434297789" lon="-73.4373096284">
        <ele>2118.82</ele>
        <time>2022-04-28T16:29:15Z</time>
      </trkpt>
      <trkpt lat="5.0435953215" lon="-73.4373388812">
        <ele>2117.65</ele>
        <time>2022-04-28T16:29:17Z</time>
      </trkpt>
      <trkpt lat="5.0437435973" lon="-73.4373817965">
        <ele>2116.34</ele>
        <time>2022-04-28T16:29:19Z</time>
      </trkpt>
      <trkpt lat="5.0440080464" lon="-73.4373139869">
        <ele>2113.18</ele>
        <time>2022-04-28T16:29:23Z</time>
      </trkpt>
      <trkpt lat="5.0443447474" lon="-73.4370679781">
        <ele>2109.72</ele>
        <time>2022-04-28T16:29:29Z</time>
      </trkpt>
      <trkpt lat="5.0443892553" lon="-73.4369893558">
        <ele>2108.26</ele>
        <time>2022-04-28T16:29:31Z</time>
      </trkpt>
      <trkpt lat="5.0443641935" lon="-73.4366595279">
        <ele>2104.86</ele>
        <time>2022-04-28T16:29:42Z</time>
      </trkpt>
      <trkpt lat="5.0441881735" lon="-73.4362683445">
        <ele>2104.84</ele>
        <time>2022-04-28T16:29:54Z</time>
      </trkpt>
      <trkpt lat="5.0443687197" lon="-73.4360259399">
        <ele>2106.01</ele>
        <time>2022-04-28T16:30:06Z</time>
      </trkpt>
      <trkpt lat="5.0446551293" lon="-73.4359252732">
        <ele>2105.91</ele>
        <time>2022-04-28T16:30:14Z</time>
      </trkpt>
      <trkpt lat="5.0448667724" lon="-73.4358865488">
        <ele>2104.98</ele>
        <time>2022-04-28T16:30:18Z</time>
      </trkpt>
      <trkpt lat="5.0451587141" lon="-73.4358769935">
        <ele>2102.67</ele>
        <time>2022-04-28T16:30:23Z</time>
      </trkpt>
      <trkpt lat="5.0455999374" lon="-73.4361110162">
        <ele>2098.66</ele>
        <time>2022-04-28T16:30:30Z</time>
      </trkpt>
      <trkpt lat="5.0456498936" lon="-73.4361732937">
        <ele>2098.07</ele>
        <time>2022-04-28T16:30:31Z</time>
      </trkpt>
      <trkpt lat="5.0457405858" lon="-73.4362945799">
        <ele>2097.01</ele>
        <time>2022-04-28T16:30:33Z</time>
      </trkpt>
      <trkpt lat="5.0459663104" lon="-73.4365109168">
        <ele>2095.08</ele>
        <time>2022-04-28T16:30:37Z</time>
      </trkpt>
      <trkpt lat="5.0463327672" lon="-73.4366513975">
        <ele>2092.60</ele>
        <time>2022-04-28T16:30:42Z</time>
      </trkpt>
      <trkpt lat="5.0467209332" lon="-73.4367274214">
        <ele>2088.96</ele>
        <time>2022-04-28T16:30:47Z</time>
      </trkpt>
      <trkpt lat="5.0467956159" lon="-73.4367300197">
        <ele>2088.39</ele>
        <time>2022-04-28T16:30:48Z</time>
      </trkpt>
      <trkpt lat="5.0470735598" lon="-73.4366866015">
        <ele>2085.91</ele>
        <time>2022-04-28T16:30:52Z</time>
      </trkpt>
      <trkpt lat="5.0473655015" lon="-73.4366261680">
        <ele>2083.12</ele>
        <time>2022-04-28T16:30:56Z</time>
      </trkpt>
      <trkpt lat="5.0477400050" lon="-73.4364927281">
        <ele>2080.07</ele>
        <time>2022-04-28T16:31:01Z</time>
      </trkpt>
      <trkpt lat="5.0481223874" lon="-73.4364888724">
        <ele>2077.84</ele>
        <time>2022-04-28T16:31:06Z</time>
      </trkpt>
      <trkpt lat="5.0483517163" lon="-73.4364803229">
        <ele>2076.62</ele>
        <time>2022-04-28T16:31:09Z</time>
      </trkpt>
      <trkpt lat="5.0485874992" lon="-73.4364817478">
        <ele>2074.74</ele>
        <time>2022-04-28T16:31:12Z</time>
      </trkpt>
      <trkpt lat="5.0488107093" lon="-73.4364785627">
        <ele>2073.44</ele>
        <time>2022-04-28T16:31:15Z</time>
      </trkpt>
      <trkpt lat="5.0490868092" lon="-73.4364684206">
        <ele>2071.33</ele>
        <time>2022-04-28T16:31:19Z</time>
      </trkpt>
      <trkpt lat="5.0492922496" lon="-73.4364574403">
        <ele>2069.19</ele>
        <time>2022-04-28T16:31:22Z</time>
      </trkpt>
      <trkpt lat="5.0495078322" lon="-73.4364698455">
        <ele>2066.45</ele>
        <time>2022-04-28T16:31:27Z</time>
      </trkpt>
      <trkpt lat="5.0496240053" lon="-73.4364347253">
        <ele>2065.18</ele>
        <time>2022-04-28T16:31:31Z</time>
      </trkpt>
      <trkpt lat="5.0499311183" lon="-73.4363268502">
        <ele>2067.52</ele>
        <time>2022-04-28T16:31:46Z</time>
      </trkpt>
      <trkpt lat="5.0499666575" lon="-73.4363224078">
        <ele>2068.10</ele>
        <time>2022-04-28T16:31:48Z</time>
      </trkpt>
      <trkpt lat="5.0501192082" lon="-73.4363493975">
        <ele>2070.07</ele>
        <time>2022-04-28T16:31:56Z</time>
      </trkpt>
      <trkpt lat="5.0502163544" lon="-73.4363949113">
        <ele>2071.75</ele>
        <time>2022-04-28T16:32:03Z</time>
      </trkpt>
      <trkpt lat="5.0502976589" lon="-73.4364444483">
        <ele>2073.08</ele>
        <time>2022-04-28T16:32:11Z</time>
      </trkpt>
      <trkpt lat="5.0504452642" lon="-73.4365167003">
        <ele>2075.32</ele>
        <time>2022-04-28T16:32:25Z</time>
      </trkpt>
      <trkpt lat="5.0505652931" lon="-73.4365507308">
        <ele>2076.54</ele>
        <time>2022-04-28T16:32:35Z</time>
      </trkpt>
      <trkpt lat="5.0507134013" lon="-73.4365365654">
        <ele>2078.58</ele>
        <time>2022-04-28T16:32:49Z</time>
      </trkpt>
      <trkpt lat="5.0508703105" lon="-73.4365462046">
        <ele>2081.38</ele>
        <time>2022-04-28T16:33:04Z</time>
      </trkpt>
      <trkpt lat="5.0510490127" lon="-73.4365774691">
        <ele>2083.92</ele>
        <time>2022-04-28T16:33:21Z</time>
      </trkpt>
      <trkpt lat="5.0510801096" lon="-73.4365779720">
        <ele>2084.35</ele>
        <time>2022-04-28T16:33:24Z</time>
      </trkpt>
      <trkpt lat="5.0512272120" lon="-73.4365539998">
        <ele>2086.26</ele>
        <time>2022-04-28T16:33:37Z</time>
      </trkpt>
      <trkpt lat="5.0512977038" lon="-73.4365499765">
        <ele>2086.98</ele>
        <time>2022-04-28T16:33:42Z</time>
      </trkpt>
      <trkpt lat="5.0513555389" lon="-73.4365210589">
        <ele>2087.91</ele>
        <time>2022-04-28T16:33:47Z</time>
      </trkpt>
      <trkpt lat="5.0515730493" lon="-73.4364130162">
        <ele>2089.88</ele>
        <time>2022-04-28T16:34:04Z</time>
      </trkpt>
      <trkpt lat="5.0517601334" lon="-73.4363113437">
        <ele>2091.63</ele>
        <time>2022-04-28T16:34:18Z</time>
      </trkpt>
      <trkpt lat="5.0520198885" lon="-73.4361611400">
        <ele>2092.31</ele>
        <time>2022-04-28T16:34:31Z</time>
      </trkpt>
      <trkpt lat="5.0522761233" lon="-73.4360078350">
        <ele>2091.62</ele>
        <time>2022-04-28T16:34:37Z</time>
      </trkpt>
      <trkpt lat="5.0523225591" lon="-73.4359725472">
        <ele>2091.27</ele>
        <time>2022-04-28T16:34:38Z</time>
      </trkpt>
      <trkpt lat="5.0523656420" lon="-73.4359353315">
        <ele>2090.87</ele>
        <time>2022-04-28T16:34:39Z</time>
      </trkpt>
      <trkpt lat="5.0527052768" lon="-73.4356280509">
        <ele>2087.80</ele>
        <time>2022-04-28T16:34:46Z</time>
      </trkpt>
      <trkpt lat="5.0527642854" lon="-73.4355799388">
        <ele>2087.37</ele>
        <time>2022-04-28T16:34:47Z</time>
      </trkpt>
      <trkpt lat="5.0528304186" lon="-73.4355371911">
        <ele>2086.91</ele>
        <time>2022-04-28T16:34:48Z</time>
      </trkpt>
      <trkpt lat="5.0532001443" lon="-73.4353137296">
        <ele>2083.36</ele>
        <time>2022-04-28T16:34:53Z</time>
      </trkpt>
      <trkpt lat="5.0535390247" lon="-73.4351273160">
        <ele>2079.80</ele>
        <time>2022-04-28T16:34:57Z</time>
      </trkpt>
      <trkpt lat="5.0537508354" lon="-73.4349610191">
        <ele>2076.34</ele>
        <time>2022-04-28T16:35:00Z</time>
      </trkpt>
      <trkpt lat="5.0539937429" lon="-73.4347419161">
        <ele>2073.00</ele>
        <time>2022-04-28T16:35:04Z</time>
      </trkpt>
      <trkpt lat="5.0540434476" lon="-73.4346884396">
        <ele>2072.14</ele>
        <time>2022-04-28T16:35:05Z</time>
      </trkpt>
      <trkpt lat="5.0540854409" lon="-73.4346295148">
        <ele>2071.24</ele>
        <time>2022-04-28T16:35:06Z</time>
      </trkpt>
      <trkpt lat="5.0541247521" lon="-73.4345743619">
        <ele>2070.29</ele>
        <time>2022-04-28T16:35:07Z</time>
      </trkpt>
      <trkpt lat="5.0541681703" lon="-73.4345309436">
        <ele>2069.30</ele>
        <time>2022-04-28T16:35:08Z</time>
      </trkpt>
      <trkpt lat="5.0542160310" lon="-73.4345041215">
        <ele>2068.35</ele>
        <time>2022-04-28T16:35:09Z</time>
      </trkpt>
      <trkpt lat="5.0542648137" lon="-73.4345070552">
        <ele>2067.42</ele>
        <time>2022-04-28T16:35:10Z</time>
      </trkpt>
      <trkpt lat="5.0543065555" lon="-73.4345328715">
        <ele>2066.45</ele>
        <time>2022-04-28T16:35:11Z</time>
      </trkpt>
      <trkpt lat="5.0543410052" lon="-73.4345717635">
        <ele>2065.48</ele>
        <time>2022-04-28T16:35:12Z</time>
      </trkpt>
      <trkpt lat="5.0543722697" lon="-73.4346177801">
        <ele>2064.51</ele>
        <time>2022-04-28T16:35:13Z</time>
      </trkpt>
      <trkpt lat="5.0544026121" lon="-73.4346653894">
        <ele>2063.56</ele>
        <time>2022-04-28T16:35:14Z</time>
      </trkpt>
      <trkpt lat="5.0545076374" lon="-73.4348112345">
        <ele>2061.02</ele>
        <time>2022-04-28T16:35:17Z</time>
      </trkpt>
      <trkpt lat="5.0545955636" lon="-73.4349051956">
        <ele>2059.58</ele>
        <time>2022-04-28T16:35:19Z</time>
      </trkpt>
      <trkpt lat="5.0546465255" lon="-73.4349465184">
        <ele>2058.90</ele>
        <time>2022-04-28T16:35:20Z</time>
      </trkpt>
      <trkpt lat="5.0547024328" lon="-73.4349846561">
        <ele>2058.19</ele>
        <time>2022-04-28T16:35:21Z</time>
      </trkpt>
      <trkpt lat="5.0547642913" lon="-73.4350133222">
        <ele>2057.41</ele>
        <time>2022-04-28T16:35:22Z</time>
      </trkpt>
      <trkpt lat="5.0548311789" lon="-73.4350350313">
        <ele>2055.97</ele>
        <time>2022-04-28T16:35:23Z</time>
      </trkpt>
      <trkpt lat="5.0551004056" lon="-73.4350983147">
        <ele>2053.56</ele>
        <time>2022-04-28T16:35:27Z</time>
      </trkpt>
      <trkpt lat="5.0551655330" lon="-73.4351026732">
        <ele>2052.92</ele>
        <time>2022-04-28T16:35:28Z</time>
      </trkpt>
      <trkpt lat="5.0552288163" lon="-73.4351139888">
        <ele>2052.31</ele>
        <time>2022-04-28T16:35:29Z</time>
      </trkpt>
      <trkpt lat="5.0552917644" lon="-73.4351253044">
        <ele>2051.69</ele>
        <time>2022-04-28T16:35:30Z</time>
      </trkpt>
      <trkpt lat="5.0553524494" lon="-73.4351294115">
        <ele>2051.06</ele>
        <time>2022-04-28T16:35:31Z</time>
      </trkpt>
      <trkpt lat="5.0554100331" lon="-73.4351312555">
        <ele>2050.42</ele>
        <time>2022-04-28T16:35:32Z</time>
      </trkpt>
      <trkpt lat="5.0555262063" lon="-73.4351379611">
        <ele>2049.07</ele>
        <time>2022-04-28T16:35:34Z</time>
      </trkpt>
      <trkpt lat="5.0555835385" lon="-73.4351531323">
        <ele>2048.39</ele>
        <time>2022-04-28T16:35:35Z</time>
      </trkpt>
      <trkpt lat="5.0556427985" lon="-73.4351788647">
        <ele>2047.75</ele>
        <time>2022-04-28T16:35:36Z</time>
      </trkpt>
      <trkpt lat="5.0558268651" lon="-73.4352833871">
        <ele>2045.95</ele>
        <time>2022-04-28T16:35:39Z</time>
      </trkpt>
      <trkpt lat="5.0559814274" lon="-73.4353974648">
        <ele>2044.33</ele>
        <time>2022-04-28T16:35:42Z</time>
      </trkpt>
      <trkpt lat="5.0560341496" lon="-73.4354152344">
        <ele>2043.72</ele>
        <time>2022-04-28T16:35:43Z</time>
      </trkpt>
      <trkpt lat="5.0560875423" lon="-73.4354134742">
        <ele>2043.10</ele>
        <time>2022-04-28T16:35:44Z</time>
      </trkpt>
      <trkpt lat="5.0561402645" lon="-73.4354023263">
        <ele>2042.52</ele>
        <time>2022-04-28T16:35:45Z</time>
      </trkpt>
      <trkpt lat="5.0561976805" lon="-73.4353852272">
        <ele>2042.01</ele>
        <time>2022-04-28T16:35:46Z</time>
      </trkpt>
      <trkpt lat="5.0563847646" lon="-73.4353405517">
        <ele>2039.91</ele>
        <time>2022-04-28T16:35:49Z</time>
      </trkpt>
      <trkpt lat="5.0564537477" lon="-73.4353227820">
        <ele>2039.34</ele>
        <time>2022-04-28T16:35:50Z</time>
      </trkpt>
      <trkpt lat="5.0565201323" lon="-73.4353045095">
        <ele>2038.81</ele>
        <time>2022-04-28T16:35:51Z</time>
      </trkpt>
      <trkpt lat="5.0567816477" lon="-73.4352283180">
        <ele>2036.74</ele>
        <time>2022-04-28T16:35:55Z</time>
      </trkpt>
      <trkpt lat="5.0568528101" lon="-73.4352185111">
        <ele>2036.14</ele>
        <time>2022-04-28T16:35:56Z</time>
      </trkpt>
      <trkpt lat="5.0573040079" lon="-73.4351728298">
        <ele>2033.17</ele>
        <time>2022-04-28T16:36:02Z</time>
      </trkpt>
      <trkpt lat="5.0574497692" lon="-73.4351364523">
        <ele>2032.11</ele>
        <time>2022-04-28T16:36:04Z</time>
      </trkpt>
      <trkpt lat="5.0578360073" lon="-73.4350748453">
        <ele>2029.72</ele>
        <time>2022-04-28T16:36:09Z</time>
      </trkpt>
      <trkpt lat="5.0579702016" lon="-73.4350243863">
        <ele>2028.87</ele>
        <time>2022-04-28T16:36:11Z</time>
      </trkpt>
      <trkpt lat="5.0580262765" lon="-73.4349852428">
        <ele>2028.45</ele>
        <time>2022-04-28T16:36:12Z</time>
      </trkpt>
      <trkpt lat="5.0580766518" lon="-73.4349372145">
        <ele>2027.40</ele>
        <time>2022-04-28T16:36:13Z</time>
      </trkpt>
      <trkpt lat="5.0583665818" lon="-73.4346219711">
        <ele>2024.20</ele>
        <time>2022-04-28T16:36:19Z</time>
      </trkpt>
      <trkpt lat="5.0586848427" lon="-73.4342338052">
        <ele>2022.01</ele>
        <time>2022-04-28T16:36:26Z</time>
      </trkpt>
      <trkpt lat="5.0589093100" lon="-73.4340691846">
        <ele>2020.72</ele>
        <time>2022-04-28T16:36:30Z</time>
      </trkpt>
      <trkpt lat="5.0598163996" lon="-73.4336221777">
        <ele>2017.27</ele>
        <time>2022-04-28T16:36:43Z</time>
      </trkpt>
      <trkpt lat="5.0598909147" lon="-73.4335922543">
        <ele>2017.09</ele>
        <time>2022-04-28T16:36:44Z</time>
      </trkpt>
      <trkpt lat="5.0606826693" lon="-73.4334100317">
        <ele>2014.32</ele>
        <time>2022-04-28T16:36:54Z</time>
      </trkpt>
      <trkpt lat="5.0613259804" lon="-73.4333258774">
        <ele>2010.87</ele>
        <time>2022-04-28T16:37:03Z</time>
      </trkpt>
      <trkpt lat="5.0617263000" lon="-73.4332645219">
        <ele>2007.80</ele>
        <time>2022-04-28T16:37:09Z</time>
      </trkpt>
      <trkpt lat="5.0617900863" lon="-73.4332501888">
        <ele>2007.25</ele>
        <time>2022-04-28T16:37:10Z</time>
      </trkpt>
      <trkpt lat="5.0620987080" lon="-73.4330967162">
        <ele>2003.30</ele>
        <time>2022-04-28T16:37:15Z</time>
      </trkpt>
      <trkpt lat="5.0621578004" lon="-73.4330521245">
        <ele>2002.41</ele>
        <time>2022-04-28T16:37:16Z</time>
      </trkpt>
      <trkpt lat="5.0622756500" lon="-73.4329745080">
        <ele>2000.76</ele>
        <time>2022-04-28T16:37:18Z</time>
      </trkpt>
      <trkpt lat="5.0625658315" lon="-73.4328352846">
        <ele>1996.83</ele>
        <time>2022-04-28T16:37:23Z</time>
      </trkpt>
      <trkpt lat="5.0626194756" lon="-73.4327954706">
        <ele>1995.92</ele>
        <time>2022-04-28T16:37:24Z</time>
      </trkpt>
      <trkpt lat="5.0626601279" lon="-73.4327415749">
        <ele>1995.03</ele>
        <time>2022-04-28T16:37:25Z</time>
      </trkpt>
      <trkpt lat="5.0626887940" lon="-73.4326738492">
        <ele>1994.14</ele>
        <time>2022-04-28T16:37:26Z</time>
      </trkpt>
      <trkpt lat="5.0627067313" lon="-73.4325984959">
        <ele>1993.25</ele>
        <time>2022-04-28T16:37:27Z</time>
      </trkpt>
      <trkpt lat="5.0627167057" lon="-73.4325189516">
        <ele>1992.36</ele>
        <time>2022-04-28T16:37:28Z</time>
      </trkpt>
      <trkpt lat="5.0627187174" lon="-73.4324389882">
        <ele>1991.51</ele>
        <time>2022-04-28T16:37:29Z</time>
      </trkpt>
      <trkpt lat="5.0627136882" lon="-73.4322818276">
        <ele>1989.27</ele>
        <time>2022-04-28T16:37:31Z</time>
      </trkpt>
      <trkpt lat="5.0626206491" lon="-73.4319943283">
        <ele>1986.43</ele>
        <time>2022-04-28T16:37:35Z</time>
      </trkpt>
      <trkpt lat="5.0624954235" lon="-73.4316458087">
        <ele>1983.16</ele>
        <time>2022-04-28T16:37:40Z</time>
      </trkpt>
      <trkpt lat="5.0624360796" lon="-73.4312965348">
        <ele>1979.77</ele>
        <time>2022-04-28T16:37:45Z</time>
      </trkpt>
      <trkpt lat="5.0625116844" lon="-73.4308987297">
        <ele>1975.69</ele>
        <time>2022-04-28T16:37:51Z</time>
      </trkpt>
      <trkpt lat="5.0627669971" lon="-73.4307955485">
        <ele>1971.64</ele>
        <time>2022-04-28T16:37:56Z</time>
      </trkpt>
      <trkpt lat="5.0629012752" lon="-73.4308392182">
        <ele>1970.46</ele>
        <time>2022-04-28T16:37:58Z</time>
      </trkpt>
      <trkpt lat="5.0631950609" lon="-73.4308453370">
        <ele>1967.43</ele>
        <time>2022-04-28T16:38:02Z</time>
      </trkpt>
      <trkpt lat="5.0635542255" lon="-73.4308232926">
        <ele>1963.35</ele>
        <time>2022-04-28T16:38:07Z</time>
      </trkpt>
      <trkpt lat="5.0638557225" lon="-73.4306580853">
        <ele>1959.27</ele>
        <time>2022-04-28T16:38:12Z</time>
      </trkpt>
      <trkpt lat="5.0641894061" lon="-73.4303497151">
        <ele>1955.19</ele>
        <time>2022-04-28T16:38:18Z</time>
      </trkpt>
      <trkpt lat="5.0643692818" lon="-73.4302079771">
        <ele>1953.06</ele>
        <time>2022-04-28T16:38:21Z</time>
      </trkpt>
      <trkpt lat="5.0647433661" lon="-73.4300296102">
        <ele>1949.41</ele>
        <time>2022-04-28T16:38:26Z</time>
      </trkpt>
      <trkpt lat="5.0650788937" lon="-73.4298965055">
        <ele>1945.64</ele>
        <time>2022-04-28T16:38:30Z</time>
      </trkpt>
      <trkpt lat="5.0652311090" lon="-73.4298519138">
        <ele>1943.41</ele>
        <time>2022-04-28T16:38:32Z</time>
      </trkpt>
      <trkpt lat="5.0653642975" lon="-73.4297817573">
        <ele>1941.16</ele>
        <time>2022-04-28T16:38:34Z</time>
      </trkpt>
      <trkpt lat="5.0654238090" lon="-73.4297222458">
        <ele>1940.10</ele>
        <time>2022-04-28T16:38:35Z</time>
      </trkpt>
      <trkpt lat="5.0654768664" lon="-73.4296487365">
        <ele>1939.10</ele>
        <time>2022-04-28T16:38:36Z</time>
      </trkpt>
      <trkpt lat="5.0655268226" lon="-73.4295691922">
        <ele>1938.21</ele>
        <time>2022-04-28T16:38:37Z</time>
      </trkpt>
      <trkpt lat="5.0655708276" lon="-73.4294862952">
        <ele>1937.41</ele>
        <time>2022-04-28T16:38:38Z</time>
      </trkpt>
      <trkpt lat="5.0656041037" lon="-73.4294050746">
        <ele>1936.63</ele>
        <time>2022-04-28T16:38:39Z</time>
      </trkpt>
      <trkpt lat="5.0656232983" lon="-73.4293241054">
        <ele>1935.82</ele>
        <time>2022-04-28T16:38:40Z</time>
      </trkpt>
      <trkpt lat="5.0656184368" lon="-73.4292431362">
        <ele>1934.92</ele>
        <time>2022-04-28T16:38:41Z</time>
      </trkpt>
      <trkpt lat="5.0655042753" lon="-73.4290583152">
        <ele>1930.54</ele>
        <time>2022-04-28T16:38:44Z</time>
      </trkpt>
      <trkpt lat="5.0653229747" lon="-73.4290228598">
        <ele>1927.31</ele>
        <time>2022-04-28T16:38:47Z</time>
      </trkpt>
      <trkpt lat="5.0651974976" lon="-73.4291169047">
        <ele>1924.11</ele>
        <time>2022-04-28T16:38:50Z</time>
      </trkpt>
      <trkpt lat="5.0651185401" lon="-73.4293048270">
        <ele>1920.22</ele>
        <time>2022-04-28T16:38:54Z</time>
      </trkpt>
      <trkpt lat="5.0650550891" lon="-73.4293621592">
        <ele>1918.68</ele>
        <time>2022-04-28T16:38:56Z</time>
      </trkpt>
      <trkpt lat="5.0648794044" lon="-73.4294414520">
        <ele>1916.18</ele>
        <time>2022-04-28T16:39:00Z</time>
      </trkpt>
      <trkpt lat="5.0646587927" lon="-73.4295084234">
        <ele>1913.93</ele>
        <time>2022-04-28T16:39:05Z</time>
      </trkpt>
      <trkpt lat="5.0644048210" lon="-73.4294143785">
        <ele>1910.33</ele>
        <time>2022-04-28T16:39:10Z</time>
      </trkpt>
      <trkpt lat="5.0643676892" lon="-73.4293712955">
        <ele>1909.76</ele>
        <time>2022-04-28T16:39:11Z</time>
      </trkpt>
      <trkpt lat="5.0643039029" lon="-73.4292900749">
        <ele>1908.62</ele>
        <time>2022-04-28T16:39:13Z</time>
      </trkpt>
      <trkpt lat="5.0641341694" lon="-73.4292009752">
        <ele>1906.51</ele>
        <time>2022-04-28T16:39:17Z</time>
      </trkpt>
      <trkpt lat="5.0639285613" lon="-73.4290401265">
        <ele>1902.93</ele>
        <time>2022-04-28T16:39:23Z</time>
      </trkpt>
      <trkpt lat="5.0639181677" lon="-73.4288423974">
        <ele>1899.76</ele>
        <time>2022-04-28T16:39:27Z</time>
      </trkpt>
      <trkpt lat="5.0639955327" lon="-73.4286906011">
        <ele>1896.62</ele>
        <time>2022-04-28T16:39:31Z</time>
      </trkpt>
      <trkpt lat="5.0641701277" lon="-73.4286012501">
        <ele>1893.41</ele>
        <time>2022-04-28T16:39:36Z</time>
      </trkpt>
      <trkpt lat="5.0643427949" lon="-73.4286113922">
        <ele>1890.12</ele>
        <time>2022-04-28T16:39:40Z</time>
      </trkpt>
      <trkpt lat="5.0645322260" lon="-73.4285452589">
        <ele>1887.23</ele>
        <time>2022-04-28T16:39:44Z</time>
      </trkpt>
      <trkpt lat="5.0648653228" lon="-73.4283967316">
        <ele>1883.14</ele>
        <time>2022-04-28T16:39:51Z</time>
      </trkpt>
      <trkpt lat="5.0651858468" lon="-73.4283611085">
        <ele>1879.45</ele>
        <time>2022-04-28T16:39:57Z</time>
      </trkpt>
      <trkpt lat="5.0652930513" lon="-73.4283673950">
        <ele>1877.96</ele>
        <time>2022-04-28T16:39:59Z</time>
      </trkpt>
      <trkpt lat="5.0656336080" lon="-73.4283232223">
        <ele>1872.61</ele>
        <time>2022-04-28T16:40:05Z</time>
      </trkpt>
      <trkpt lat="5.0657525472" lon="-73.4283075482">
        <ele>1871.14</ele>
        <time>2022-04-28T16:40:07Z</time>
      </trkpt>
      <trkpt lat="5.0660708919" lon="-73.4283046145">
        <ele>1867.58</ele>
        <time>2022-04-28T16:40:12Z</time>
      </trkpt>
      <trkpt lat="5.0662678666" lon="-73.4282770380">
        <ele>1865.60</ele>
        <time>2022-04-28T16:40:15Z</time>
      </trkpt>
      <trkpt lat="5.0666080881" lon="-73.4281196259">
        <ele>1861.09</ele>
        <time>2022-04-28T16:40:21Z</time>
      </trkpt>
      <trkpt lat="5.0667197350" lon="-73.4280568454">
        <ele>1859.32</ele>
        <time>2022-04-28T16:40:23Z</time>
      </trkpt>
      <trkpt lat="5.0669194758" lon="-73.4278749581">
        <ele>1855.05</ele>
        <time>2022-04-28T16:40:27Z</time>
      </trkpt>
      <trkpt lat="5.0671158638" lon="-73.4276678413">
        <ele>1851.62</ele>
        <time>2022-04-28T16:40:31Z</time>
      </trkpt>
      <trkpt lat="5.0672965776" lon="-73.4274464753">
        <ele>1848.46</ele>
        <time>2022-04-28T16:40:35Z</time>
      </trkpt>
      <trkpt lat="5.0673777144" lon="-73.4273386002">
        <ele>1847.03</ele>
        <time>2022-04-28T16:40:37Z</time>
      </trkpt>
      <trkpt lat="5.0676702429" lon="-73.4271375183">
        <ele>1842.59</ele>
        <time>2022-04-28T16:40:42Z</time>
      </trkpt>
      <trkpt lat="5.0680032559" lon="-73.4270272125">
        <ele>1839.72</ele>
        <time>2022-04-28T16:40:46Z</time>
      </trkpt>
      <trkpt lat="5.0682236161" lon="-73.4269061778">
        <ele>1838.10</ele>
        <time>2022-04-28T16:40:49Z</time>
      </trkpt>
      <trkpt lat="5.0684605725" lon="-73.4269199241">
        <ele>1835.54</ele>
        <time>2022-04-28T16:40:55Z</time>
      </trkpt>
      <trkpt lat="5.0684862211" lon="-73.4270019829">
        <ele>1834.86</ele>
        <time>2022-04-28T16:40:57Z</time>
      </trkpt>
      <trkpt lat="5.0686560385" lon="-73.4275002871">
        <ele>1831.68</ele>
        <time>2022-04-28T16:41:05Z</time>
      </trkpt>
      <trkpt lat="5.0686583016" lon="-73.4278014489">
        <ele>1829.61</ele>
        <time>2022-04-28T16:41:12Z</time>
      </trkpt>
      <trkpt lat="5.0684412103" lon="-73.4281215537">
        <ele>1829.11</ele>
        <time>2022-04-28T16:41:23Z</time>
      </trkpt>
      <trkpt lat="5.0681807846" lon="-73.4283115715">
        <ele>1830.84</ele>
        <time>2022-04-28T16:41:37Z</time>
      </trkpt>
      <trkpt lat="5.0680092908" lon="-73.4284865018">
        <ele>1832.93</ele>
        <time>2022-04-28T16:41:50Z</time>
      </trkpt>
      <trkpt lat="5.0679147430" lon="-73.4288146533">
        <ele>1832.31</ele>
        <time>2022-04-28T16:42:01Z</time>
      </trkpt>
      <trkpt lat="5.0679421518" lon="-73.4293616563">
        <ele>1830.42</ele>
        <time>2022-04-28T16:42:13Z</time>
      </trkpt>
      <trkpt lat="5.0679814629" lon="-73.4297390096">
        <ele>1829.29</ele>
        <time>2022-04-28T16:42:25Z</time>
      </trkpt>
      <trkpt lat="5.0682590716" lon="-73.4299163707">
        <ele>1826.53</ele>
        <time>2022-04-28T16:42:34Z</time>
      </trkpt>
      <trkpt lat="5.0684088562" lon="-73.4299100842">
        <ele>1824.56</ele>
        <time>2022-04-28T16:42:38Z</time>
      </trkpt>
      <trkpt lat="5.0686892308" lon="-73.4297002014">
        <ele>1820.62</ele>
        <time>2022-04-28T16:42:45Z</time>
      </trkpt>
      <trkpt lat="5.0689499080" lon="-73.4295160510">
        <ele>1817.33</ele>
        <time>2022-04-28T16:42:50Z</time>
      </trkpt>
      <trkpt lat="5.0692423526" lon="-73.4293068387">
        <ele>1813.59</ele>
        <time>2022-04-28T16:42:55Z</time>
      </trkpt>
      <trkpt lat="5.0694452785" lon="-73.4291579761">
        <ele>1809.42</ele>
        <time>2022-04-28T16:42:59Z</time>
      </trkpt>
      <trkpt lat="5.0694998447" lon="-73.4291279688">
        <ele>1808.75</ele>
        <time>2022-04-28T16:43:00Z</time>
      </trkpt>
      <trkpt lat="5.0697264913" lon="-73.4290446527">
        <ele>1804.83</ele>
        <time>2022-04-28T16:43:05Z</time>
      </trkpt>
      <trkpt lat="5.0697780401" lon="-73.4290329181">
        <ele>1804.09</ele>
        <time>2022-04-28T16:43:06Z</time>
      </trkpt>
      <trkpt lat="5.0698700733" lon="-73.4290212672">
        <ele>1802.69</ele>
        <time>2022-04-28T16:43:08Z</time>
      </trkpt>
      <trkpt lat="5.0701640267" lon="-73.4289290663">
        <ele>1798.78</ele>
        <time>2022-04-28T16:43:14Z</time>
      </trkpt>
      <trkpt lat="5.0704289787" lon="-73.4287938662">
        <ele>1795.85</ele>
        <time>2022-04-28T16:43:19Z</time>
      </trkpt>
      <trkpt lat="5.0706899911" lon="-73.4285831451">
        <ele>1791.99</ele>
        <time>2022-04-28T16:43:25Z</time>
      </trkpt>
      <trkpt lat="5.0709036458" lon="-73.4283967316">
        <ele>1788.98</ele>
        <time>2022-04-28T16:43:30Z</time>
      </trkpt>
      <trkpt lat="5.0711549353" lon="-73.4282165207">
        <ele>1785.67</ele>
        <time>2022-04-28T16:43:36Z</time>
      </trkpt>
      <trkpt lat="5.0712401792" lon="-73.4281648882">
        <ele>1784.56</ele>
        <time>2022-04-28T16:43:38Z</time>
      </trkpt>
      <trkpt lat="5.0713158678" lon="-73.4281081427">
        <ele>1783.44</ele>
        <time>2022-04-28T16:43:40Z</time>
      </trkpt>
      <trkpt lat="5.0716017745" lon="-73.4279343020">
        <ele>1780.18</ele>
        <time>2022-04-28T16:43:46Z</time>
      </trkpt>
      <trkpt lat="5.0718219671" lon="-73.4278400894">
        <ele>1777.09</ele>
        <time>2022-04-28T16:43:50Z</time>
      </trkpt>
      <trkpt lat="5.0720378850" lon="-73.4277597070">
        <ele>1774.28</ele>
        <time>2022-04-28T16:43:54Z</time>
      </trkpt>
      <trkpt lat="5.0722937845" lon="-73.4275668394">
        <ele>1770.15</ele>
        <time>2022-04-28T16:44:00Z</time>
      </trkpt>
      <trkpt lat="5.0724420603" lon="-73.4274416976">
        <ele>1767.41</ele>
        <time>2022-04-28T16:44:04Z</time>
      </trkpt>
      <trkpt lat="5.0724865682" lon="-73.4274194017">
        <ele>1766.74</ele>
        <time>2022-04-28T16:44:05Z</time>
      </trkpt>
      <trkpt lat="5.0725349318" lon="-73.4274015483">
        <ele>1766.09</ele>
        <time>2022-04-28T16:44:06Z</time>
      </trkpt>
      <trkpt lat="5.0726441480" lon="-73.4273726307">
        <ele>1764.73</ele>
        <time>2022-04-28T16:44:08Z</time>
      </trkpt>
      <trkpt lat="5.0729099382" lon="-73.4273262788">
        <ele>1760.12</ele>
        <time>2022-04-28T16:44:13Z</time>
      </trkpt>
      <trkpt lat="5.0731281191" lon="-73.4272717126">
        <ele>1756.86</ele>
        <time>2022-04-28T16:44:17Z</time>
      </trkpt>
      <trkpt lat="5.0733445399" lon="-73.4272032324">
        <ele>1753.51</ele>
        <time>2022-04-28T16:44:21Z</time>
      </trkpt>
      <trkpt lat="5.0733916461" lon="-73.4271913301">
        <ele>1752.70</ele>
        <time>2022-04-28T16:44:22Z</time>
      </trkpt>
      <trkpt lat="5.0734345615" lon="-73.4271888155">
        <ele>1751.97</ele>
        <time>2022-04-28T16:44:23Z</time>
      </trkpt>
      <trkpt lat="5.0734725315" lon="-73.4272001311">
        <ele>1751.28</ele>
        <time>2022-04-28T16:44:24Z</time>
      </trkpt>
      <trkpt lat="5.0735052209" lon="-73.4272201639">
        <ele>1750.55</ele>
        <time>2022-04-28T16:44:25Z</time>
      </trkpt>
      <trkpt lat="5.0735332165" lon="-73.4272466507">
        <ele>1749.81</ele>
        <time>2022-04-28T16:44:26Z</time>
      </trkpt>
      <trkpt lat="5.0735537522" lon="-73.4272795077">
        <ele>1749.06</ele>
        <time>2022-04-28T16:44:27Z</time>
      </trkpt>
      <trkpt lat="5.0735792331" lon="-73.4273670986">
        <ele>1747.71</ele>
        <time>2022-04-28T16:44:29Z</time>
      </trkpt>
      <trkpt lat="5.0736124255" lon="-73.4276058152">
        <ele>1744.82</ele>
        <time>2022-04-28T16:44:34Z</time>
      </trkpt>
      <trkpt lat="5.0736119226" lon="-73.4277037159">
        <ele>1743.80</ele>
        <time>2022-04-28T16:44:36Z</time>
      </trkpt>
      <trkpt lat="5.0735475495" lon="-73.4278935660">
        <ele>1741.44</ele>
        <time>2022-04-28T16:44:40Z</time>
      </trkpt>
      <trkpt lat="5.0735700130" lon="-73.4281477053">
        <ele>1738.55</ele>
        <time>2022-04-28T16:44:45Z</time>
      </trkpt>
      <trkpt lat="5.0736462045" lon="-73.4282940533">
        <ele>1736.96</ele>
        <time>2022-04-28T16:44:48Z</time>
      </trkpt>
      <trkpt lat="5.0736776367" lon="-73.4283942170">
        <ele>1735.86</ele>
        <time>2022-04-28T16:44:50Z</time>
      </trkpt>
      <trkpt lat="5.0737126730" lon="-73.4285526350">
        <ele>1734.03</ele>
        <time>2022-04-28T16:44:53Z</time>
      </trkpt>
      <trkpt lat="5.0738489628" lon="-73.4287315048">
        <ele>1731.28</ele>
        <time>2022-04-28T16:44:57Z</time>
      </trkpt>
      <trkpt lat="5.0741591770" lon="-73.4290175792">
        <ele>1726.70</ele>
        <time>2022-04-28T16:45:04Z</time>
      </trkpt>
      <trkpt lat="5.0745575689" lon="-73.4289851412">
        <ele>1723.60</ele>
        <time>2022-04-28T16:45:12Z</time>
      </trkpt>
      <trkpt lat="5.0747516938" lon="-73.4288071934">
        <ele>1721.67</ele>
        <time>2022-04-28T16:45:16Z</time>
      </trkpt>
      <trkpt lat="5.0750346668" lon="-73.4286156669">
        <ele>1718.80</ele>
        <time>2022-04-28T16:45:21Z</time>
      </trkpt>
      <trkpt lat="5.0753111858" lon="-73.4283980727">
        <ele>1715.80</ele>
        <time>2022-04-28T16:45:26Z</time>
      </trkpt>
      <trkpt lat="5.0754302926" lon="-73.4283140022">
        <ele>1713.91</ele>
        <time>2022-04-28T16:45:28Z</time>
      </trkpt>
      <trkpt lat="5.0757024530" lon="-73.4281920455">
        <ele>1711.05</ele>
        <time>2022-04-28T16:45:32Z</time>
      </trkpt>
      <trkpt lat="5.0760715082" lon="-73.4280740283">
        <ele>1706.84</ele>
        <time>2022-04-28T16:45:37Z</time>
      </trkpt>
      <trkpt lat="5.0763767771" lon="-73.4279234894">
        <ele>1703.57</ele>
        <time>2022-04-28T16:45:41Z</time>
      </trkpt>
      <trkpt lat="5.0765172578" lon="-73.4278330486">
        <ele>1702.20</ele>
        <time>2022-04-28T16:45:43Z</time>
      </trkpt>
      <trkpt lat="5.0768768415" lon="-73.4278106689">
        <ele>1699.58</ele>
        <time>2022-04-28T16:45:49Z</time>
      </trkpt>
      <trkpt lat="5.0769832917" lon="-73.4279078152">
        <ele>1697.58</ele>
        <time>2022-04-28T16:45:54Z</time>
      </trkpt>
      <trkpt lat="5.0770039950" lon="-73.4279910475">
        <ele>1696.96</ele>
        <time>2022-04-28T16:45:58Z</time>
      </trkpt>
      <trkpt lat="5.0771234371" lon="-73.4281756170">
        <ele>1697.71</ele>
        <time>2022-04-28T16:46:11Z</time>
      </trkpt>
      <trkpt lat="5.0771445595" lon="-73.4282312728">
        <ele>1698.04</ele>
        <time>2022-04-28T16:46:14Z</time>
      </trkpt>
      <trkpt lat="5.0772946794" lon="-73.4284022637">
        <ele>1699.68</ele>
        <time>2022-04-28T16:46:27Z</time>
      </trkpt>
      <trkpt lat="5.0775271095" lon="-73.4284908604">
        <ele>1702.28</ele>
        <time>2022-04-28T16:46:44Z</time>
      </trkpt>
      <trkpt lat="5.0776557717" lon="-73.4286069497">
        <ele>1703.25</ele>
        <time>2022-04-28T16:46:55Z</time>
      </trkpt>
      <trkpt lat="5.0778157823" lon="-73.4286823869">
        <ele>1704.79</ele>
        <time>2022-04-28T16:47:08Z</time>
      </trkpt>
      <trkpt lat="5.0778915547" lon="-73.4287144896">
        <ele>1705.92</ele>
        <time>2022-04-28T16:47:15Z</time>
      </trkpt>
      <trkpt lat="5.0779229030" lon="-73.4287471790">
        <ele>1706.45</ele>
        <time>2022-04-28T16:47:19Z</time>
      </trkpt>
      <trkpt lat="5.0780119188" lon="-73.4288489353">
        <ele>1709.11</ele>
        <time>2022-04-28T16:47:33Z</time>
      </trkpt>
      <trkpt lat="5.0779264234" lon="-73.4289599955">
        <ele>1710.94</ele>
        <time>2022-04-28T16:47:46Z</time>
      </trkpt>
      <trkpt lat="5.0779086538" lon="-73.4289781842">
        <ele>1711.16</ele>
        <time>2022-04-28T16:47:48Z</time>
      </trkpt>
      <trkpt lat="5.0778299477" lon="-73.4290933516">
        <ele>1712.57</ele>
        <time>2022-04-28T16:47:59Z</time>
      </trkpt>
      <trkpt lat="5.0777491461" lon="-73.4292083513">
        <ele>1713.45</ele>
        <time>2022-04-28T16:48:09Z</time>
      </trkpt>
      <trkpt lat="5.0777757168" lon="-73.4294008836">
        <ele>1715.02</ele>
        <time>2022-04-28T16:48:23Z</time>
      </trkpt>
      <trkpt lat="5.0777873676" lon="-73.4294121992">
        <ele>1715.06</ele>
        <time>2022-04-28T16:48:24Z</time>
      </trkpt>
      <trkpt lat="5.0778441131" lon="-73.4295049030">
        <ele>1715.71</ele>
        <time>2022-04-28T16:48:31Z</time>
      </trkpt>
      <trkpt lat="5.0779392477" lon="-73.4295650851">
        <ele>1717.06</ele>
        <time>2022-04-28T16:48:40Z</time>
      </trkpt>
      <trkpt lat="5.0780036207" lon="-73.4296200704">
        <ele>1718.45</ele>
        <time>2022-04-28T16:48:47Z</time>
      </trkpt>
      <trkpt lat="5.0779700931" lon="-73.4298369940">
        <ele>1720.93</ele>
        <time>2022-04-28T16:49:03Z</time>
      </trkpt>
      <trkpt lat="5.0779270101" lon="-73.4298670013">
        <ele>1721.26</ele>
        <time>2022-04-28T16:49:07Z</time>
      </trkpt>
      <trkpt lat="5.0776780676" lon="-73.4299706854">
        <ele>1723.61</ele>
        <time>2022-04-28T16:49:25Z</time>
      </trkpt>
      <trkpt lat="5.0774872955" lon="-73.4300411772">
        <ele>1725.55</ele>
        <time>2022-04-28T16:49:38Z</time>
      </trkpt>
      <trkpt lat="5.0772576313" lon="-73.4301021975">
        <ele>1727.76</ele>
        <time>2022-04-28T16:49:52Z</time>
      </trkpt>
      <trkpt lat="5.0770533644" lon="-73.4301897883">
        <ele>1729.47</ele>
        <time>2022-04-28T16:50:05Z</time>
      </trkpt>
      <trkpt lat="5.0768646039" lon="-73.4303099848">
        <ele>1730.66</ele>
        <time>2022-04-28T16:50:18Z</time>
      </trkpt>
      <trkpt lat="5.0767040905" lon="-73.4304710850">
        <ele>1731.01</ele>
        <time>2022-04-28T16:50:29Z</time>
      </trkpt>
      <trkpt lat="5.0765663758" lon="-73.4307136573">
        <ele>1733.26</ele>
        <time>2022-04-28T16:50:41Z</time>
      </trkpt>
      <trkpt lat="5.0764981471" lon="-73.4309040941">
        <ele>1735.32</ele>
        <time>2022-04-28T16:50:52Z</time>
      </trkpt>
      <trkpt lat="5.0764854904" lon="-73.4310013242">
        <ele>1735.93</ele>
        <time>2022-04-28T16:50:58Z</time>
      </trkpt>
      <trkpt lat="5.0765133183" lon="-73.4312915057">
        <ele>1735.79</ele>
        <time>2022-04-28T16:51:09Z</time>
      </trkpt>
      <trkpt lat="5.0765760150" lon="-73.4316644166">
        <ele>1735.17</ele>
        <time>2022-04-28T16:51:21Z</time>
      </trkpt>
      <trkpt lat="5.0764585845" lon="-73.4319649078">
        <ele>1734.89</ele>
        <time>2022-04-28T16:51:30Z</time>
      </trkpt>
      <trkpt lat="5.0763215404" lon="-73.4321964160">
        <ele>1734.19</ele>
        <time>2022-04-28T16:51:35Z</time>
      </trkpt>
      <trkpt lat="5.0761624519" lon="-73.4324213024">
        <ele>1733.93</ele>
        <time>2022-04-28T16:51:45Z</time>
      </trkpt>
      <trkpt lat="5.0761689059" lon="-73.4324562550">
        <ele>1734.39</ele>
        <time>2022-04-28T16:51:47Z</time>
      </trkpt>
      <trkpt lat="5.0762024336" lon="-73.4324964043">
        <ele>1735.41</ele>
        <time>2022-04-28T16:51:51Z</time>
      </trkpt>
      <trkpt lat="5.0763314310" lon="-73.4327541478">
        <ele>1738.44</ele>
        <time>2022-04-28T16:52:07Z</time>
      </trkpt>
      <trkpt lat="5.0763147511" lon="-73.4330154117">
        <ele>1739.24</ele>
        <time>2022-04-28T16:52:18Z</time>
      </trkpt>
      <trkpt lat="5.0763088837" lon="-73.4331684653">
        <ele>1739.11</ele>
        <time>2022-04-28T16:52:23Z</time>
      </trkpt>
      <trkpt lat="5.0763818901" lon="-73.4332843032">
        <ele>1738.95</ele>
        <time>2022-04-28T16:52:26Z</time>
      </trkpt>
      <trkpt lat="5.0765693095" lon="-73.4334614966">
        <ele>1738.23</ele>
        <time>2022-04-28T16:52:31Z</time>
      </trkpt>
      <trkpt lat="5.0768647715" lon="-73.4337304719">
        <ele>1738.15</ele>
        <time>2022-04-28T16:52:44Z</time>
      </trkpt>
      <trkpt lat="5.0770329963" lon="-73.4340010397">
        <ele>1740.76</ele>
        <time>2022-04-28T16:52:57Z</time>
      </trkpt>
      <trkpt lat="5.0770357624" lon="-73.4340183903">
        <ele>1740.98</ele>
        <time>2022-04-28T16:52:58Z</time>
      </trkpt>
      <trkpt lat="5.0771881454" lon="-73.4341409337">
        <ele>1743.43</ele>
        <time>2022-04-28T16:53:12Z</time>
      </trkpt>
      <trkpt lat="5.0771988742" lon="-73.4341427777">
        <ele>1743.57</ele>
        <time>2022-04-28T16:53:13Z</time>
      </trkpt>
      <trkpt lat="5.0772466511" lon="-73.4341566917">
        <ele>1744.26</ele>
        <time>2022-04-28T16:53:17Z</time>
      </trkpt>
      <trkpt lat="5.0773337390" lon="-73.4341685101">
        <ele>1745.51</ele>
        <time>2022-04-28T16:53:23Z</time>
      </trkpt>
      <trkpt lat="5.0773793366" lon="-73.4341708571">
        <ele>1745.90</ele>
        <time>2022-04-28T16:53:26Z</time>
      </trkpt>
      <trkpt lat="5.0776116829" lon="-73.4342733677">
        <ele>1748.58</ele>
        <time>2022-04-28T16:53:43Z</time>
      </trkpt>
      <trkpt lat="5.0776562747" lon="-73.4343166184">
        <ele>1749.10</ele>
        <time>2022-04-28T16:53:47Z</time>
      </trkpt>
      <trkpt lat="5.0777076557" lon="-73.4344001021">
        <ele>1749.55</ele>
        <time>2022-04-28T16:53:54Z</time>
      </trkpt>
      <trkpt lat="5.0777432788" lon="-73.4344517346">
        <ele>1749.91</ele>
        <time>2022-04-28T16:53:58Z</time>
      </trkpt>
      <trkpt lat="5.0778255053" lon="-73.4345168620">
        <ele>1750.58</ele>
        <time>2022-04-28T16:54:05Z</time>
      </trkpt>
      <trkpt lat="5.0779098272" lon="-73.4345977474">
        <ele>1751.62</ele>
        <time>2022-04-28T16:54:12Z</time>
      </trkpt>
      <trkpt lat="5.0779747032" lon="-73.4347677324">
        <ele>1752.97</ele>
        <time>2022-04-28T16:54:22Z</time>
      </trkpt>
      <trkpt lat="5.0779995974" lon="-73.4348269925">
        <ele>1753.19</ele>
        <time>2022-04-28T16:54:26Z</time>
      </trkpt>
      <trkpt lat="5.0780253299" lon="-73.4348950535">
        <ele>1753.60</ele>
        <time>2022-04-28T16:54:30Z</time>
      </trkpt>
      <trkpt lat="5.0780718494" lon="-73.4349599294">
        <ele>1754.09</ele>
        <time>2022-04-28T16:54:34Z</time>
      </trkpt>
      <trkpt lat="5.0781518128" lon="-73.4350027610">
        <ele>1754.90</ele>
        <time>2022-04-28T16:54:41Z</time>
      </trkpt>
      <trkpt lat="5.0782236457" lon="-73.4349698201">
        <ele>1755.51</ele>
        <time>2022-04-28T16:54:46Z</time>
      </trkpt>
      <trkpt lat="5.0783015974" lon="-73.4349432494">
        <ele>1756.12</ele>
        <time>2022-04-28T16:54:51Z</time>
      </trkpt>
      <trkpt lat="5.0784456823" lon="-73.4349170141">
        <ele>1757.89</ele>
        <time>2022-04-28T16:55:00Z</time>
      </trkpt>
      <trkpt lat="5.0786113925" lon="-73.4349628631">
        <ele>1759.27</ele>
        <time>2022-04-28T16:55:11Z</time>
      </trkpt>
      <trkpt lat="5.0786596723" lon="-73.4349711612">
        <ele>1760.51</ele>
        <time>2022-04-28T16:55:42Z</time>
      </trkpt>
      <trkpt lat="5.0788087025" lon="-73.4350517113">
        <ele>1761.70</ele>
        <time>2022-04-28T16:55:57Z</time>
      </trkpt>
      <trkpt lat="5.0789666176" lon="-73.4351428226">
        <ele>1763.49</ele>
        <time>2022-04-28T16:56:12Z</time>
      </trkpt>
      <trkpt lat="5.0790133048" lon="-73.4351731651">
        <ele>1764.09</ele>
        <time>2022-04-28T16:56:17Z</time>
      </trkpt>
      <trkpt lat="5.0790588185" lon="-73.4351880848">
        <ele>1764.51</ele>
        <time>2022-04-28T16:56:21Z</time>
      </trkpt>
      <trkpt lat="5.0791071821" lon="-73.4351771884">
        <ele>1765.08</ele>
        <time>2022-04-28T16:56:25Z</time>
      </trkpt>
      <trkpt lat="5.0792671926" lon="-73.4352503624">
        <ele>1767.14</ele>
        <time>2022-04-28T16:56:40Z</time>
      </trkpt>
      <trkpt lat="5.0792496745" lon="-73.4353728220">
        <ele>1768.33</ele>
        <time>2022-04-28T16:56:49Z</time>
      </trkpt>
      <trkpt lat="5.0792398676" lon="-73.4354051761">
        <ele>1768.62</ele>
        <time>2022-04-28T16:56:51Z</time>
      </trkpt>
      <trkpt lat="5.0791429728" lon="-73.4354601614">
        <ele>1769.31</ele>
        <time>2022-04-28T16:56:59Z</time>
      </trkpt>
      <trkpt lat="5.0789346825" lon="-73.4356430545">
        <ele>1770.28</ele>
        <time>2022-04-28T16:57:15Z</time>
      </trkpt>
      <trkpt lat="5.0787921902" lon="-73.4358207509">
        <ele>1770.93</ele>
        <time>2022-04-28T16:57:27Z</time>
      </trkpt>
      <trkpt lat="5.0785610173" lon="-73.4360224195">
        <ele>1772.29</ele>
        <time>2022-04-28T16:57:44Z</time>
      </trkpt>
      <trkpt lat="5.0784526393" lon="-73.4362270217">
        <ele>1772.97</ele>
        <time>2022-04-28T16:57:57Z</time>
      </trkpt>
      <trkpt lat="5.0784343667" lon="-73.4362659976">
        <ele>1773.49</ele>
        <time>2022-04-28T16:58:13Z</time>
      </trkpt>
      <trkpt lat="5.0783751905" lon="-73.4363496490">
        <ele>1773.83</ele>
        <time>2022-04-28T16:58:40Z</time>
      </trkpt>
      <trkpt lat="5.0783116557" lon="-73.4364981763">
        <ele>1775.68</ele>
        <time>2022-04-28T16:58:58Z</time>
      </trkpt>
      <trkpt lat="5.0781886093" lon="-73.4366358910">
        <ele>1777.66</ele>
        <time>2022-04-28T16:59:18Z</time>
      </trkpt>
      <trkpt lat="5.0781213026" lon="-73.4367027786">
        <ele>1778.56</ele>
        <time>2022-04-28T16:59:28Z</time>
      </trkpt>
      <trkpt lat="5.0779878628" lon="-73.4368014336">
        <ele>1779.62</ele>
        <time>2022-04-28T16:59:46Z</time>
      </trkpt>
      <trkpt lat="5.0778031256" lon="-73.4368902817">
        <ele>1780.92</ele>
        <time>2022-04-28T17:00:08Z</time>
      </trkpt>
      <trkpt lat="5.0777633116" lon="-73.4369287547">
        <ele>1782.12</ele>
        <time>2022-04-28T17:00:27Z</time>
      </trkpt>
      <trkpt lat="5.0776578672" lon="-73.4370505437">
        <ele>1782.24</ele>
        <time>2022-04-28T17:00:41Z</time>
      </trkpt>
      <trkpt lat="5.0776173826" lon="-73.4370740131">
        <ele>1782.10</ele>
        <time>2022-04-28T17:00:45Z</time>
      </trkpt>
      <trkpt lat="5.0773684401" lon="-73.4371830616">
        <ele>1781.05</ele>
        <time>2022-04-28T17:00:58Z</time>
      </trkpt>
      <trkpt lat="5.0772356708" lon="-73.4373293258">
        <ele>1779.57</ele>
        <time>2022-04-28T17:01:09Z</time>
      </trkpt>
      <trkpt lat="5.0772203319" lon="-73.4373647813">
        <ele>1779.47</ele>
        <time>2022-04-28T17:01:30Z</time>
      </trkpt>
      <trkpt lat="5.0772118662" lon="-73.4373794496">
        <ele>1779.70</ele>
        <time>2022-04-28T17:02:00Z</time>
      </trkpt>
      <trkpt lat="5.0772247743" lon="-73.4373646136">
        <ele>1780.23</ele>
        <time>2022-04-28T17:03:15Z</time>
      </trkpt>
      <trkpt lat="5.0772122853" lon="-73.4373590816">
        <ele>1780.26</ele>
        <time>2022-04-28T17:04:15Z</time>
      </trkpt>
      <trkpt lat="5.0772109441" lon="-73.4373607580">
        <ele>1780.30</ele>
        <time>2022-04-28T17:05:27Z</time>
      </trkpt>
      <trkpt lat="5.0772375986" lon="-73.4373471793">
        <ele>1780.13</ele>
        <time>2022-04-28T17:06:31Z</time>
      </trkpt>
      <trkpt lat="5.0772600621" lon="-73.4373662900">
        <ele>1780.52</ele>
        <time>2022-04-28T17:07:23Z</time>
      </trkpt>
      <trkpt lat="5.0773018878" lon="-73.4374192636">
        <ele>1780.51</ele>
        <time>2022-04-28T17:07:27Z</time>
      </trkpt>
      <trkpt lat="5.0774642453" lon="-73.4375758376">
        <ele>1781.23</ele>
        <time>2022-04-28T17:07:39Z</time>
      </trkpt>
      <trkpt lat="5.0777170435" lon="-73.4376877360">
        <ele>1781.22</ele>
        <time>2022-04-28T17:07:47Z</time>
      </trkpt>
      <trkpt lat="5.0778452866" lon="-73.4377612453">
        <ele>1780.69</ele>
        <time>2022-04-28T17:07:50Z</time>
      </trkpt>
      <trkpt lat="5.0779868569" lon="-73.4378131293">
        <ele>1780.13</ele>
        <time>2022-04-28T17:07:53Z</time>
      </trkpt>
      <trkpt lat="5.0783372205" lon="-73.4379019774">
        <ele>1778.72</ele>
        <time>2022-04-28T17:08:04Z</time>
      </trkpt>
      <trkpt lat="5.0786129851" lon="-73.4378935117">
        <ele>1779.65</ele>
        <time>2022-04-28T17:08:17Z</time>
      </trkpt>
      <trkpt lat="5.0789485965" lon="-73.4377171565">
        <ele>1780.37</ele>
        <time>2022-04-28T17:08:31Z</time>
      </trkpt>
      <trkpt lat="5.0792835373" lon="-73.4375685453">
        <ele>1783.28</ele>
        <time>2022-04-28T17:08:46Z</time>
      </trkpt>
      <trkpt lat="5.0796059892" lon="-73.4374242928">
        <ele>1781.32</ele>
        <time>2022-04-28T17:08:56Z</time>
      </trkpt>
      <trkpt lat="5.0797683466" lon="-73.4373915195">
        <ele>1780.56</ele>
        <time>2022-04-28T17:08:59Z</time>
      </trkpt>
      <trkpt lat="5.0800443627" lon="-73.4373248834">
        <ele>1779.15</ele>
        <time>2022-04-28T17:09:04Z</time>
      </trkpt>
      <trkpt lat="5.0804584287" lon="-73.4372686408">
        <ele>1779.89</ele>
        <time>2022-04-28T17:09:18Z</time>
      </trkpt>
      <trkpt lat="5.0805377215" lon="-73.4372704010">
        <ele>1779.82</ele>
        <time>2022-04-28T17:09:20Z</time>
      </trkpt>
      <trkpt lat="5.0811408833" lon="-73.4372545592">
        <ele>1777.27</ele>
        <time>2022-04-28T17:09:32Z</time>
      </trkpt>
      <trkpt lat="5.0812307373" lon="-73.4372473508">
        <ele>1776.73</ele>
        <time>2022-04-28T17:09:34Z</time>
      </trkpt>
      <trkpt lat="5.0814773329" lon="-73.4371524677">
        <ele>1773.29</ele>
        <time>2022-04-28T17:09:41Z</time>
      </trkpt>
      <trkpt lat="5.0816434622" lon="-73.4370619431">
        <ele>1770.07</ele>
        <time>2022-04-28T17:09:46Z</time>
      </trkpt>
      <trkpt lat="5.0816803426" lon="-73.4370423295">
        <ele>1769.33</ele>
        <time>2022-04-28T17:09:47Z</time>
      </trkpt>
      <trkpt lat="5.0818854477" lon="-73.4369167686">
        <ele>1764.76</ele>
        <time>2022-04-28T17:09:52Z</time>
      </trkpt>
      <trkpt lat="5.0820489787" lon="-73.4368306026">
        <ele>1761.48</ele>
        <time>2022-04-28T17:09:55Z</time>
      </trkpt>
      <trkpt lat="5.0821021199" lon="-73.4368022718">
        <ele>1760.35</ele>
        <time>2022-04-28T17:09:56Z</time>
      </trkpt>
      <trkpt lat="5.0822834205" lon="-73.4366736934">
        <ele>1755.87</ele>
        <time>2022-04-28T17:10:00Z</time>
      </trkpt>
      <trkpt lat="5.0823674072" lon="-73.4366166964">
        <ele>1752.34</ele>
        <time>2022-04-28T17:10:02Z</time>
      </trkpt>
      <trkpt lat="5.0825850014" lon="-73.4365205560">
        <ele>1747.17</ele>
        <time>2022-04-28T17:10:06Z</time>
      </trkpt>
      <trkpt lat="5.0826479495" lon="-73.4364918899">
        <ele>1746.01</ele>
        <time>2022-04-28T17:10:07Z</time>
      </trkpt>
      <trkpt lat="5.0829066988" lon="-73.4364153631">
        <ele>1741.76</ele>
        <time>2022-04-28T17:10:11Z</time>
      </trkpt>
      <trkpt lat="5.0830771029" lon="-73.4363484755">
        <ele>1738.70</ele>
        <time>2022-04-28T17:10:14Z</time>
      </trkpt>
      <trkpt lat="5.0831755903" lon="-73.4362984356">
        <ele>1736.88</ele>
        <time>2022-04-28T17:10:16Z</time>
      </trkpt>
      <trkpt lat="5.0833646022" lon="-73.4361185599">
        <ele>1732.07</ele>
        <time>2022-04-28T17:10:21Z</time>
      </trkpt>
      <trkpt lat="5.0834002253" lon="-73.4360811766">
        <ele>1731.17</ele>
        <time>2022-04-28T17:10:22Z</time>
      </trkpt>
      <trkpt lat="5.0835587271" lon="-73.4360240120">
        <ele>1726.36</ele>
        <time>2022-04-28T17:10:26Z</time>
      </trkpt>
      <trkpt lat="5.0837341603" lon="-73.4361040592">
        <ele>1723.32</ele>
        <time>2022-04-28T17:10:30Z</time>
      </trkpt>
      <trkpt lat="5.0838095136" lon="-73.4361747187">
        <ele>1722.37</ele>
        <time>2022-04-28T17:10:32Z</time>
      </trkpt>
      <trkpt lat="5.0843408424" lon="-73.4366295207">
        <ele>1719.08</ele>
        <time>2022-04-28T17:10:43Z</time>
      </trkpt>
      <trkpt lat="5.0843913853" lon="-73.4366638865">
        <ele>1718.74</ele>
        <time>2022-04-28T17:10:44Z</time>
      </trkpt>
      <trkpt lat="5.0847706664" lon="-73.4370438382">
        <ele>1716.64</ele>
        <time>2022-04-28T17:10:53Z</time>
      </trkpt>
      <trkpt lat="5.0851354469" lon="-73.4373526275">
        <ele>1716.19</ele>
        <time>2022-04-28T17:11:05Z</time>
      </trkpt>
      <trkpt lat="5.0853676256" lon="-73.4375853091">
        <ele>1716.91</ele>
        <time>2022-04-28T17:11:16Z</time>
      </trkpt>
      <trkpt lat="5.0853933580" lon="-73.4376014024">
        <ele>1716.89</ele>
        <time>2022-04-28T17:11:17Z</time>
      </trkpt>
      <trkpt lat="5.0855452381" lon="-73.4374264721">
        <ele>1713.84</ele>
        <time>2022-04-28T17:11:28Z</time>
      </trkpt>
      <trkpt lat="5.0855749100" lon="-73.4372444171">
        <ele>1711.81</ele>
        <time>2022-04-28T17:11:33Z</time>
      </trkpt>
      <trkpt lat="5.0855188351" lon="-73.4369862545">
        <ele>1708.16</ele>
        <time>2022-04-28T17:11:39Z</time>
      </trkpt>
      <trkpt lat="5.0854563899" lon="-73.4368285071">
        <ele>1704.40</ele>
        <time>2022-04-28T17:11:43Z</time>
      </trkpt>
      <trkpt lat="5.0853744987" lon="-73.4366417583">
        <ele>1699.99</ele>
        <time>2022-04-28T17:11:48Z</time>
      </trkpt>
      <trkpt lat="5.0853475090" lon="-73.4363920614">
        <ele>1695.58</ele>
        <time>2022-04-28T17:11:53Z</time>
      </trkpt>
      <trkpt lat="5.0853211898" lon="-73.4362343140">
        <ele>1693.18</ele>
        <time>2022-04-28T17:11:56Z</time>
      </trkpt>
      <trkpt lat="5.0852553919" lon="-73.4360545222">
        <ele>1690.37</ele>
        <time>2022-04-28T17:12:00Z</time>
      </trkpt>
      <trkpt lat="5.0852913503" lon="-73.4357903246">
        <ele>1684.80</ele>
        <time>2022-04-28T17:12:06Z</time>
      </trkpt>
      <trkpt lat="5.0854744110" lon="-73.4357088525">
        <ele>1681.28</ele>
        <time>2022-04-28T17:12:11Z</time>
      </trkpt>
      <trkpt lat="5.0856410433" lon="-73.4357459843">
        <ele>1677.77</ele>
        <time>2022-04-28T17:12:16Z</time>
      </trkpt>
      <trkpt lat="5.0856526941" lon="-73.4357757401">
        <ele>1677.13</ele>
        <time>2022-04-28T17:12:17Z</time>
      </trkpt>
      <trkpt lat="5.0858891476" lon="-73.4361957572">
        <ele>1676.91</ele>
        <time>2022-04-28T17:12:31Z</time>
      </trkpt>
      <trkpt lat="5.0861061551" lon="-73.4364111722">
        <ele>1679.20</ele>
        <time>2022-04-28T17:12:42Z</time>
      </trkpt>
      <trkpt lat="5.0864336360" lon="-73.4365912154">
        <ele>1681.55</ele>
        <time>2022-04-28T17:12:57Z</time>
      </trkpt>
      <trkpt lat="5.0866276771" lon="-73.4368370567">
        <ele>1683.61</ele>
        <time>2022-04-28T17:13:12Z</time>
      </trkpt>
      <trkpt lat="5.0867605302" lon="-73.4371341113">
        <ele>1685.27</ele>
        <time>2022-04-28T17:13:25Z</time>
      </trkpt>
      <trkpt lat="5.0865962449" lon="-73.4373978060">
        <ele>1686.68</ele>
        <time>2022-04-28T17:13:38Z</time>
      </trkpt>
      <trkpt lat="5.0862825941" lon="-73.4376448207">
        <ele>1688.37</ele>
        <time>2022-04-28T17:13:53Z</time>
      </trkpt>
      <trkpt lat="5.0859976932" lon="-73.4380433802">
        <ele>1689.90</ele>
        <time>2022-04-28T17:14:10Z</time>
      </trkpt>
      <trkpt lat="5.0858453102" lon="-73.4382774029">
        <ele>1689.69</ele>
        <time>2022-04-28T17:14:17Z</time>
      </trkpt>
      <trkpt lat="5.0857787579" lon="-73.4385132696">
        <ele>1689.22</ele>
        <time>2022-04-28T17:14:22Z</time>
      </trkpt>
      <trkpt lat="5.0857811887" lon="-73.4386618808">
        <ele>1689.03</ele>
        <time>2022-04-28T17:14:25Z</time>
      </trkpt>
      <trkpt lat="5.0858324859" lon="-73.4390205424">
        <ele>1688.26</ele>
        <time>2022-04-28T17:14:34Z</time>
      </trkpt>
      <trkpt lat="5.0857920852" lon="-73.4389592707">
        <ele>1687.69</ele>
        <time>2022-04-28T17:14:42Z</time>
      </trkpt>
      <trkpt lat="5.0858309772" lon="-73.4389351308">
        <ele>1687.63</ele>
        <time>2022-04-28T17:14:53Z</time>
      </trkpt>
      <trkpt lat="5.0858463161" lon="-73.4389617015">
        <ele>1687.98</ele>
        <time>2022-04-28T17:15:31Z</time>
      </trkpt>
      <trkpt lat="5.0858383533" lon="-73.4389634617">
        <ele>1687.91</ele>
        <time>2022-04-28T17:16:00Z</time>
      </trkpt>
      <trkpt lat="5.0858646724" lon="-73.4392223787">
        <ele>1688.26</ele>
        <time>2022-04-28T17:16:11Z</time>
      </trkpt>
      <trkpt lat="5.0859462284" lon="-73.4397356864">
        <ele>1688.96</ele>
        <time>2022-04-28T17:16:26Z</time>
      </trkpt>
      <trkpt lat="5.0861561950" lon="-73.4400143847">
        <ele>1689.17</ele>
        <time>2022-04-28T17:16:35Z</time>
      </trkpt>
      <trkpt lat="5.0863506552" lon="-73.4400420450">
        <ele>1689.39</ele>
        <time>2022-04-28T17:16:40Z</time>
      </trkpt>
      <trkpt lat="5.0867803115" lon="-73.4400244430">
        <ele>1692.29</ele>
        <time>2022-04-28T17:16:53Z</time>
      </trkpt>
      <trkpt lat="5.0870622788" lon="-73.4401423763">
        <ele>1695.12</ele>
        <time>2022-04-28T17:17:07Z</time>
      </trkpt>
      <trkpt lat="5.0870771147" lon="-73.4401531890">
        <ele>1695.29</ele>
        <time>2022-04-28T17:17:08Z</time>
      </trkpt>
      <trkpt lat="5.0873549748" lon="-73.4402622376">
        <ele>1697.57</ele>
        <time>2022-04-28T17:17:24Z</time>
      </trkpt>
      <trkpt lat="5.0875972956" lon="-73.4403836913">
        <ele>1699.31</ele>
        <time>2022-04-28T17:17:36Z</time>
      </trkpt>
      <trkpt lat="5.0878425501" lon="-73.4404896386">
        <ele>1701.21</ele>
        <time>2022-04-28T17:17:49Z</time>
      </trkpt>
      <trkpt lat="5.0879321527" lon="-73.4405377507">
        <ele>1701.70</ele>
        <time>2022-04-28T17:17:54Z</time>
      </trkpt>
      <trkpt lat="5.0879527722" lon="-73.4405361582">
        <ele>1701.76</ele>
        <time>2022-04-28T17:17:55Z</time>
      </trkpt>
      <trkpt lat="5.0879744813" lon="-73.4405374993">
        <ele>1701.81</ele>
        <time>2022-04-28T17:17:56Z</time>
      </trkpt>
      <trkpt lat="5.0879935082" lon="-73.4405463841">
        <ele>1701.87</ele>
        <time>2022-04-28T17:17:57Z</time>
      </trkpt>
      <trkpt lat="5.0880121160" lon="-73.4405566938">
        <ele>1701.94</ele>
        <time>2022-04-28T17:17:58Z</time>
      </trkpt>
      <trkpt lat="5.0880313106" lon="-73.4405644052">
        <ele>1702.03</ele>
        <time>2022-04-28T17:17:59Z</time>
      </trkpt>
      <trkpt lat="5.0880510081" lon="-73.4405713622">
        <ele>1702.16</ele>
        <time>2022-04-28T17:18:00Z</time>
      </trkpt>
      <trkpt lat="5.0883770641" lon="-73.4406934027">
        <ele>1704.30</ele>
        <time>2022-04-28T17:18:17Z</time>
      </trkpt>
      <trkpt lat="5.0886853505" lon="-73.4406856913">
        <ele>1706.24</ele>
        <time>2022-04-28T17:18:31Z</time>
      </trkpt>
      <trkpt lat="5.0889847521" lon="-73.4406290296">
        <ele>1708.83</ele>
        <time>2022-04-28T17:18:44Z</time>
      </trkpt>
      <trkpt lat="5.0892863329" lon="-73.4405761398">
        <ele>1711.10</ele>
        <time>2022-04-28T17:18:57Z</time>
      </trkpt>
      <trkpt lat="5.0895501114" lon="-73.4405754693">
        <ele>1713.27</ele>
        <time>2022-04-28T17:19:10Z</time>
      </trkpt>
      <trkpt lat="5.0896520354" lon="-73.4408118390">
        <ele>1714.92</ele>
        <time>2022-04-28T17:19:25Z</time>
      </trkpt>
      <trkpt lat="5.0894593354" lon="-73.4410492145">
        <ele>1717.05</ele>
        <time>2022-04-28T17:19:40Z</time>
      </trkpt>
      <trkpt lat="5.0892647076" lon="-73.4413888492">
        <ele>1719.31</ele>
        <time>2022-04-28T17:19:58Z</time>
      </trkpt>
      <trkpt lat="5.0892010052" lon="-73.4417165816">
        <ele>1721.12</ele>
        <time>2022-04-28T17:20:13Z</time>
      </trkpt>
      <trkpt lat="5.0893934537" lon="-73.4419352654">
        <ele>1723.08</ele>
        <time>2022-04-28T17:20:26Z</time>
      </trkpt>
      <trkpt lat="5.0897059310" lon="-73.4419747442">
        <ele>1725.48</ele>
        <time>2022-04-28T17:20:40Z</time>
      </trkpt>
      <trkpt lat="5.0900545344" lon="-73.4420231078">
        <ele>1727.49</ele>
        <time>2022-04-28T17:20:56Z</time>
      </trkpt>
      <trkpt lat="5.0904286187" lon="-73.4420889057">
        <ele>1729.93</ele>
        <time>2022-04-28T17:21:13Z</time>
      </trkpt>
      <trkpt lat="5.0906582829" lon="-73.4421474952">
        <ele>1731.25</ele>
        <time>2022-04-28T17:21:25Z</time>
      </trkpt>
      <trkpt lat="5.0906709395" lon="-73.4421590623">
        <ele>1731.36</ele>
        <time>2022-04-28T17:21:26Z</time>
      </trkpt>
      <trkpt lat="5.0906859431" lon="-73.4421672765">
        <ele>1731.48</ele>
        <time>2022-04-28T17:21:27Z</time>
      </trkpt>
      <trkpt lat="5.0909290183" lon="-73.4422738105">
        <ele>1733.79</ele>
        <time>2022-04-28T17:21:41Z</time>
      </trkpt>
      <trkpt lat="5.0910150167" lon="-73.4423650056">
        <ele>1734.89</ele>
        <time>2022-04-28T17:21:48Z</time>
      </trkpt>
      <trkpt lat="5.0910301879" lon="-73.4423768241">
        <ele>1735.05</ele>
        <time>2022-04-28T17:21:49Z</time>
      </trkpt>
      <trkpt lat="5.0910432637" lon="-73.4423889779">
        <ele>1735.22</ele>
        <time>2022-04-28T17:21:50Z</time>
      </trkpt>
      <trkpt lat="5.0910531543" lon="-73.4424050711">
        <ele>1735.41</ele>
        <time>2022-04-28T17:21:51Z</time>
      </trkpt>
      <trkpt lat="5.0910630450" lon="-73.4424212482">
        <ele>1735.59</ele>
        <time>2022-04-28T17:21:52Z</time>
      </trkpt>
      <trkpt lat="5.0910737738" lon="-73.4424384311">
        <ele>1735.75</ele>
        <time>2022-04-28T17:21:53Z</time>
      </trkpt>
      <trkpt lat="5.0910959858" lon="-73.4427079093">
        <ele>1737.84</ele>
        <time>2022-04-28T17:22:07Z</time>
      </trkpt>
      <trkpt lat="5.0908421818" lon="-73.4428839292">
        <ele>1740.29</ele>
        <time>2022-04-28T17:22:21Z</time>
      </trkpt>
      <trkpt lat="5.0906014536" lon="-73.4430271760">
        <ele>1742.10</ele>
        <time>2022-04-28T17:22:32Z</time>
      </trkpt>
      <trkpt lat="5.0905843545" lon="-73.4431107435">
        <ele>1742.84</ele>
        <time>2022-04-28T17:22:36Z</time>
      </trkpt>
      <trkpt lat="5.0906341430" lon="-73.4432030283">
        <ele>1743.96</ele>
        <time>2022-04-28T17:22:41Z</time>
      </trkpt>
      <trkpt lat="5.0906505715" lon="-73.4432112426">
        <ele>1744.23</ele>
        <time>2022-04-28T17:22:42Z</time>
      </trkpt>
      <trkpt lat="5.0909100752" lon="-73.4432157688">
        <ele>1747.44</ele>
        <time>2022-04-28T17:22:55Z</time>
      </trkpt>
      <trkpt lat="5.0910292659" lon="-73.4431841690">
        <ele>1748.44</ele>
        <time>2022-04-28T17:23:01Z</time>
      </trkpt>
      <trkpt lat="5.0910408329" lon="-73.4431893658">
        <ele>1748.56</ele>
        <time>2022-04-28T17:23:02Z</time>
      </trkpt>
      <trkpt lat="5.0910513103" lon="-73.4431973286">
        <ele>1748.66</ele>
        <time>2022-04-28T17:23:03Z</time>
      </trkpt>
      <trkpt lat="5.0910660625" lon="-73.4431967419">
        <ele>1748.76</ele>
        <time>2022-04-28T17:23:04Z</time>
      </trkpt>
      <trkpt lat="5.0910780486" lon="-73.4431865998">
        <ele>1748.88</ele>
        <time>2022-04-28T17:23:05Z</time>
      </trkpt>
      <trkpt lat="5.0910840835" lon="-73.4431750327">
        <ele>1749.02</ele>
        <time>2022-04-28T17:23:06Z</time>
      </trkpt>
      <trkpt lat="5.0910948124" lon="-73.4431658965">
        <ele>1749.15</ele>
        <time>2022-04-28T17:23:07Z</time>
      </trkpt>
      <trkpt lat="5.0914051943" lon="-73.4431267530">
        <ele>1751.19</ele>
        <time>2022-04-28T17:23:23Z</time>
      </trkpt>
      <trkpt lat="5.0914250594" lon="-73.4431280103">
        <ele>1751.31</ele>
        <time>2022-04-28T17:23:24Z</time>
      </trkpt>
      <trkpt lat="5.0917762611" lon="-73.4430908784">
        <ele>1753.28</ele>
        <time>2022-04-28T17:23:40Z</time>
      </trkpt>
      <trkpt lat="5.0918573141" lon="-73.4430814069">
        <ele>1753.96</ele>
        <time>2022-04-28T17:23:45Z</time>
      </trkpt>
      <trkpt lat="5.0920075178" lon="-73.4430611227">
        <ele>1755.04</ele>
        <time>2022-04-28T17:23:53Z</time>
      </trkpt>
      <trkpt lat="5.0920802727" lon="-73.4430742823">
        <ele>1755.51</ele>
        <time>2022-04-28T17:23:56Z</time>
      </trkpt>
      <trkpt lat="5.0923823565" lon="-73.4432790522">
        <ele>1758.22</ele>
        <time>2022-04-28T17:24:11Z</time>
      </trkpt>
      <trkpt lat="5.0925836898" lon="-73.4434103128">
        <ele>1759.95</ele>
        <time>2022-04-28T17:24:26Z</time>
      </trkpt>
      <trkpt lat="5.0928544253" lon="-73.4434245620">
        <ele>1762.11</ele>
        <time>2022-04-28T17:24:42Z</time>
      </trkpt>
      <trkpt lat="5.0929005258" lon="-73.4434174374">
        <ele>1762.45</ele>
        <time>2022-04-28T17:24:45Z</time>
      </trkpt>
      <trkpt lat="5.0931391586" lon="-73.4433705825">
        <ele>1764.26</ele>
        <time>2022-04-28T17:24:59Z</time>
      </trkpt>
      <trkpt lat="5.0933836587" lon="-73.4433828201">
        <ele>1765.04</ele>
        <time>2022-04-28T17:25:11Z</time>
      </trkpt>
      <trkpt lat="5.0934020150" lon="-73.4433845803">
        <ele>1765.15</ele>
        <time>2022-04-28T17:25:12Z</time>
      </trkpt>
      <trkpt lat="5.0937770214" lon="-73.4435413219">
        <ele>1767.42</ele>
        <time>2022-04-28T17:25:29Z</time>
      </trkpt>
      <trkpt lat="5.0941392034" lon="-73.4437014163">
        <ele>1770.12</ele>
        <time>2022-04-28T17:25:45Z</time>
      </trkpt>
      <trkpt lat="5.0944664329" lon="-73.4439132269">
        <ele>1773.16</ele>
        <time>2022-04-28T17:26:03Z</time>
      </trkpt>
      <trkpt lat="5.0945544429" lon="-73.4441333357">
        <ele>1774.72</ele>
        <time>2022-04-28T17:26:15Z</time>
      </trkpt>
      <trkpt lat="5.0946766511" lon="-73.4443901572">
        <ele>1776.97</ele>
        <time>2022-04-28T17:26:29Z</time>
      </trkpt>
      <trkpt lat="5.0947152078" lon="-73.4444767423">
        <ele>1777.94</ele>
        <time>2022-04-28T17:26:34Z</time>
      </trkpt>
      <trkpt lat="5.0947319716" lon="-73.4444842860">
        <ele>1778.07</ele>
        <time>2022-04-28T17:26:35Z</time>
      </trkpt>
      <trkpt lat="5.0949980970" lon="-73.4444025625">
        <ele>1779.16</ele>
        <time>2022-04-28T17:26:49Z</time>
      </trkpt>
      <trkpt lat="5.0952440221" lon="-73.4443277121">
        <ele>1780.72</ele>
        <time>2022-04-28T17:27:01Z</time>
      </trkpt>
      <trkpt lat="5.0952802319" lon="-73.4443156421">
        <ele>1781.12</ele>
        <time>2022-04-28T17:27:03Z</time>
      </trkpt>
      <trkpt lat="5.0954117440" lon="-73.4443793446">
        <ele>1782.71</ele>
        <time>2022-04-28T17:27:13Z</time>
      </trkpt>
      <trkpt lat="5.0954712555" lon="-73.4446652513">
        <ele>1784.11</ele>
        <time>2022-04-28T17:27:28Z</time>
      </trkpt>
      <trkpt lat="5.0955376402" lon="-73.4449354839">
        <ele>1785.31</ele>
        <time>2022-04-28T17:27:41Z</time>
      </trkpt>
      <trkpt lat="5.0955543201" lon="-73.4449453745">
        <ele>1785.38</ele>
        <time>2022-04-28T17:27:42Z</time>
      </trkpt>
      <trkpt lat="5.0955741014" lon="-73.4449509904">
        <ele>1785.45</ele>
        <time>2022-04-28T17:27:43Z</time>
      </trkpt>
      <trkpt lat="5.0955966488" lon="-73.4449514933">
        <ele>1785.51</ele>
        <time>2022-04-28T17:27:44Z</time>
      </trkpt>
      <trkpt lat="5.0956179388" lon="-73.4449490625">
        <ele>1785.61</ele>
        <time>2022-04-28T17:27:45Z</time>
      </trkpt>
      <trkpt lat="5.0956397317" lon="-73.4449457098">
        <ele>1785.67</ele>
        <time>2022-04-28T17:27:46Z</time>
      </trkpt>
      <trkpt lat="5.0956637040" lon="-73.4449410997">
        <ele>1785.73</ele>
        <time>2022-04-28T17:27:47Z</time>
      </trkpt>
      <trkpt lat="5.0956891011" lon="-73.4449360706">
        <ele>1785.79</ele>
        <time>2022-04-28T17:27:48Z</time>
      </trkpt>
      <trkpt lat="5.0957151689" lon="-73.4449338075">
        <ele>1785.81</ele>
        <time>2022-04-28T17:27:49Z</time>
      </trkpt>
      <trkpt lat="5.0957412366" lon="-73.4449325502">
        <ele>1785.85</ele>
        <time>2022-04-28T17:27:50Z</time>
      </trkpt>
      <trkpt lat="5.0957642030" lon="-73.4449327178">
        <ele>1785.90</ele>
        <time>2022-04-28T17:27:51Z</time>
      </trkpt>
      <trkpt lat="5.0957861636" lon="-73.4449281078">
        <ele>1785.94</ele>
        <time>2022-04-28T17:27:52Z</time>
      </trkpt>
      <trkpt lat="5.0958088785" lon="-73.4449222405">
        <ele>1785.94</ele>
        <time>2022-04-28T17:27:53Z</time>
      </trkpt>
      <trkpt lat="5.0958314259" lon="-73.4449170437">
        <ele>1785.92</ele>
        <time>2022-04-28T17:27:54Z</time>
      </trkpt>
      <trkpt lat="5.0958645344" lon="-73.4448981844">
        <ele>1785.88</ele>
        <time>2022-04-28T17:27:56Z</time>
      </trkpt>
      <trkpt lat="5.0958750956" lon="-73.4448846057">
        <ele>1785.86</ele>
        <time>2022-04-28T17:27:57Z</time>
      </trkpt>
      <trkpt lat="5.0958827231" lon="-73.4448731225">
        <ele>1785.85</ele>
        <time>2022-04-28T17:27:58Z</time>
      </trkpt>
      <trkpt lat="5.0958863273" lon="-73.4448248427">
        <ele>1785.87</ele>
        <time>2022-04-28T17:28:01Z</time>
      </trkpt>
      <trkpt lat="5.0958670489" lon="-73.4447444603">
        <ele>1785.84</ele>
        <time>2022-04-28T17:28:05Z</time>
      </trkpt>
      <trkpt lat="5.0958976429" lon="-73.4445784986">
        <ele>1785.01</ele>
        <time>2022-04-28T17:28:18Z</time>
      </trkpt>
      <trkpt lat="5.0959215313" lon="-73.4445638303">
        <ele>1785.10</ele>
        <time>2022-04-28T17:29:00Z</time>
      </trkpt>
      <trkpt lat="5.0959344395" lon="-73.4445924126">
        <ele>1784.76</ele>
        <time>2022-04-28T17:29:52Z</time>
      </trkpt>
      <trkpt lat="5.0959277339" lon="-73.4445773251">
        <ele>1785.12</ele>
        <time>2022-04-28T17:30:51Z</time>
      </trkpt>
      <trkpt lat="5.0959422346" lon="-73.4445712063">
        <ele>1784.90</ele>
        <time>2022-04-28T17:32:00Z</time>
      </trkpt>
      <trkpt lat="5.0959399715" lon="-73.4445588011">
        <ele>1784.90</ele>
        <time>2022-04-28T17:33:02Z</time>
      </trkpt>
      <trkpt lat="5.0959148258" lon="-73.4445418697">
        <ele>1784.97</ele>
        <time>2022-04-28T17:34:04Z</time>
      </trkpt>
      <trkpt lat="5.0959279016" lon="-73.4445406124">
        <ele>1785.62</ele>
        <time>2022-04-28T17:34:53Z</time>
      </trkpt>
      <trkpt lat="5.0959473476" lon="-73.4445826896">
        <ele>1785.15</ele>
        <time>2022-04-28T17:35:44Z</time>
      </trkpt>
      <trkpt lat="5.0959460065" lon="-73.4445927478">
        <ele>1785.36</ele>
        <time>2022-04-28T17:36:38Z</time>
      </trkpt>
      <trkpt lat="5.0959460903" lon="-73.4445830248">
        <ele>1785.71</ele>
        <time>2022-04-28T17:37:24Z</time>
      </trkpt>
      <trkpt lat="5.0959460065" lon="-73.4446094278">
        <ele>1786.01</ele>
        <time>2022-04-28T17:38:14Z</time>
      </trkpt>
      <trkpt lat="5.0959349424" lon="-73.4445992857">
        <ele>1786.17</ele>
        <time>2022-04-28T17:39:06Z</time>
      </trkpt>
      <trkpt lat="5.0959066115" lon="-73.4445685241">
        <ele>1786.02</ele>
        <time>2022-04-28T17:40:00Z</time>
      </trkpt>
      <trkpt lat="5.0959344395" lon="-73.4445847012">
        <ele>1786.30</ele>
        <time>2022-04-28T17:40:17Z</time>
      </trkpt>
      <trkpt lat="5.0959574059" lon="-73.4445996210">
        <ele>1786.39</ele>
        <time>2022-04-28T17:40:19Z</time>
      </trkpt>
      <trkpt lat="5.0959970523" lon="-73.4447245114">
        <ele>1786.72</ele>
        <time>2022-04-28T17:40:27Z</time>
      </trkpt>
      <trkpt lat="5.0958890934" lon="-73.4449435305">
        <ele>1787.20</ele>
        <time>2022-04-28T17:40:40Z</time>
      </trkpt>
      <trkpt lat="5.0957951322" lon="-73.4450244159">
        <ele>1787.77</ele>
        <time>2022-04-28T17:40:52Z</time>
      </trkpt>
      <trkpt lat="5.0957806315" lon="-73.4450177941">
        <ele>1788.24</ele>
        <time>2022-04-28T17:41:14Z</time>
      </trkpt>
      <trkpt lat="5.0957611017" lon="-73.4449719451">
        <ele>1788.30</ele>
        <time>2022-04-28T17:42:51Z</time>
      </trkpt>
      <trkpt lat="5.0957554020" lon="-73.4449236654">
        <ele>1788.27</ele>
        <time>2022-04-28T17:43:47Z</time>
      </trkpt>
      <trkpt lat="5.0957545638" lon="-73.4449128527">
        <ele>1788.49</ele>
        <time>2022-04-28T17:45:02Z</time>
      </trkpt>
      <trkpt lat="5.0957412366" lon="-73.4449322149">
        <ele>1788.80</ele>
        <time>2022-04-28T17:45:54Z</time>
      </trkpt>
      <trkpt lat="5.0957199465" lon="-73.4449486434">
        <ele>1788.55</ele>
        <time>2022-04-28T17:46:19Z</time>
      </trkpt>
      <trkpt lat="5.0957060326" lon="-73.4449454583">
        <ele>1788.56</ele>
        <time>2022-04-28T17:46:20Z</time>
      </trkpt>
      <trkpt lat="5.0956892688" lon="-73.4449465480">
        <ele>1788.58</ele>
        <time>2022-04-28T17:46:21Z</time>
      </trkpt>
      <trkpt lat="5.0955861714" lon="-73.4449865296">
        <ele>1788.74</ele>
        <time>2022-04-28T17:46:27Z</time>
      </trkpt>
      <trkpt lat="5.0955280848" lon="-73.4449833445">
        <ele>1788.76</ele>
        <time>2022-04-28T17:46:31Z</time>
      </trkpt>
      <trkpt lat="5.0954264123" lon="-73.4447789099">
        <ele>1788.74</ele>
        <time>2022-04-28T17:46:42Z</time>
      </trkpt>
      <trkpt lat="5.0953803957" lon="-73.4444798436">
        <ele>1787.96</ele>
        <time>2022-04-28T17:46:51Z</time>
      </trkpt>
      <trkpt lat="5.0953309424" lon="-73.4443990421">
        <ele>1787.79</ele>
        <time>2022-04-28T17:46:54Z</time>
      </trkpt>
      <trkpt lat="5.0952966604" lon="-73.4443899896">
        <ele>1787.63</ele>
        <time>2022-04-28T17:46:55Z</time>
      </trkpt>
      <trkpt lat="5.0952500571" lon="-73.4443966113">
        <ele>1787.38</ele>
        <time>2022-04-28T17:46:56Z</time>
      </trkpt>
      <trkpt lat="5.0951540004" lon="-73.4444209188">
        <ele>1786.87</ele>
        <time>2022-04-28T17:46:58Z</time>
      </trkpt>
      <trkpt lat="5.0949050579" lon="-73.4444661811">
        <ele>1785.35</ele>
        <time>2022-04-28T17:47:02Z</time>
      </trkpt>
      <trkpt lat="5.0947256014" lon="-73.4444448072">
        <ele>1784.46</ele>
        <time>2022-04-28T17:47:05Z</time>
      </trkpt>
      <trkpt lat="5.0946797524" lon="-73.4444127884">
        <ele>1784.20</ele>
        <time>2022-04-28T17:47:06Z</time>
      </trkpt>
      <trkpt lat="5.0946456380" lon="-73.4443756565">
        <ele>1783.98</ele>
        <time>2022-04-28T17:47:07Z</time>
      </trkpt>
      <trkpt lat="5.0946210790" lon="-73.4443384409">
        <ele>1783.76</ele>
        <time>2022-04-28T17:47:08Z</time>
      </trkpt>
      <trkpt lat="5.0946047343" lon="-73.4443020634">
        <ele>1783.54</ele>
        <time>2022-04-28T17:47:09Z</time>
      </trkpt>
      <trkpt lat="5.0945923291" lon="-73.4442658536">
        <ele>1783.31</ele>
        <time>2022-04-28T17:47:10Z</time>
      </trkpt>
      <trkpt lat="5.0945195742" lon="-73.4441461600">
        <ele>1780.20</ele>
        <time>2022-04-28T17:47:18Z</time>
      </trkpt>
      <trkpt lat="5.0945226755" lon="-73.4441366885">
        <ele>1778.90</ele>
        <time>2022-04-28T17:47:29Z</time>
      </trkpt>
      <trkpt lat="5.0945177302" lon="-73.4441219363">
        <ele>1778.87</ele>
        <time>2022-04-28T17:47:30Z</time>
      </trkpt>
      <trkpt lat="5.0945127010" lon="-73.4441018198">
        <ele>1778.85</ele>
        <time>2022-04-28T17:47:31Z</time>
      </trkpt>
      <trkpt lat="5.0945078395" lon="-73.4440783504">
        <ele>1778.85</ele>
        <time>2022-04-28T17:47:32Z</time>
      </trkpt>
      <trkpt lat="5.0944985356" lon="-73.4440547973">
        <ele>1778.85</ele>
        <time>2022-04-28T17:47:33Z</time>
      </trkpt>
      <trkpt lat="5.0944848731" lon="-73.4440315794">
        <ele>1778.84</ele>
        <time>2022-04-28T17:47:34Z</time>
      </trkpt>
      <trkpt lat="5.0944673549" lon="-73.4440070204">
        <ele>1778.83</ele>
        <time>2022-04-28T17:47:35Z</time>
      </trkpt>
      <trkpt lat="5.0943381898" lon="-73.4438678809">
        <ele>1778.30</ele>
        <time>2022-04-28T17:47:40Z</time>
      </trkpt>
      <trkpt lat="5.0937255565" lon="-73.4435759392">
        <ele>1775.97</ele>
        <time>2022-04-28T17:47:51Z</time>
      </trkpt>
      <trkpt lat="5.0934193656" lon="-73.4434471931">
        <ele>1774.87</ele>
        <time>2022-04-28T17:47:55Z</time>
      </trkpt>
      <trkpt lat="5.0931551680" lon="-73.4434450138">
        <ele>1773.96</ele>
        <time>2022-04-28T17:47:58Z</time>
      </trkpt>
      <trkpt lat="5.0928873662" lon="-73.4434924554">
        <ele>1772.63</ele>
        <time>2022-04-28T17:48:01Z</time>
      </trkpt>
      <trkpt lat="5.0923422072" lon="-73.4433651343">
        <ele>1769.22</ele>
        <time>2022-04-28T17:48:07Z</time>
      </trkpt>
      <trkpt lat="5.0921944343" lon="-73.4432213847">
        <ele>1768.62</ele>
        <time>2022-04-28T17:48:09Z</time>
      </trkpt>
      <trkpt lat="5.0917501096" lon="-73.4431518149">
        <ele>1765.57</ele>
        <time>2022-04-28T17:48:14Z</time>
      </trkpt>
      <trkpt lat="5.0910590217" lon="-73.4432971571">
        <ele>1761.77</ele>
        <time>2022-04-28T17:48:21Z</time>
      </trkpt>
      <trkpt lat="5.0907609612" lon="-73.4433209617">
        <ele>1759.77</ele>
        <time>2022-04-28T17:48:24Z</time>
      </trkpt>
      <trkpt lat="5.0906671677" lon="-73.4433022700">
        <ele>1759.09</ele>
        <time>2022-04-28T17:48:25Z</time>
      </trkpt>
      <trkpt lat="5.0905825105" lon="-73.4432612825">
        <ele>1758.41</ele>
        <time>2022-04-28T17:48:26Z</time>
      </trkpt>
      <trkpt lat="5.0905322190" lon="-73.4431749489">
        <ele>1757.77</ele>
        <time>2022-04-28T17:48:27Z</time>
      </trkpt>
      <trkpt lat="5.0905195624" lon="-73.4430771321">
        <ele>1757.10</ele>
        <time>2022-04-28T17:48:28Z</time>
      </trkpt>
      <trkpt lat="5.0906985998" lon="-73.4428822529">
        <ele>1753.83</ele>
        <time>2022-04-28T17:48:31Z</time>
      </trkpt>
      <trkpt lat="5.0907905493" lon="-73.4428499825">
        <ele>1752.95</ele>
        <time>2022-04-28T17:48:32Z</time>
      </trkpt>
      <trkpt lat="5.0910151843" lon="-73.4424193203">
        <ele>1748.12</ele>
        <time>2022-04-28T17:48:38Z</time>
      </trkpt>
      <trkpt lat="5.0905664172" lon="-73.4421552066">
        <ele>1745.02</ele>
        <time>2022-04-28T17:48:43Z</time>
      </trkpt>
      <trkpt lat="5.0899027381" lon="-73.4420516901">
        <ele>1741.20</ele>
        <time>2022-04-28T17:48:49Z</time>
      </trkpt>
      <trkpt lat="5.0893756840" lon="-73.4419839643">
        <ele>1738.09</ele>
        <time>2022-04-28T17:48:54Z</time>
      </trkpt>
      <trkpt lat="5.0892846566" lon="-73.4419550467">
        <ele>1736.46</ele>
        <time>2022-04-28T17:48:55Z</time>
      </trkpt>
      <trkpt lat="5.0892081298" lon="-73.4418983012">
        <ele>1736.46</ele>
        <time>2022-04-28T17:48:56Z</time>
      </trkpt>
      <trkpt lat="5.0891479477" lon="-73.4418229479">
        <ele>1734.72</ele>
        <time>2022-04-28T17:48:57Z</time>
      </trkpt>
      <trkpt lat="5.0891196169" lon="-73.4417314176">
        <ele>1734.03</ele>
        <time>2022-04-28T17:48:58Z</time>
      </trkpt>
      <trkpt lat="5.0891228858" lon="-73.4416325111">
        <ele>1733.36</ele>
        <time>2022-04-28T17:48:59Z</time>
      </trkpt>
      <trkpt lat="5.0891419128" lon="-73.4415325150">
        <ele>1732.67</ele>
        <time>2022-04-28T17:49:00Z</time>
      </trkpt>
      <trkpt lat="5.0892595109" lon="-73.4412474465">
        <ele>1730.84</ele>
        <time>2022-04-28T17:49:03Z</time>
      </trkpt>
      <trkpt lat="5.0895009097" lon="-73.4409179538">
        <ele>1728.41</ele>
        <time>2022-04-28T17:49:07Z</time>
      </trkpt>
      <trkpt lat="5.0894824695" lon="-73.4405556042">
        <ele>1725.01</ele>
        <time>2022-04-28T17:49:12Z</time>
      </trkpt>
      <trkpt lat="5.0892309286" lon="-73.4405742120">
        <ele>1722.68</ele>
        <time>2022-04-28T17:49:15Z</time>
      </trkpt>
      <trkpt lat="5.0887637213" lon="-73.4406763874">
        <ele>1719.04</ele>
        <time>2022-04-28T17:49:20Z</time>
      </trkpt>
      <trkpt lat="5.0885550119" lon="-73.4407078195">
        <ele>1718.09</ele>
        <time>2022-04-28T17:49:22Z</time>
      </trkpt>
      <trkpt lat="5.0882352423" lon="-73.4406945761">
        <ele>1716.91</ele>
        <time>2022-04-28T17:49:25Z</time>
      </trkpt>
      <trkpt lat="5.0881338213" lon="-73.4406612162">
        <ele>1716.39</ele>
        <time>2022-04-28T17:49:26Z</time>
      </trkpt>
      <trkpt lat="5.0880315620" lon="-73.4406216536">
        <ele>1715.84</ele>
        <time>2022-04-28T17:49:27Z</time>
      </trkpt>
      <trkpt lat="5.0874203537" lon="-73.4403722081">
        <ele>1712.47</ele>
        <time>2022-04-28T17:49:33Z</time>
      </trkpt>
      <trkpt lat="5.0869533978" lon="-73.4401540272">
        <ele>1709.03</ele>
        <time>2022-04-28T17:49:38Z</time>
      </trkpt>
      <trkpt lat="5.0867587700" lon="-73.4400823619">
        <ele>1707.55</ele>
        <time>2022-04-28T17:49:40Z</time>
      </trkpt>
      <trkpt lat="5.0863479730" lon="-73.4400930908">
        <ele>1704.29</ele>
        <time>2022-04-28T17:49:44Z</time>
      </trkpt>
      <trkpt lat="5.0859148800" lon="-73.4399622492">
        <ele>1699.79</ele>
        <time>2022-04-28T17:49:49Z</time>
      </trkpt>
      <trkpt lat="5.0858189072" lon="-73.4396998957">
        <ele>1698.14</ele>
        <time>2022-04-28T17:49:52Z</time>
      </trkpt>
      <trkpt lat="5.0857220124" lon="-73.4386708494">
        <ele>1695.82</ele>
        <time>2022-04-28T17:50:05Z</time>
      </trkpt>
      <trkpt lat="5.0857163966" lon="-73.4385509882">
        <ele>1695.62</ele>
        <time>2022-04-28T17:50:07Z</time>
      </trkpt>
      <trkpt lat="5.0857562944" lon="-73.4383411892">
        <ele>1695.64</ele>
        <time>2022-04-28T17:50:11Z</time>
      </trkpt>
      <trkpt lat="5.0858241878" lon="-73.4382168856">
        <ele>1695.70</ele>
        <time>2022-04-28T17:50:14Z</time>
      </trkpt>
      <trkpt lat="5.0860832725" lon="-73.4378419630">
        <ele>1696.68</ele>
        <time>2022-04-28T17:50:26Z</time>
      </trkpt>
      <trkpt lat="5.0863864459" lon="-73.4375414718">
        <ele>1696.19</ele>
        <time>2022-04-28T17:50:38Z</time>
      </trkpt>
      <trkpt lat="5.0865460373" lon="-73.4374272265">
        <ele>1695.62</ele>
        <time>2022-04-28T17:50:43Z</time>
      </trkpt>
      <trkpt lat="5.0867163576" lon="-73.4370186087">
        <ele>1694.08</ele>
        <time>2022-04-28T17:50:53Z</time>
      </trkpt>
      <trkpt lat="5.0865264237" lon="-73.4367294330">
        <ele>1692.82</ele>
        <time>2022-04-28T17:50:59Z</time>
      </trkpt>
      <trkpt lat="5.0863251742" lon="-73.4365888685">
        <ele>1691.73</ele>
        <time>2022-04-28T17:51:03Z</time>
      </trkpt>
      <trkpt lat="5.0861323066" lon="-73.4365016967">
        <ele>1690.85</ele>
        <time>2022-04-28T17:51:06Z</time>
      </trkpt>
      <trkpt lat="5.0857073441" lon="-73.4358967748">
        <ele>1687.66</ele>
        <time>2022-04-28T17:51:15Z</time>
      </trkpt>
      <trkpt lat="5.0857733097" lon="-73.4353149869">
        <ele>1684.81</ele>
        <time>2022-04-28T17:51:21Z</time>
      </trkpt>
      <trkpt lat="5.0860959291" lon="-73.4347018506">
        <ele>1681.19</ele>
        <time>2022-04-28T17:51:27Z</time>
      </trkpt>
      <trkpt lat="5.0863440335" lon="-73.4341692645">
        <ele>1678.79</ele>
        <time>2022-04-28T17:51:32Z</time>
      </trkpt>
      <trkpt lat="5.0863289461" lon="-73.4336829465">
        <ele>1674.58</ele>
        <time>2022-04-28T17:51:37Z</time>
      </trkpt>
      <trkpt lat="5.0860561151" lon="-73.4336150531">
        <ele>1671.50</ele>
        <time>2022-04-28T17:51:40Z</time>
      </trkpt>
      <trkpt lat="5.0859476533" lon="-73.4336230997">
        <ele>1670.52</ele>
        <time>2022-04-28T17:51:41Z</time>
      </trkpt>
      <trkpt lat="5.0856199209" lon="-73.4336629976">
        <ele>1667.97</ele>
        <time>2022-04-28T17:51:44Z</time>
      </trkpt>
      <trkpt lat="5.0850142445" lon="-73.4338494949">
        <ele>1663.82</ele>
        <time>2022-04-28T17:51:50Z</time>
      </trkpt>
      <trkpt lat="5.0848124083" lon="-73.4338286240">
        <ele>1662.72</ele>
        <time>2022-04-28T17:51:52Z</time>
      </trkpt>
      <trkpt lat="5.0847142562" lon="-73.4338076692">
        <ele>1662.15</ele>
        <time>2022-04-28T17:51:53Z</time>
      </trkpt>
      <trkpt lat="5.0846177805" lon="-73.4337913245">
        <ele>1661.65</ele>
        <time>2022-04-28T17:51:54Z</time>
      </trkpt>
      <trkpt lat="5.0845226459" lon="-73.4337841161">
        <ele>1661.22</ele>
        <time>2022-04-28T17:51:55Z</time>
      </trkpt>
      <trkpt lat="5.0844306964" lon="-73.4337789193">
        <ele>1660.85</ele>
        <time>2022-04-28T17:51:56Z</time>
      </trkpt>
      <trkpt lat="5.0843424350" lon="-73.4337619040">
        <ele>1660.25</ele>
        <time>2022-04-28T17:51:57Z</time>
      </trkpt>
      <trkpt lat="5.0842602085" lon="-73.4337339923">
        <ele>1660.01</ele>
        <time>2022-04-28T17:51:58Z</time>
      </trkpt>
      <trkpt lat="5.0838555302" lon="-73.4333469998">
        <ele>1658.30</ele>
        <time>2022-04-28T17:52:05Z</time>
      </trkpt>
      <trkpt lat="5.0838222541" lon="-73.4330457542">
        <ele>1657.14</ele>
        <time>2022-04-28T17:52:08Z</time>
      </trkpt>
      <trkpt lat="5.0838066638" lon="-73.4327203687">
        <ele>1655.85</ele>
        <time>2022-04-28T17:52:11Z</time>
      </trkpt>
      <trkpt lat="5.0837832782" lon="-73.4326104820">
        <ele>1655.43</ele>
        <time>2022-04-28T17:52:12Z</time>
      </trkpt>
      <trkpt lat="5.0837461464" lon="-73.4325068817">
        <ele>1654.95</ele>
        <time>2022-04-28T17:52:13Z</time>
      </trkpt>
      <trkpt lat="5.0836739782" lon="-73.4323039558">
        <ele>1653.83</ele>
        <time>2022-04-28T17:52:15Z</time>
      </trkpt>
      <trkpt lat="5.0836531073" lon="-73.4321947396">
        <ele>1653.25</ele>
        <time>2022-04-28T17:52:16Z</time>
      </trkpt>
      <trkpt lat="5.0836427975" lon="-73.4320795722">
        <ele>1652.66</ele>
        <time>2022-04-28T17:52:17Z</time>
      </trkpt>
      <trkpt lat="5.0836418755" lon="-73.4319592919">
        <ele>1652.08</ele>
        <time>2022-04-28T17:52:18Z</time>
      </trkpt>
      <trkpt lat="5.0836482458" lon="-73.4318378381">
        <ele>1651.52</ele>
        <time>2022-04-28T17:52:19Z</time>
      </trkpt>
      <trkpt lat="5.0835796818" lon="-73.4313703794">
        <ele>1648.18</ele>
        <time>2022-04-28T17:52:23Z</time>
      </trkpt>
      <trkpt lat="5.0832011551" lon="-73.4309169184">
        <ele>1644.51</ele>
        <time>2022-04-28T17:52:28Z</time>
      </trkpt>
      <trkpt lat="5.0830882508" lon="-73.4308730811">
        <ele>1643.65</ele>
        <time>2022-04-28T17:52:29Z</time>
      </trkpt>
      <trkpt lat="5.0828652922" lon="-73.4307739232">
        <ele>1642.00</ele>
        <time>2022-04-28T17:52:31Z</time>
      </trkpt>
      <trkpt lat="5.0827768631" lon="-73.4306936245">
        <ele>1641.22</ele>
        <time>2022-04-28T17:52:32Z</time>
      </trkpt>
      <trkpt lat="5.0827055331" lon="-73.4305988252">
        <ele>1640.42</ele>
        <time>2022-04-28T17:52:33Z</time>
      </trkpt>
      <trkpt lat="5.0826519728" lon="-73.4304957278">
        <ele>1639.66</ele>
        <time>2022-04-28T17:52:34Z</time>
      </trkpt>
      <trkpt lat="5.0826080516" lon="-73.4303886071">
        <ele>1638.91</ele>
        <time>2022-04-28T17:52:35Z</time>
      </trkpt>
      <trkpt lat="5.0825684052" lon="-73.4302829113">
        <ele>1638.24</ele>
        <time>2022-04-28T17:52:36Z</time>
      </trkpt>
      <trkpt lat="5.0823076442" lon="-73.4296859521">
        <ele>1634.75</ele>
        <time>2022-04-28T17:52:42Z</time>
      </trkpt>
      <trkpt lat="5.0821965840" lon="-73.4293934237">
        <ele>1632.35</ele>
        <time>2022-04-28T17:52:45Z</time>
      </trkpt>
      <trkpt lat="5.0821745396" lon="-73.4292959422">
        <ele>1631.75</ele>
        <time>2022-04-28T17:52:46Z</time>
      </trkpt>
      <trkpt lat="5.0821609609" lon="-73.4292030707">
        <ele>1631.26</ele>
        <time>2022-04-28T17:52:47Z</time>
      </trkpt>
      <trkpt lat="5.0821550097" lon="-73.4291153122">
        <ele>1630.51</ele>
        <time>2022-04-28T17:52:48Z</time>
      </trkpt>
      <trkpt lat="5.0821478851" lon="-73.4290302359">
        <ele>1630.22</ele>
        <time>2022-04-28T17:52:49Z</time>
      </trkpt>
      <trkpt lat="5.0821386650" lon="-73.4289481770">
        <ele>1629.97</ele>
        <time>2022-04-28T17:52:50Z</time>
      </trkpt>
      <trkpt lat="5.0818723720" lon="-73.4279063065">
        <ele>1626.66</ele>
        <time>2022-04-28T17:53:02Z</time>
      </trkpt>
      <trkpt lat="5.0813941844" lon="-73.4270976204">
        <ele>1623.66</ele>
        <time>2022-04-28T17:53:11Z</time>
      </trkpt>
      <trkpt lat="5.0809185114" lon="-73.4265683871">
        <ele>1620.20</ele>
        <time>2022-04-28T17:53:18Z</time>
      </trkpt>
      <trkpt lat="5.0804679003" lon="-73.4261187818">
        <ele>1616.91</ele>
        <time>2022-04-28T17:53:24Z</time>
      </trkpt>
      <trkpt lat="5.0801914651" lon="-73.4258261696">
        <ele>1615.02</ele>
        <time>2022-04-28T17:53:28Z</time>
      </trkpt>
      <trkpt lat="5.0800389983" lon="-73.4255623072">
        <ele>1613.13</ele>
        <time>2022-04-28T17:53:31Z</time>
      </trkpt>
      <trkpt lat="5.0799478032" lon="-73.4253140353">
        <ele>1611.73</ele>
        <time>2022-04-28T17:53:34Z</time>
      </trkpt>
      <trkpt lat="5.0799153652" lon="-73.4252345748">
        <ele>1611.29</ele>
        <time>2022-04-28T17:53:35Z</time>
      </trkpt>
      <trkpt lat="5.0798730366" lon="-73.4251604788">
        <ele>1610.75</ele>
        <time>2022-04-28T17:53:36Z</time>
      </trkpt>
      <trkpt lat="5.0798215717" lon="-73.4250942618">
        <ele>1609.52</ele>
        <time>2022-04-28T17:53:37Z</time>
      </trkpt>
      <trkpt lat="5.0797683466" lon="-73.4250329062">
        <ele>1609.03</ele>
        <time>2022-04-28T17:53:38Z</time>
      </trkpt>
      <trkpt lat="5.0796713680" lon="-73.4249139670">
        <ele>1608.18</ele>
        <time>2022-04-28T17:53:40Z</time>
      </trkpt>
      <trkpt lat="5.0796168856" lon="-73.4248702135">
        <ele>1607.77</ele>
        <time>2022-04-28T17:53:41Z</time>
      </trkpt>
      <trkpt lat="5.0793378521" lon="-73.4246832971">
        <ele>1606.37</ele>
        <time>2022-04-28T17:53:46Z</time>
      </trkpt>
      <trkpt lat="5.0792740658" lon="-73.4246530384">
        <ele>1606.14</ele>
        <time>2022-04-28T17:53:47Z</time>
      </trkpt>
      <trkpt lat="5.0792102795" lon="-73.4246251266">
        <ele>1605.94</ele>
        <time>2022-04-28T17:53:48Z</time>
      </trkpt>
      <trkpt lat="5.0791468285" lon="-73.4246011544">
        <ele>1605.76</ele>
        <time>2022-04-28T17:53:49Z</time>
      </trkpt>
      <trkpt lat="5.0784738455" lon="-73.4243945405">
        <ele>1604.08</ele>
        <time>2022-04-28T17:54:03Z</time>
      </trkpt>
      <trkpt lat="5.0781669840" lon="-73.4242035169">
        <ele>1605.54</ele>
        <time>2022-04-28T17:54:16Z</time>
      </trkpt>
      <trkpt lat="5.0780230667" lon="-73.4239902813">
        <ele>1607.34</ele>
        <time>2022-04-28T17:54:29Z</time>
      </trkpt>
      <trkpt lat="5.0779122580" lon="-73.4238021914">
        <ele>1607.92</ele>
        <time>2022-04-28T17:54:42Z</time>
      </trkpt>
      <trkpt lat="5.0779091567" lon="-73.4237866849">
        <ele>1607.98</ele>
        <time>2022-04-28T17:54:43Z</time>
      </trkpt>
      <trkpt lat="5.0779047143" lon="-73.4237730224">
        <ele>1608.05</ele>
        <time>2022-04-28T17:54:44Z</time>
      </trkpt>
      <trkpt lat="5.0779050495" lon="-73.4237598628">
        <ele>1608.10</ele>
        <time>2022-04-28T17:54:45Z</time>
      </trkpt>
      <trkpt lat="5.0779028703" lon="-73.4237468708">
        <ele>1608.15</ele>
        <time>2022-04-28T17:54:46Z</time>
      </trkpt>
      <trkpt lat="5.0779032893" lon="-73.4237332921">
        <ele>1608.21</ele>
        <time>2022-04-28T17:54:47Z</time>
      </trkpt>
      <trkpt lat="5.0779027864" lon="-73.4237170313">
        <ele>1608.25</ele>
        <time>2022-04-28T17:54:48Z</time>
      </trkpt>
      <trkpt lat="5.0777972583" lon="-73.4233675059">
        <ele>1610.02</ele>
        <time>2022-04-28T17:55:07Z</time>
      </trkpt>
      <trkpt lat="5.0777609646" lon="-73.4232623968">
        <ele>1611.05</ele>
        <time>2022-04-28T17:55:15Z</time>
      </trkpt>
      <trkpt lat="5.0777483918" lon="-73.4232518356">
        <ele>1611.25</ele>
        <time>2022-04-28T17:55:16Z</time>
      </trkpt>
      <trkpt lat="5.0777343940" lon="-73.4232424479">
        <ele>1611.35</ele>
        <time>2022-04-28T17:55:17Z</time>
      </trkpt>
      <trkpt lat="5.0777203124" lon="-73.4232385084">
        <ele>1611.45</ele>
        <time>2022-04-28T17:55:18Z</time>
      </trkpt>
      <trkpt lat="5.0777058955" lon="-73.4232385922">
        <ele>1611.56</ele>
        <time>2022-04-28T17:55:19Z</time>
      </trkpt>
      <trkpt lat="5.0775472261" lon="-73.4233083297">
        <ele>1613.31</ele>
        <time>2022-04-28T17:55:31Z</time>
      </trkpt>
      <trkpt lat="5.0775344018" lon="-73.4233023785">
        <ele>1613.46</ele>
        <time>2022-04-28T17:55:32Z</time>
      </trkpt>
      <trkpt lat="5.0775301270" lon="-73.4232919849">
        <ele>1613.62</ele>
        <time>2022-04-28T17:55:33Z</time>
      </trkpt>
      <trkpt lat="5.0775297079" lon="-73.4232538473">
        <ele>1614.17</ele>
        <time>2022-04-28T17:55:36Z</time>
      </trkpt>
      <trkpt lat="5.0774940010" lon="-73.4232012928">
        <ele>1614.91</ele>
        <time>2022-04-28T17:55:42Z</time>
      </trkpt>
      <trkpt lat="5.0774549413" lon="-73.4232021309">
        <ele>1615.38</ele>
        <time>2022-04-28T17:55:46Z</time>
      </trkpt>
      <trkpt lat="5.0774551928" lon="-73.4232364129">
        <ele>1615.79</ele>
        <time>2022-04-28T17:55:49Z</time>
      </trkpt>
      <trkpt lat="5.0773258600" lon="-73.4233628120">
        <ele>1616.99</ele>
        <time>2022-04-28T17:56:04Z</time>
      </trkpt>
      <trkpt lat="5.0773105212" lon="-73.4233435337">
        <ele>1617.31</ele>
        <time>2022-04-28T17:56:06Z</time>
      </trkpt>
      <trkpt lat="5.0772435497" lon="-73.4233015403">
        <ele>1618.30</ele>
        <time>2022-04-28T17:56:16Z</time>
      </trkpt>
      <trkpt lat="5.0770455692" lon="-73.4234131873">
        <ele>1619.86</ele>
        <time>2022-04-28T17:56:34Z</time>
      </trkpt>
      <trkpt lat="5.0770230219" lon="-73.4234146960">
        <ele>1620.17</ele>
        <time>2022-04-28T17:56:36Z</time>
      </trkpt>
      <trkpt lat="5.0770043302" lon="-73.4234296996">
        <ele>1620.48</ele>
        <time>2022-04-28T17:56:38Z</time>
      </trkpt>
      <trkpt lat="5.0769435614" lon="-73.4234317951">
        <ele>1621.11</ele>
        <time>2022-04-28T17:56:43Z</time>
      </trkpt>
      <trkpt lat="5.0769245345" lon="-73.4233867005">
        <ele>1621.52</ele>
        <time>2022-04-28T17:56:47Z</time>
      </trkpt>
      <trkpt lat="5.0769256242" lon="-73.4233484790">
        <ele>1621.74</ele>
        <time>2022-04-28T17:56:50Z</time>
      </trkpt>
      <trkpt lat="5.0768959522" lon="-73.4232711978">
        <ele>1622.62</ele>
        <time>2022-04-28T17:56:57Z</time>
      </trkpt>
      <trkpt lat="5.0768186711" lon="-73.4231069125">
        <ele>1624.41</ele>
        <time>2022-04-28T17:57:11Z</time>
      </trkpt>
      <trkpt lat="5.0767641049" lon="-73.4229236841">
        <ele>1626.15</ele>
        <time>2022-04-28T17:57:26Z</time>
      </trkpt>
      <trkpt lat="5.0766760949" lon="-73.4227449819">
        <ele>1627.65</ele>
        <time>2022-04-28T17:57:40Z</time>
      </trkpt>
      <trkpt lat="5.0765807088" lon="-73.4225116298">
        <ele>1628.97</ele>
        <time>2022-04-28T17:57:58Z</time>
      </trkpt>
      <trkpt lat="5.0765070319" lon="-73.4223307483">
        <ele>1628.31</ele>
        <time>2022-04-28T17:58:09Z</time>
      </trkpt>
      <trkpt lat="5.0765258074" lon="-73.4223100450">
        <ele>1627.95</ele>
        <time>2022-04-28T17:58:12Z</time>
      </trkpt>
      <trkpt lat="5.0765595026" lon="-73.4224428143">
        <ele>1628.20</ele>
        <time>2022-04-28T17:58:26Z</time>
      </trkpt>
      <trkpt lat="5.0765961315" lon="-73.4224959556">
        <ele>1628.68</ele>
        <time>2022-04-28T17:58:31Z</time>
      </trkpt>
      <trkpt lat="5.0766593311" lon="-73.4227272123">
        <ele>1628.67</ele>
        <time>2022-04-28T17:58:45Z</time>
      </trkpt>
      <trkpt lat="5.0766701438" lon="-73.4227422159">
        <ele>1627.91</ele>
        <time>2022-04-28T17:59:00Z</time>
      </trkpt>
      <trkpt lat="5.0767062698" lon="-73.4228295553">
        <ele>1627.71</ele>
        <time>2022-04-28T17:59:26Z</time>
      </trkpt>
      <trkpt lat="5.0768516958" lon="-73.4232034720">
        <ele>1625.47</ele>
        <time>2022-04-28T17:59:38Z</time>
      </trkpt>
      <trkpt lat="5.0768913422" lon="-73.4232456330">
        <ele>1624.94</ele>
        <time>2022-04-28T17:59:40Z</time>
      </trkpt>
      <trkpt lat="5.0769191701" lon="-73.4232568648">
        <ele>1624.67</ele>
        <time>2022-04-28T17:59:41Z</time>
      </trkpt>
      <trkpt lat="5.0769439805" lon="-73.4232638218">
        <ele>1624.43</ele>
        <time>2022-04-28T17:59:42Z</time>
      </trkpt>
      <trkpt lat="5.0769632589" lon="-73.4232653305">
        <ele>1624.17</ele>
        <time>2022-04-28T17:59:43Z</time>
      </trkpt>
      <trkpt lat="5.0769718084" lon="-73.4232763108">
        <ele>1622.13</ele>
        <time>2022-04-28T17:59:54Z</time>
      </trkpt>
      <trkpt lat="5.0769655220" lon="-73.4232505783">
        <ele>1621.91</ele>
        <time>2022-04-28T18:00:03Z</time>
      </trkpt>
      <trkpt lat="5.0769650191" lon="-73.4232376702">
        <ele>1583.38</ele>
        <time>2022-04-28T18:00:06Z</time>
      </trkpt>
      <trkpt lat="5.0769648515" lon="-73.4232314676">
        <ele>1583.38</ele>
        <time>2022-04-28T18:00:07Z</time>
      </trkpt>
      <trkpt lat="5.0769763347" lon="-73.4232093394">
        <ele>1574.23</ele>
        <time>2022-04-28T18:00:17Z</time>
      </trkpt>
      <trkpt lat="5.0769760832" lon="-73.4232095908">
        <ele>1566.97</ele>
        <time>2022-04-28T18:00:18Z</time>
      </trkpt>
      <trkpt lat="5.0769765861" lon="-73.4232100099">
        <ele>1556.52</ele>
        <time>2022-04-28T18:00:19Z</time>
      </trkpt>
      <trkpt lat="5.0769745745" lon="-73.4232146200">
        <ele>1556.52</ele>
        <time>2022-04-28T18:00:20Z</time>
      </trkpt>
      <trkpt lat="5.0769718923" lon="-73.4232204873">
        <ele>1552.81</ele>
        <time>2022-04-28T18:00:21Z</time>
      </trkpt>
      <trkpt lat="5.0769681204" lon="-73.4232229181">
        <ele>1547.39</ele>
        <time>2022-04-28T18:00:22Z</time>
      </trkpt>
      <trkpt lat="5.0769652706" lon="-73.4232237563">
        <ele>1543.91</ele>
        <time>2022-04-28T18:00:24Z</time>
      </trkpt>
      <trkpt lat="5.0769579783" lon="-73.4232208226">
        <ele>1540.86</ele>
        <time>2022-04-28T18:00:27Z</time>
      </trkpt>
      <trkpt lat="5.0769561343" lon="-73.4232197329">
        <ele>1540.86</ele>
        <time>2022-04-28T18:00:28Z</time>
      </trkpt>
      <trkpt lat="5.0769671984" lon="-73.4232256841">
        <ele>1538.01</ele>
        <time>2022-04-28T18:00:54Z</time>
      </trkpt>
      <trkpt lat="5.0769736525" lon="-73.4232251812">
        <ele>1538.06</ele>
        <time>2022-04-28T18:01:21Z</time>
      </trkpt>
      <trkpt lat="5.0769754965" lon="-73.4232240915">
        <ele>1537.95</ele>
        <time>2022-04-28T18:01:50Z</time>
      </trkpt>
      <trkpt lat="5.0769506022" lon="-73.4232301265">
        <ele>1538.27</ele>
        <time>2022-04-28T18:02:28Z</time>
      </trkpt>
      <trkpt lat="5.0770047493" lon="-73.4232665040">
        <ele>1611.12</ele>
        <time>2022-04-28T18:06:04Z</time>
      </trkpt>
      <trkpt lat="5.0770231895" lon="-73.4232887160">
        <ele>1611.12</ele>
        <time>2022-04-28T18:06:05Z</time>
      </trkpt>
      <trkpt lat="5.0770384446" lon="-73.4232579544">
        <ele>1611.17</ele>
        <time>2022-04-28T18:06:18Z</time>
      </trkpt>
      <trkpt lat="5.0770133827" lon="-73.4232880455">
        <ele>1611.41</ele>
        <time>2022-04-28T18:06:46Z</time>
      </trkpt>
      <trkpt lat="5.0770268776" lon="-73.4232973494">
        <ele>1610.88</ele>
        <time>2022-04-28T18:07:17Z</time>
      </trkpt>
      <trkpt lat="5.0770288054" lon="-73.4232752211">
        <ele>1610.86</ele>
        <time>2022-04-28T18:07:45Z</time>
      </trkpt>
      <trkpt lat="5.0770528615" lon="-73.4232814237">
        <ele>1611.09</ele>
        <time>2022-04-28T18:08:24Z</time>
      </trkpt>
      <trkpt lat="5.0770429708" lon="-73.4232706111">
        <ele>1611.16</ele>
        <time>2022-04-28T18:09:09Z</time>
      </trkpt>
      <trkpt lat="5.0770380255" lon="-73.4233303741">
        <ele>1611.22</ele>
        <time>2022-04-28T18:09:26Z</time>
      </trkpt>
      <trkpt lat="5.0770283025" lon="-73.4233553521">
        <ele>1611.38</ele>
        <time>2022-04-28T18:09:28Z</time>
      </trkpt>
      <trkpt lat="5.0769129675" lon="-73.4233447071">
        <ele>1612.11</ele>
        <time>2022-04-28T18:09:40Z</time>
      </trkpt>
      <trkpt lat="5.0768356025" lon="-73.4231842775">
        <ele>1614.34</ele>
        <time>2022-04-28T18:09:55Z</time>
      </trkpt>
      <trkpt lat="5.0767528731" lon="-73.4230540227">
        <ele>1615.64</ele>
        <time>2022-04-28T18:10:06Z</time>
      </trkpt>
      <trkpt lat="5.0767159928" lon="-73.4229546972">
        <ele>1616.22</ele>
        <time>2022-04-28T18:10:12Z</time>
      </trkpt>
      <trkpt lat="5.0766612589" lon="-73.4226925112">
        <ele>1618.45</ele>
        <time>2022-04-28T18:10:29Z</time>
      </trkpt>
      <trkpt lat="5.0765895937" lon="-73.4225065168">
        <ele>1619.14</ele>
        <time>2022-04-28T18:10:44Z</time>
      </trkpt>
      <trkpt lat="5.0764933694" lon="-73.4222418163">
        <ele>1618.60</ele>
        <time>2022-04-28T18:10:57Z</time>
      </trkpt>
      <trkpt lat="5.0763861649" lon="-73.4219573345">
        <ele>1616.67</ele>
        <time>2022-04-28T18:11:07Z</time>
      </trkpt>
      <trkpt lat="5.0762176048" lon="-73.4214647301">
        <ele>1615.01</ele>
        <time>2022-04-28T18:11:17Z</time>
      </trkpt>
      <trkpt lat="5.0761239789" lon="-73.4212402627">
        <ele>1614.34</ele>
        <time>2022-04-28T18:11:21Z</time>
      </trkpt>
      <trkpt lat="5.0761080533" lon="-73.4211960901">
        <ele>1614.21</ele>
        <time>2022-04-28T18:11:22Z</time>
      </trkpt>
      <trkpt lat="5.0760960672" lon="-73.4211699385">
        <ele>1614.10</ele>
        <time>2022-04-28T18:11:23Z</time>
      </trkpt>
      <trkpt lat="5.0760934688" lon="-73.4211597126">
        <ele>1612.24</ele>
        <time>2022-04-28T18:11:34Z</time>
      </trkpt>
      <trkpt lat="5.0760672335" lon="-73.4210527595">
        <ele>1612.35</ele>
        <time>2022-04-28T18:11:42Z</time>
      </trkpt>
      <trkpt lat="5.0760619529" lon="-73.4210359119">
        <ele>1612.40</ele>
        <time>2022-04-28T18:11:43Z</time>
      </trkpt>
      <trkpt lat="5.0759707578" lon="-73.4207622427">
        <ele>1611.96</ele>
        <time>2022-04-28T18:11:55Z</time>
      </trkpt>
      <trkpt lat="5.0759769604" lon="-73.4207427967">
        <ele>1610.74</ele>
        <time>2022-04-28T18:12:09Z</time>
      </trkpt>
      <trkpt lat="5.0759662315" lon="-73.4207215067">
        <ele>1610.58</ele>
        <time>2022-04-28T18:12:20Z</time>
      </trkpt>
      <trkpt lat="5.0759608671" lon="-73.4207080957">
        <ele>1610.60</ele>
        <time>2022-04-28T18:12:21Z</time>
      </trkpt>
      <trkpt lat="5.0759544969" lon="-73.4206908289">
        <ele>1610.62</ele>
        <time>2022-04-28T18:12:22Z</time>
      </trkpt>
      <trkpt lat="5.0759459473" lon="-73.4206714667">
        <ele>1610.65</ele>
        <time>2022-04-28T18:12:23Z</time>
      </trkpt>
      <trkpt lat="5.0759384036" lon="-73.4206487518">
        <ele>1610.69</ele>
        <time>2022-04-28T18:12:24Z</time>
      </trkpt>
      <trkpt lat="5.0759314466" lon="-73.4206222650">
        <ele>1610.69</ele>
        <time>2022-04-28T18:12:25Z</time>
      </trkpt>
      <trkpt lat="5.0756706856" lon="-73.4202480130">
        <ele>1610.05</ele>
        <time>2022-04-28T18:12:37Z</time>
      </trkpt>
      <trkpt lat="5.0754370820" lon="-73.4200102184">
        <ele>1609.73</ele>
        <time>2022-04-28T18:12:48Z</time>
      </trkpt>
      <trkpt lat="5.0753533468" lon="-73.4199642017">
        <ele>1609.73</ele>
        <time>2022-04-28T18:12:58Z</time>
      </trkpt>
      <trkpt lat="5.0753486529" lon="-73.4199502878">
        <ele>1609.76</ele>
        <time>2022-04-28T18:12:59Z</time>
      </trkpt>
      <trkpt lat="5.0753406063" lon="-73.4199346974">
        <ele>1609.79</ele>
        <time>2022-04-28T18:13:00Z</time>
      </trkpt>
      <trkpt lat="5.0751469843" lon="-73.4196493775">
        <ele>1610.42</ele>
        <time>2022-04-28T18:13:15Z</time>
      </trkpt>
      <trkpt lat="5.0750950165" lon="-73.4192879498">
        <ele>1611.49</ele>
        <time>2022-04-28T18:13:30Z</time>
      </trkpt>
      <trkpt lat="5.0749593135" lon="-73.4190106764">
        <ele>1611.77</ele>
        <time>2022-04-28T18:13:42Z</time>
      </trkpt>
      <trkpt lat="5.0746077765" lon="-73.4188413620">
        <ele>1611.63</ele>
        <time>2022-04-28T18:13:55Z</time>
      </trkpt>
      <trkpt lat="5.0743471831" lon="-73.4187666792">
        <ele>1612.47</ele>
        <time>2022-04-28T18:14:08Z</time>
      </trkpt>
      <trkpt lat="5.0741400663" lon="-73.4186661802">
        <ele>1614.49</ele>
        <time>2022-04-28T18:14:21Z</time>
      </trkpt>
      <trkpt lat="5.0740722567" lon="-73.4186349995">
        <ele>1614.95</ele>
        <time>2022-04-28T18:14:25Z</time>
      </trkpt>
      <trkpt lat="5.0739254057" lon="-73.4185882285">
        <ele>1616.43</ele>
        <time>2022-04-28T18:14:35Z</time>
      </trkpt>
      <trkpt lat="5.0738068856" lon="-73.4185825288">
        <ele>1617.67</ele>
        <time>2022-04-28T18:14:42Z</time>
      </trkpt>
      <trkpt lat="5.0737066381" lon="-73.4185695369">
        <ele>1618.31</ele>
        <time>2022-04-28T18:14:47Z</time>
      </trkpt>
      <trkpt lat="5.0734589528" lon="-73.4186019748">
        <ele>1620.13</ele>
        <time>2022-04-28T18:14:59Z</time>
      </trkpt>
      <trkpt lat="5.0733673386" lon="-73.4185986221">
        <ele>1621.35</ele>
        <time>2022-04-28T18:15:05Z</time>
      </trkpt>
      <trkpt lat="5.0732665882" lon="-73.4186199959">
        <ele>1622.15</ele>
        <time>2022-04-28T18:15:11Z</time>
      </trkpt>
      <trkpt lat="5.0731962640" lon="-73.4186045732">
        <ele>1623.02</ele>
        <time>2022-04-28T18:15:17Z</time>
      </trkpt>
      <trkpt lat="5.0729647558" lon="-73.4187325649">
        <ele>1625.00</ele>
        <time>2022-04-28T18:15:34Z</time>
      </trkpt>
      <trkpt lat="5.0727127120" lon="-73.4187806770">
        <ele>1626.66</ele>
        <time>2022-04-28T18:15:48Z</time>
      </trkpt>
      <trkpt lat="5.0726724789" lon="-73.4187891427">
        <ele>1626.91</ele>
        <time>2022-04-28T18:15:50Z</time>
      </trkpt>
      <trkpt lat="5.0725783501" lon="-73.4187966865">
        <ele>1627.56</ele>
        <time>2022-04-28T18:15:55Z</time>
      </trkpt>
      <trkpt lat="5.0724924356" lon="-73.4188582934">
        <ele>1628.27</ele>
        <time>2022-04-28T18:16:03Z</time>
      </trkpt>
      <trkpt lat="5.0724728219" lon="-73.4188744705">
        <ele>1628.44</ele>
        <time>2022-04-28T18:16:05Z</time>
      </trkpt>
      <trkpt lat="5.0723765977" lon="-73.4189313836">
        <ele>1629.15</ele>
        <time>2022-04-28T18:16:11Z</time>
      </trkpt>
      <trkpt lat="5.0721871667" lon="-73.4190749656">
        <ele>1631.49</ele>
        <time>2022-04-28T18:16:26Z</time>
      </trkpt>
      <trkpt lat="5.0720872544" lon="-73.4191359021">
        <ele>1632.69</ele>
        <time>2022-04-28T18:16:34Z</time>
      </trkpt>
      <trkpt lat="5.0720773637" lon="-73.4191575274">
        <ele>1632.91</ele>
        <time>2022-04-28T18:16:36Z</time>
      </trkpt>
      <trkpt lat="5.0720075425" lon="-73.4191938210">
        <ele>1633.64</ele>
        <time>2022-04-28T18:16:42Z</time>
      </trkpt>
      <trkpt lat="5.0719336979" lon="-73.4192462917">
        <ele>1634.24</ele>
        <time>2022-04-28T18:16:48Z</time>
      </trkpt>
      <trkpt lat="5.0718176924" lon="-73.4192929789">
        <ele>1635.33</ele>
        <time>2022-04-28T18:16:57Z</time>
      </trkpt>
      <trkpt lat="5.0717620365" lon="-73.4192954097">
        <ele>1635.68</ele>
        <time>2022-04-28T18:17:01Z</time>
      </trkpt>
      <trkpt lat="5.0714944024" lon="-73.4192690905">
        <ele>1637.31</ele>
        <time>2022-04-28T18:17:18Z</time>
      </trkpt>
      <trkpt lat="5.0712454598" lon="-73.4191374108">
        <ele>1639.34</ele>
        <time>2022-04-28T18:17:34Z</time>
      </trkpt>
      <trkpt lat="5.0709900633" lon="-73.4190056473">
        <ele>1641.42</ele>
        <time>2022-04-28T18:17:49Z</time>
      </trkpt>
      <trkpt lat="5.0708797574" lon="-73.4189447947">
        <ele>1642.43</ele>
        <time>2022-04-28T18:17:58Z</time>
      </trkpt>
      <trkpt lat="5.0707952678" lon="-73.4189163800">
        <ele>1643.76</ele>
        <time>2022-04-28T18:18:06Z</time>
      </trkpt>
      <trkpt lat="5.0707573816" lon="-73.4188966826">
        <ele>1644.43</ele>
        <time>2022-04-28T18:18:11Z</time>
      </trkpt>
      <trkpt lat="5.0705565512" lon="-73.4189361613">
        <ele>1646.20</ele>
        <time>2022-04-28T18:18:28Z</time>
      </trkpt>
      <trkpt lat="5.0705072656" lon="-73.4189035557">
        <ele>1646.82</ele>
        <time>2022-04-28T18:18:33Z</time>
      </trkpt>
      <trkpt lat="5.0704650208" lon="-73.4188896418">
        <ele>1647.35</ele>
        <time>2022-04-28T18:18:37Z</time>
      </trkpt>
      <trkpt lat="5.0703598280" lon="-73.4189160448">
        <ele>1648.28</ele>
        <time>2022-04-28T18:18:45Z</time>
      </trkpt>
      <trkpt lat="5.0701248832" lon="-73.4189069923">
        <ele>1650.81</ele>
        <time>2022-04-28T18:19:01Z</time>
      </trkpt>
      <trkpt lat="5.0700773578" lon="-73.4189087525">
        <ele>1651.81</ele>
        <time>2022-04-28T18:19:20Z</time>
      </trkpt>
      <trkpt lat="5.0700620189" lon="-73.4189046454">
        <ele>1651.81</ele>
        <time>2022-04-28T18:19:23Z</time>
      </trkpt>
      <trkpt lat="5.0699136592" lon="-73.4188955929">
        <ele>1652.57</ele>
        <time>2022-04-28T18:19:34Z</time>
      </trkpt>
      <trkpt lat="5.0698754378" lon="-73.4189361613">
        <ele>1652.98</ele>
        <time>2022-04-28T18:19:38Z</time>
      </trkpt>
      <trkpt lat="5.0697083026" lon="-73.4190482274">
        <ele>1654.42</ele>
        <time>2022-04-28T18:19:53Z</time>
      </trkpt>
      <trkpt lat="5.0696599390" lon="-73.4190903883">
        <ele>1655.18</ele>
        <time>2022-04-28T18:19:59Z</time>
      </trkpt>
      <trkpt lat="5.0696217176" lon="-73.4191577788">
        <ele>1655.75</ele>
        <time>2022-04-28T18:20:04Z</time>
      </trkpt>
      <trkpt lat="5.0695843343" lon="-73.4192529973">
        <ele>1656.42</ele>
        <time>2022-04-28T18:20:09Z</time>
      </trkpt>
      <trkpt lat="5.0695523992" lon="-73.4192726109">
        <ele>1656.74</ele>
        <time>2022-04-28T18:20:12Z</time>
      </trkpt>
      <trkpt lat="5.0695818197" lon="-73.4193121735">
        <ele>1657.13</ele>
        <time>2022-04-28T18:20:16Z</time>
      </trkpt>
      <trkpt lat="5.0695978291" lon="-73.4193798993">
        <ele>1657.63</ele>
        <time>2022-04-28T18:20:21Z</time>
      </trkpt>
      <trkpt lat="5.0695739407" lon="-73.4194114152">
        <ele>1658.03</ele>
        <time>2022-04-28T18:20:25Z</time>
      </trkpt>
      <trkpt lat="5.0696382299" lon="-73.4194511455">
        <ele>1658.56</ele>
        <time>2022-04-28T18:20:30Z</time>
      </trkpt>
      <trkpt lat="5.0696747750" lon="-73.4195472021">
        <ele>1659.37</ele>
        <time>2022-04-28T18:20:37Z</time>
      </trkpt>
      <trkpt lat="5.0696647167" lon="-73.4196055401">
        <ele>1660.17</ele>
        <time>2022-04-28T18:20:42Z</time>
      </trkpt>
      <trkpt lat="5.0699046068" lon="-73.4197173547">
        <ele>1662.17</ele>
        <time>2022-04-28T18:20:59Z</time>
      </trkpt>
      <trkpt lat="5.0701346062" lon="-73.4198109806">
        <ele>1664.31</ele>
        <time>2022-04-28T18:21:14Z</time>
      </trkpt>
      <trkpt lat="5.0703525357" lon="-73.4199661296">
        <ele>1666.36</ele>
        <time>2022-04-28T18:21:31Z</time>
      </trkpt>
      <trkpt lat="5.0703388732" lon="-73.4202067740">
        <ele>1667.99</ele>
        <time>2022-04-28T18:21:45Z</time>
      </trkpt>
      <trkpt lat="5.0702071097" lon="-73.4204053413">
        <ele>1670.46</ele>
        <time>2022-04-28T18:22:00Z</time>
      </trkpt>
      <trkpt lat="5.0700025074" lon="-73.4205399547">
        <ele>1672.67</ele>
        <time>2022-04-28T18:22:15Z</time>
      </trkpt>
      <trkpt lat="5.0699740928" lon="-73.4205604065">
        <ele>1672.87</ele>
        <time>2022-04-28T18:22:17Z</time>
      </trkpt>
      <trkpt lat="5.0697552413" lon="-73.4206285514">
        <ele>1674.18</ele>
        <time>2022-04-28T18:22:32Z</time>
      </trkpt>
      <trkpt lat="5.0697399862" lon="-73.4206278808">
        <ele>1674.29</ele>
        <time>2022-04-28T18:22:33Z</time>
      </trkpt>
      <trkpt lat="5.0695926324" lon="-73.4206095245">
        <ele>1675.60</ele>
        <time>2022-04-28T18:22:43Z</time>
      </trkpt>
      <trkpt lat="5.0693721045" lon="-73.4205853846">
        <ele>1677.41</ele>
        <time>2022-04-28T18:22:58Z</time>
      </trkpt>
      <trkpt lat="5.0692701805" lon="-73.4205434751">
        <ele>1678.33</ele>
        <time>2022-04-28T18:23:06Z</time>
      </trkpt>
      <trkpt lat="5.0691706873" lon="-73.4205052536">
        <ele>1679.58</ele>
        <time>2022-04-28T18:23:14Z</time>
      </trkpt>
      <trkpt lat="5.0691372436" lon="-73.4204594046">
        <ele>1680.19</ele>
        <time>2022-04-28T18:23:19Z</time>
      </trkpt>
      <trkpt lat="5.0690447073" lon="-73.4204384498">
        <ele>1681.22</ele>
        <time>2022-04-28T18:23:27Z</time>
      </trkpt>
      <trkpt lat="5.0688422006" lon="-73.4203909244">
        <ele>1683.08</ele>
        <time>2022-04-28T18:23:43Z</time>
      </trkpt>
      <trkpt lat="5.0685439724" lon="-73.4204103705">
        <ele>1684.46</ele>
        <time>2022-04-28T18:24:01Z</time>
      </trkpt>
      <trkpt lat="5.0682879053" lon="-73.4205327462">
        <ele>1686.29</ele>
        <time>2022-04-28T18:24:17Z</time>
      </trkpt>
      <trkpt lat="5.0680247135" lon="-73.4206409566">
        <ele>1688.03</ele>
        <time>2022-04-28T18:24:33Z</time>
      </trkpt>
      <trkpt lat="5.0678599253" lon="-73.4206806030">
        <ele>1688.74</ele>
        <time>2022-04-28T18:24:42Z</time>
      </trkpt>
      <trkpt lat="5.0677021779" lon="-73.4207495861">
        <ele>1689.56</ele>
        <time>2022-04-28T18:24:53Z</time>
      </trkpt>
      <trkpt lat="5.0674209651" lon="-73.4207819402">
        <ele>1690.81</ele>
        <time>2022-04-28T18:25:10Z</time>
      </trkpt>
      <trkpt lat="5.0672910456" lon="-73.4205267951">
        <ele>1691.96</ele>
        <time>2022-04-28T18:25:26Z</time>
      </trkpt>
      <trkpt lat="5.0673221424" lon="-73.4202589933">
        <ele>1693.43</ele>
        <time>2022-04-28T18:25:41Z</time>
      </trkpt>
      <trkpt lat="5.0673602801" lon="-73.4200150799">
        <ele>1694.53</ele>
        <time>2022-04-28T18:25:55Z</time>
      </trkpt>
      <trkpt lat="5.0673505571" lon="-73.4197273292">
        <ele>1696.19</ele>
        <time>2022-04-28T18:26:10Z</time>
      </trkpt>
      <trkpt lat="5.0672295224" lon="-73.4194557555">
        <ele>1697.45</ele>
        <time>2022-04-28T18:26:25Z</time>
      </trkpt>
      <trkpt lat="5.0670447852" lon="-73.4192593675">
        <ele>1698.57</ele>
        <time>2022-04-28T18:26:39Z</time>
      </trkpt>
      <trkpt lat="5.0668916479" lon="-73.4190103412">
        <ele>1699.68</ele>
        <time>2022-04-28T18:26:52Z</time>
      </trkpt>
      <trkpt lat="5.0668478105" lon="-73.4187131189">
        <ele>1701.28</ele>
        <time>2022-04-28T18:27:07Z</time>
      </trkpt>
      <trkpt lat="5.0668540969" lon="-73.4184854664">
        <ele>1702.77</ele>
        <time>2022-04-28T18:27:21Z</time>
      </trkpt>
      <trkpt lat="5.0668401830" lon="-73.4183770884">
        <ele>1703.35</ele>
        <time>2022-04-28T18:27:28Z</time>
      </trkpt>
      <trkpt lat="5.0667096768" lon="-73.4181222785">
        <ele>1705.38</ele>
        <time>2022-04-28T18:27:46Z</time>
      </trkpt>
      <trkpt lat="5.0664712116" lon="-73.4179800376">
        <ele>1706.94</ele>
        <time>2022-04-28T18:28:02Z</time>
      </trkpt>
      <trkpt lat="5.0662326626" lon="-73.4180338494">
        <ele>1708.67</ele>
        <time>2022-04-28T18:28:18Z</time>
      </trkpt>
      <trkpt lat="5.0660660304" lon="-73.4181940276">
        <ele>1710.24</ele>
        <time>2022-04-28T18:28:33Z</time>
      </trkpt>
      <trkpt lat="5.0660128053" lon="-73.4183878172">
        <ele>1711.58</ele>
        <time>2022-04-28T18:28:45Z</time>
      </trkpt>
      <trkpt lat="5.0660551339" lon="-73.4184495918">
        <ele>1712.23</ele>
        <time>2022-04-28T18:28:51Z</time>
      </trkpt>
      <trkpt lat="5.0660625938" lon="-73.4184734803">
        <ele>1712.43</ele>
        <time>2022-04-28T18:28:53Z</time>
      </trkpt>
      <trkpt lat="5.0660361070" lon="-73.4185127914">
        <ele>1712.74</ele>
        <time>2022-04-28T18:28:57Z</time>
      </trkpt>
      <trkpt lat="5.0660940260" lon="-73.4185806010">
        <ele>1713.12</ele>
        <time>2022-04-28T18:29:03Z</time>
      </trkpt>
      <trkpt lat="5.0660892483" lon="-73.4186202474">
        <ele>1713.42</ele>
        <time>2022-04-28T18:29:06Z</time>
      </trkpt>
      <trkpt lat="5.0661259610" lon="-73.4186883923">
        <ele>1714.00</ele>
        <time>2022-04-28T18:29:12Z</time>
      </trkpt>
      <trkpt lat="5.0662456546" lon="-73.4189514164">
        <ele>1716.14</ele>
        <time>2022-04-28T18:29:29Z</time>
      </trkpt>
      <trkpt lat="5.0662278011" lon="-73.4191839304">
        <ele>1717.61</ele>
        <time>2022-04-28T18:29:43Z</time>
      </trkpt>
      <trkpt lat="5.0660597440" lon="-73.4193947352">
        <ele>1719.23</ele>
        <time>2022-04-28T18:29:57Z</time>
      </trkpt>
      <trkpt lat="5.0659615919" lon="-73.4194630478">
        <ele>1720.13</ele>
        <time>2022-04-28T18:30:05Z</time>
      </trkpt>
      <trkpt lat="5.0658664573" lon="-73.4195439331">
        <ele>1721.17</ele>
        <time>2022-04-28T18:30:13Z</time>
      </trkpt>
      <trkpt lat="5.0658000726" lon="-73.4196032770">
        <ele>1721.86</ele>
        <time>2022-04-28T18:30:20Z</time>
      </trkpt>
      <trkpt lat="5.0657721609" lon="-73.4196255729">
        <ele>1722.13</ele>
        <time>2022-04-28T18:30:22Z</time>
      </trkpt>
      <trkpt lat="5.0656364579" lon="-73.4197564982">
        <ele>1723.18</ele>
        <time>2022-04-28T18:30:32Z</time>
      </trkpt>
      <trkpt lat="5.0655458495" lon="-73.4199055284">
        <ele>1724.11</ele>
        <time>2022-04-28T18:30:41Z</time>
      </trkpt>
      <trkpt lat="5.0654891878" lon="-73.4200152475">
        <ele>1725.00</ele>
        <time>2022-04-28T18:30:49Z</time>
      </trkpt>
      <trkpt lat="5.0653829891" lon="-73.4202040080">
        <ele>1726.35</ele>
        <time>2022-04-28T18:31:02Z</time>
      </trkpt>
      <trkpt lat="5.0654092245" lon="-73.4202438220">
        <ele>1726.62</ele>
        <time>2022-04-28T18:31:06Z</time>
      </trkpt>
      <trkpt lat="5.0653559994" lon="-73.4203104582">
        <ele>1726.96</ele>
        <time>2022-04-28T18:31:12Z</time>
      </trkpt>
      <trkpt lat="5.0653086416" lon="-73.4203884937">
        <ele>1727.23</ele>
        <time>2022-04-28T18:31:17Z</time>
      </trkpt>
      <trkpt lat="5.0652877707" lon="-73.4204993024">
        <ele>1728.09</ele>
        <time>2022-04-28T18:31:23Z</time>
      </trkpt>
      <trkpt lat="5.0652214698" lon="-73.4205666929">
        <ele>1728.92</ele>
        <time>2022-04-28T18:31:28Z</time>
      </trkpt>
      <trkpt lat="5.0650866050" lon="-73.4206533618">
        <ele>1729.58</ele>
        <time>2022-04-28T18:31:36Z</time>
      </trkpt>
      <trkpt lat="5.0650281832" lon="-73.4206734784">
        <ele>1730.11</ele>
        <time>2022-04-28T18:31:40Z</time>
      </trkpt>
      <trkpt lat="5.0649623014" lon="-73.4207105264">
        <ele>1730.90</ele>
        <time>2022-04-28T18:31:46Z</time>
      </trkpt>
      <trkpt lat="5.0649242476" lon="-73.4207241889">
        <ele>1731.09</ele>
        <time>2022-04-28T18:31:48Z</time>
      </trkpt>
      <trkpt lat="5.0648465473" lon="-73.4207567107">
        <ele>1731.79</ele>
        <time>2022-04-28T18:31:53Z</time>
      </trkpt>
      <trkpt lat="5.0648151990" lon="-73.4207803477">
        <ele>1732.16</ele>
        <time>2022-04-28T18:31:55Z</time>
      </trkpt>
      <trkpt lat="5.0647338107" lon="-73.4209006280">
        <ele>1733.04</ele>
        <time>2022-04-28T18:32:02Z</time>
      </trkpt>
      <trkpt lat="5.0646978524" lon="-73.4209066629">
        <ele>1733.23</ele>
        <time>2022-04-28T18:32:04Z</time>
      </trkpt>
      <trkpt lat="5.0646623969" lon="-73.4209577926">
        <ele>1733.53</ele>
        <time>2022-04-28T18:32:08Z</time>
      </trkpt>
      <trkpt lat="5.0644984469" lon="-73.4211093374">
        <ele>1734.78</ele>
        <time>2022-04-28T18:32:21Z</time>
      </trkpt>
      <trkpt lat="5.0644052401" lon="-73.4213468805">
        <ele>1736.02</ele>
        <time>2022-04-28T18:32:34Z</time>
      </trkpt>
      <trkpt lat="5.0643903203" lon="-73.4214647301">
        <ele>1736.92</ele>
        <time>2022-04-28T18:32:41Z</time>
      </trkpt>
      <trkpt lat="5.0643496681" lon="-73.4216235671">
        <ele>1737.90</ele>
        <time>2022-04-28T18:32:52Z</time>
      </trkpt>
      <trkpt lat="5.0643405318" lon="-73.4216923825">
        <ele>1738.24</ele>
        <time>2022-04-28T18:32:56Z</time>
      </trkpt>
      <trkpt lat="5.0641267933" lon="-73.4219224658">
        <ele>1740.16</ele>
        <time>2022-04-28T18:33:12Z</time>
      </trkpt>
      <trkpt lat="5.0638877414" lon="-73.4219462704">
        <ele>1741.75</ele>
        <time>2022-04-28T18:33:25Z</time>
      </trkpt>
      <trkpt lat="5.0636850670" lon="-73.4217964020">
        <ele>1744.06</ele>
        <time>2022-04-28T18:33:39Z</time>
      </trkpt>
      <trkpt lat="5.0636444148" lon="-73.4214773867">
        <ele>1746.04</ele>
        <time>2022-04-28T18:33:56Z</time>
      </trkpt>
      <trkpt lat="5.0636228733" lon="-73.4211926535">
        <ele>1746.79</ele>
        <time>2022-04-28T18:34:10Z</time>
      </trkpt>
      <trkpt lat="5.0635067001" lon="-73.4209645819">
        <ele>1748.25</ele>
        <time>2022-04-28T18:34:24Z</time>
      </trkpt>
      <trkpt lat="5.0633488689" lon="-73.4208890609">
        <ele>1749.58</ele>
        <time>2022-04-28T18:34:33Z</time>
      </trkpt>
      <trkpt lat="5.0632163510" lon="-73.4208939224">
        <ele>1750.96</ele>
        <time>2022-04-28T18:34:41Z</time>
      </trkpt>
      <trkpt lat="5.0630419236" lon="-73.4209960978">
        <ele>1753.01</ele>
        <time>2022-04-28T18:34:55Z</time>
      </trkpt>
      <trkpt lat="5.0629099924" lon="-73.4211594611">
        <ele>1754.38</ele>
        <time>2022-04-28T18:35:09Z</time>
      </trkpt>
      <trkpt lat="5.0628767163" lon="-73.4211910609">
        <ele>1754.61</ele>
        <time>2022-04-28T18:35:12Z</time>
      </trkpt>
      <trkpt lat="5.0628127623" lon="-73.4212703537">
        <ele>1754.94</ele>
        <time>2022-04-28T18:35:18Z</time>
      </trkpt>
      <trkpt lat="5.0626642350" lon="-73.4214635566">
        <ele>1756.31</ele>
        <time>2022-04-28T18:35:33Z</time>
      </trkpt>
      <trkpt lat="5.0624902267" lon="-73.4216764569">
        <ele>1758.01</ele>
        <time>2022-04-28T18:35:49Z</time>
      </trkpt>
      <trkpt lat="5.0624230038" lon="-73.4217757825">
        <ele>1758.68</ele>
        <time>2022-04-28T18:35:56Z</time>
      </trkpt>
      <trkpt lat="5.0623501651" lon="-73.4218906146">
        <ele>1759.63</ele>
        <time>2022-04-28T18:36:05Z</time>
      </trkpt>
      <trkpt lat="5.0622284599" lon="-73.4221734200">
        <ele>1761.20</ele>
        <time>2022-04-28T18:36:24Z</time>
      </trkpt>
      <trkpt lat="5.0622284599" lon="-73.4224226139">
        <ele>1762.70</ele>
        <time>2022-04-28T18:36:41Z</time>
      </trkpt>
      <trkpt lat="5.0622407813" lon="-73.4225220233">
        <ele>1763.78</ele>
        <time>2022-04-28T18:36:49Z</time>
      </trkpt>
      <trkpt lat="5.0622511748" lon="-73.4227020666">
        <ele>1764.71</ele>
        <time>2022-04-28T18:37:00Z</time>
      </trkpt>
      <trkpt lat="5.0622587185" lon="-73.4230159689">
        <ele>1766.96</ele>
        <time>2022-04-28T18:37:16Z</time>
      </trkpt>
      <trkpt lat="5.0621166453" lon="-73.4232587926">
        <ele>1768.47</ele>
        <time>2022-04-28T18:37:31Z</time>
      </trkpt>
      <trkpt lat="5.0621023122" lon="-73.4232700244">
        <ele>1768.59</ele>
        <time>2022-04-28T18:37:32Z</time>
      </trkpt>
      <trkpt lat="5.0618816167" lon="-73.4232936613">
        <ele>1770.38</ele>
        <time>2022-04-28T18:37:45Z</time>
      </trkpt>
      <trkpt lat="5.0617132243" lon="-73.4232166316">
        <ele>1771.59</ele>
        <time>2022-04-28T18:37:55Z</time>
      </trkpt>
      <trkpt lat="5.0615558960" lon="-73.4231188986">
        <ele>1773.26</ele>
        <time>2022-04-28T18:38:07Z</time>
      </trkpt>
      <trkpt lat="5.0615227874" lon="-73.4230939206">
        <ele>1773.50</ele>
        <time>2022-04-28T18:38:10Z</time>
      </trkpt>
      <trkpt lat="5.0614964683" lon="-73.4230372589">
        <ele>1773.98</ele>
        <time>2022-04-28T18:38:15Z</time>
      </trkpt>
      <trkpt lat="5.0613223761" lon="-73.4228115343">
        <ele>1775.64</ele>
        <time>2022-04-28T18:38:31Z</time>
      </trkpt>
      <trkpt lat="5.0612623617" lon="-73.4227062576">
        <ele>1776.34</ele>
        <time>2022-04-28T18:38:38Z</time>
      </trkpt>
      <trkpt lat="5.0612106454" lon="-73.4226378612">
        <ele>1776.97</ele>
        <time>2022-04-28T18:38:43Z</time>
      </trkpt>
      <trkpt lat="5.0611829851" lon="-73.4223640244">
        <ele>1778.78</ele>
        <time>2022-04-28T18:38:58Z</time>
      </trkpt>
      <trkpt lat="5.0611534808" lon="-73.4221877530">
        <ele>1780.06</ele>
        <time>2022-04-28T18:39:09Z</time>
      </trkpt>
      <trkpt lat="5.0611134991" lon="-73.4219345357">
        <ele>1781.88</ele>
        <time>2022-04-28T18:39:24Z</time>
      </trkpt>
      <trkpt lat="5.0610524788" lon="-73.4217002615">
        <ele>1784.10</ele>
        <time>2022-04-28T18:39:39Z</time>
      </trkpt>
      <trkpt lat="5.0609087292" lon="-73.4214849304">
        <ele>1786.07</ele>
        <time>2022-04-28T18:39:57Z</time>
      </trkpt>
      <trkpt lat="5.0606835075" lon="-73.4213679191">
        <ele>1787.90</ele>
        <time>2022-04-28T18:40:13Z</time>
      </trkpt>
      <trkpt lat="5.0603697728" lon="-73.4213522449">
        <ele>1790.38</ele>
        <time>2022-04-28T18:40:33Z</time>
      </trkpt>
      <trkpt lat="5.0602831878" lon="-73.4213401750">
        <ele>1790.95</ele>
        <time>2022-04-28T18:40:38Z</time>
      </trkpt>
      <trkpt lat="5.0601904839" lon="-73.4213224053">
        <ele>1791.52</ele>
        <time>2022-04-28T18:40:44Z</time>
      </trkpt>
      <trkpt lat="5.0599943474" lon="-73.4211721178">
        <ele>1793.02</ele>
        <time>2022-04-28T18:40:59Z</time>
      </trkpt>
      <trkpt lat="5.0597664434" lon="-73.4210488200">
        <ele>1794.71</ele>
        <time>2022-04-28T18:41:14Z</time>
      </trkpt>
      <trkpt lat="5.0596879888" lon="-73.4210232552">
        <ele>1795.71</ele>
        <time>2022-04-28T18:41:19Z</time>
      </trkpt>
      <trkpt lat="5.0595302414" lon="-73.4209736343">
        <ele>1796.90</ele>
        <time>2022-04-28T18:41:30Z</time>
      </trkpt>
      <trkpt lat="5.0594770163" lon="-73.4209499136">
        <ele>1797.22</ele>
        <time>2022-04-28T18:41:34Z</time>
      </trkpt>
      <trkpt lat="5.0592783652" lon="-73.4209432919">
        <ele>1798.57</ele>
        <time>2022-04-28T18:41:49Z</time>
      </trkpt>
      <trkpt lat="5.0590700749" lon="-73.4208807629">
        <ele>1799.76</ele>
        <time>2022-04-28T18:42:05Z</time>
      </trkpt>
      <trkpt lat="5.0589607749" lon="-73.4208673518">
        <ele>1800.50</ele>
        <time>2022-04-28T18:42:12Z</time>
      </trkpt>
      <trkpt lat="5.0588746089" lon="-73.4208486602">
        <ele>1800.97</ele>
        <time>2022-04-28T18:42:18Z</time>
      </trkpt>
      <trkpt lat="5.0586353894" lon="-73.4207757376">
        <ele>1802.60</ele>
        <time>2022-04-28T18:42:34Z</time>
      </trkpt>
      <trkpt lat="5.0584371574" lon="-73.4206309821">
        <ele>1803.75</ele>
        <time>2022-04-28T18:42:50Z</time>
      </trkpt>
      <trkpt lat="5.0582302921" lon="-73.4204699658">
        <ele>1805.78</ele>
        <time>2022-04-28T18:43:07Z</time>
      </trkpt>
      <trkpt lat="5.0582110975" lon="-73.4204464126">
        <ele>1805.96</ele>
        <time>2022-04-28T18:43:09Z</time>
      </trkpt>
      <trkpt lat="5.0580549426" lon="-73.4202847257">
        <ele>1807.07</ele>
        <time>2022-04-28T18:43:24Z</time>
      </trkpt>
      <trkpt lat="5.0579585508" lon="-73.4200647008">
        <ele>1808.14</ele>
        <time>2022-04-28T18:43:37Z</time>
      </trkpt>
      <trkpt lat="5.0579572935" lon="-73.4199251421">
        <ele>1808.44</ele>
        <time>2022-04-28T18:43:45Z</time>
      </trkpt>
      <trkpt lat="5.0580808427" lon="-73.4196825698">
        <ele>1810.00</ele>
        <time>2022-04-28T18:44:02Z</time>
      </trkpt>
      <trkpt lat="5.0581654999" lon="-73.4195942245">
        <ele>1810.64</ele>
        <time>2022-04-28T18:44:08Z</time>
      </trkpt>
      <trkpt lat="5.0583130214" lon="-73.4194691665">
        <ele>1812.11</ele>
        <time>2022-04-28T18:44:19Z</time>
      </trkpt>
      <trkpt lat="5.0583513267" lon="-73.4194360580">
        <ele>1812.44</ele>
        <time>2022-04-28T18:44:22Z</time>
      </trkpt>
      <trkpt lat="5.0584275182" lon="-73.4193466231">
        <ele>1813.47</ele>
        <time>2022-04-28T18:44:30Z</time>
      </trkpt>
      <trkpt lat="5.0585493911" lon="-73.4192276839">
        <ele>1814.68</ele>
        <time>2022-04-28T18:44:40Z</time>
      </trkpt>
      <trkpt lat="5.0585773028" lon="-73.4191928152">
        <ele>1814.92</ele>
        <time>2022-04-28T18:44:43Z</time>
      </trkpt>
      <trkpt lat="5.0586585235" lon="-73.4191419370">
        <ele>1815.86</ele>
        <time>2022-04-28T18:44:59Z</time>
      </trkpt>
      <trkpt lat="5.0586641394" lon="-73.4191115946">
        <ele>1816.04</ele>
        <time>2022-04-28T18:45:42Z</time>
      </trkpt>
      <trkpt lat="5.0586665701" lon="-73.4191291966">
        <ele>1816.09</ele>
        <time>2022-04-28T18:46:18Z</time>
      </trkpt>
      <trkpt lat="5.0586797297" lon="-73.4191110916">
        <ele>1816.15</ele>
        <time>2022-04-28T18:46:40Z</time>
      </trkpt>
      <trkpt lat="5.0587233994" lon="-73.4189106803">
        <ele>1817.25</ele>
        <time>2022-04-28T18:46:56Z</time>
      </trkpt>
      <trkpt lat="5.0587343797" lon="-73.4188182279">
        <ele>1817.92</ele>
        <time>2022-04-28T18:47:03Z</time>
      </trkpt>
      <trkpt lat="5.0587518141" lon="-73.4187984467">
        <ele>1818.16</ele>
        <time>2022-04-28T18:47:05Z</time>
      </trkpt>
      <trkpt lat="5.0587617047" lon="-73.4187767375">
        <ele>1818.36</ele>
        <time>2022-04-28T18:47:07Z</time>
      </trkpt>
      <trkpt lat="5.0587587710" lon="-73.4186711255">
        <ele>1818.92</ele>
        <time>2022-04-28T18:47:15Z</time>
      </trkpt>
      <trkpt lat="5.0587501377" lon="-73.4186305571">
        <ele>1819.42</ele>
        <time>2022-04-28T18:47:18Z</time>
      </trkpt>
      <trkpt lat="5.0587657280" lon="-73.4183998872">
        <ele>1821.27</ele>
        <time>2022-04-28T18:47:34Z</time>
      </trkpt>
      <trkpt lat="5.0588185340" lon="-73.4181161597">
        <ele>1823.27</ele>
        <time>2022-04-28T18:47:52Z</time>
      </trkpt>
      <trkpt lat="5.0588562526" lon="-73.4178621043">
        <ele>1825.93</ele>
        <time>2022-04-28T18:48:09Z</time>
      </trkpt>
      <trkpt lat="5.0587883592" lon="-73.4177040216">
        <ele>1827.69</ele>
        <time>2022-04-28T18:48:22Z</time>
      </trkpt>
      <trkpt lat="5.0587591901" lon="-73.4176763613">
        <ele>1828.15</ele>
        <time>2022-04-28T18:48:25Z</time>
      </trkpt>
      <trkpt lat="5.0586872734" lon="-73.4176373854">
        <ele>1828.21</ele>
        <time>2022-04-28T18:48:30Z</time>
      </trkpt>
      <trkpt lat="5.0584682543" lon="-73.4176211245">
        <ele>1828.87</ele>
        <time>2022-04-28T18:48:43Z</time>
      </trkpt>
      <trkpt lat="5.0581630692" lon="-73.4178047720">
        <ele>1830.08</ele>
        <time>2022-04-28T18:49:01Z</time>
      </trkpt>
      <trkpt lat="5.0580048189" lon="-73.4179113060">
        <ele>1831.22</ele>
        <time>2022-04-28T18:49:11Z</time>
      </trkpt>
      <trkpt lat="5.0579126179" lon="-73.4179627709">
        <ele>1831.96</ele>
        <time>2022-04-28T18:49:16Z</time>
      </trkpt>
      <trkpt lat="5.0576588977" lon="-73.4180658683">
        <ele>1833.87</ele>
        <time>2022-04-28T18:49:30Z</time>
      </trkpt>
      <trkpt lat="5.0573682133" lon="-73.4179913532">
        <ele>1835.21</ele>
        <time>2022-04-28T18:49:44Z</time>
      </trkpt>
      <trkpt lat="5.0570658781" lon="-73.4178170934">
        <ele>1836.96</ele>
        <time>2022-04-28T18:50:00Z</time>
      </trkpt>
      <trkpt lat="5.0568649638" lon="-73.4176461864">
        <ele>1838.38</ele>
        <time>2022-04-28T18:50:13Z</time>
      </trkpt>
      <trkpt lat="5.0566543266" lon="-73.4175053705">
        <ele>1839.11</ele>
        <time>2022-04-28T18:50:25Z</time>
      </trkpt>
      <trkpt lat="5.0564401690" lon="-73.4174099006">
        <ele>1840.76</ele>
        <time>2022-04-28T18:50:38Z</time>
      </trkpt>
      <trkpt lat="5.0564215612" lon="-73.4174077213">
        <ele>1840.88</ele>
        <time>2022-04-28T18:50:39Z</time>
      </trkpt>
      <trkpt lat="5.0563426875" lon="-73.4171563480">
        <ele>1842.89</ele>
        <time>2022-04-28T18:50:51Z</time>
      </trkpt>
      <trkpt lat="5.0564722717" lon="-73.4169070702">
        <ele>1844.23</ele>
        <time>2022-04-28T18:51:05Z</time>
      </trkpt>
      <trkpt lat="5.0565440208" lon="-73.4168706089">
        <ele>1844.76</ele>
        <time>2022-04-28T18:51:09Z</time>
      </trkpt>
      <trkpt lat="5.0567268301" lon="-73.4166718740">
        <ele>1847.15</ele>
        <time>2022-04-28T18:51:26Z</time>
      </trkpt>
      <trkpt lat="5.0568068773" lon="-73.4165749792">
        <ele>1848.06</ele>
        <time>2022-04-28T18:51:33Z</time>
      </trkpt>
      <trkpt lat="5.0568848290" lon="-73.4165261127">
        <ele>1848.87</ele>
        <time>2022-04-28T18:51:38Z</time>
      </trkpt>
      <trkpt lat="5.0570191909" lon="-73.4163471591">
        <ele>1850.94</ele>
        <time>2022-04-28T18:51:53Z</time>
      </trkpt>
      <trkpt lat="5.0570748467" lon="-73.4162465762">
        <ele>1852.15</ele>
        <time>2022-04-28T18:52:01Z</time>
      </trkpt>
      <trkpt lat="5.0571937021" lon="-73.4159937780">
        <ele>1853.58</ele>
        <time>2022-04-28T18:52:19Z</time>
      </trkpt>
      <trkpt lat="5.0570985675" lon="-73.4157904331">
        <ele>1855.76</ele>
        <time>2022-04-28T18:52:33Z</time>
      </trkpt>
      <trkpt lat="5.0569038559" lon="-73.4156190231">
        <ele>1857.81</ele>
        <time>2022-04-28T18:52:49Z</time>
      </trkpt>
      <trkpt lat="5.0567300990" lon="-73.4154992457">
        <ele>1859.24</ele>
        <time>2022-04-28T18:53:01Z</time>
      </trkpt>
      <trkpt lat="5.0565461162" lon="-73.4153425042">
        <ele>1860.90</ele>
        <time>2022-04-28T18:53:16Z</time>
      </trkpt>
      <trkpt lat="5.0563297793" lon="-73.4152211342">
        <ele>1862.66</ele>
        <time>2022-04-28T18:53:32Z</time>
      </trkpt>
      <trkpt lat="5.0561072398" lon="-73.4150810726">
        <ele>1864.49</ele>
        <time>2022-04-28T18:53:48Z</time>
      </trkpt>
      <trkpt lat="5.0558763184" lon="-73.4150406718">
        <ele>1865.89</ele>
        <time>2022-04-28T18:54:01Z</time>
      </trkpt>
      <trkpt lat="5.0556062534" lon="-73.4150625486">
        <ele>1867.06</ele>
        <time>2022-04-28T18:54:15Z</time>
      </trkpt>
      <trkpt lat="5.0553941075" lon="-73.4151844215">
        <ele>1867.51</ele>
        <time>2022-04-28T18:54:30Z</time>
      </trkpt>
      <trkpt lat="5.0551543012" lon="-73.4154095594">
        <ele>1869.05</ele>
        <time>2022-04-28T18:54:45Z</time>
      </trkpt>
      <trkpt lat="5.0549591705" lon="-73.4156853240">
        <ele>1870.70</ele>
        <time>2022-04-28T18:55:00Z</time>
      </trkpt>
      <trkpt lat="5.0549191888" lon="-73.4159607533">
        <ele>1872.67</ele>
        <time>2022-04-28T18:55:15Z</time>
      </trkpt>
      <trkpt lat="5.0549025089" lon="-73.4161604103">
        <ele>1874.49</ele>
        <time>2022-04-28T18:55:30Z</time>
      </trkpt>
      <trkpt lat="5.0548552349" lon="-73.4163770825">
        <ele>1876.08</ele>
        <time>2022-04-28T18:55:43Z</time>
      </trkpt>
      <trkpt lat="5.0547256507" lon="-73.4166057408">
        <ele>1878.30</ele>
        <time>2022-04-28T18:55:58Z</time>
      </trkpt>
      <trkpt lat="5.0545291789" lon="-73.4167871252">
        <ele>1880.19</ele>
        <time>2022-04-28T18:56:13Z</time>
      </trkpt>
      <trkpt lat="5.0544826593" lon="-73.4168538451">
        <ele>1881.50</ele>
        <time>2022-04-28T18:56:19Z</time>
      </trkpt>
      <trkpt lat="5.0544643030" lon="-73.4168674238">
        <ele>1881.97</ele>
        <time>2022-04-28T18:56:21Z</time>
      </trkpt>
      <trkpt lat="5.0544228964" lon="-73.4168887977">
        <ele>1882.45</ele>
        <time>2022-04-28T18:56:24Z</time>
      </trkpt>
      <trkpt lat="5.0543843396" lon="-73.4169328865">
        <ele>1882.84</ele>
        <time>2022-04-28T18:56:28Z</time>
      </trkpt>
      <trkpt lat="5.0543490518" lon="-73.4169683419">
        <ele>1883.09</ele>
        <time>2022-04-28T18:56:32Z</time>
      </trkpt>
      <trkpt lat="5.0541732833" lon="-73.4171022009">
        <ele>1884.64</ele>
        <time>2022-04-28T18:56:50Z</time>
      </trkpt>
      <trkpt lat="5.0539706927" lon="-73.4172217268">
        <ele>1886.65</ele>
        <time>2022-04-28T18:57:07Z</time>
      </trkpt>
      <trkpt lat="5.0538775697" lon="-73.4172819089">
        <ele>1887.70</ele>
        <time>2022-04-28T18:57:16Z</time>
      </trkpt>
      <trkpt lat="5.0538090896" lon="-73.4172866866">
        <ele>1888.31</ele>
        <time>2022-04-28T18:57:21Z</time>
      </trkpt>
      <trkpt lat="5.0537867937" lon="-73.4172959067">
        <ele>1888.52</ele>
        <time>2022-04-28T18:57:23Z</time>
      </trkpt>
      <trkpt lat="5.0536600593" lon="-73.4173727687">
        <ele>1889.93</ele>
        <time>2022-04-28T18:57:36Z</time>
      </trkpt>
      <trkpt lat="5.0536423735" lon="-73.4173884429">
        <ele>1890.20</ele>
        <time>2022-04-28T18:57:38Z</time>
      </trkpt>
      <trkpt lat="5.0535629131" lon="-73.4174244851">
        <ele>1891.17</ele>
        <time>2022-04-28T18:57:45Z</time>
      </trkpt>
      <trkpt lat="5.0533894915" lon="-73.4175278340">
        <ele>1893.38</ele>
        <time>2022-04-28T18:58:00Z</time>
      </trkpt>
      <trkpt lat="5.0531900022" lon="-73.4176326077">
        <ele>1895.20</ele>
        <time>2022-04-28T18:58:17Z</time>
      </trkpt>
      <trkpt lat="5.0529993139" lon="-73.4176890180">
        <ele>1896.92</ele>
        <time>2022-04-28T18:58:31Z</time>
      </trkpt>
      <trkpt lat="5.0527518801" lon="-73.4178726654">
        <ele>1898.88</ele>
        <time>2022-04-28T18:58:49Z</time>
      </trkpt>
      <trkpt lat="5.0524736010" lon="-73.4180260543">
        <ele>1901.43</ele>
        <time>2022-04-28T18:59:09Z</time>
      </trkpt>
      <trkpt lat="5.0522465352" lon="-73.4181577340">
        <ele>1903.26</ele>
        <time>2022-04-28T18:59:27Z</time>
      </trkpt>
      <trkpt lat="5.0520552602" lon="-73.4182640165">
        <ele>1904.76</ele>
        <time>2022-04-28T18:59:42Z</time>
      </trkpt>
      <trkpt lat="5.0518474728" lon="-73.4183980431">
        <ele>1906.68</ele>
        <time>2022-04-28T18:59:58Z</time>
      </trkpt>
      <trkpt lat="5.0516318902" lon="-73.4185433015">
        <ele>1908.97</ele>
        <time>2022-04-28T19:00:13Z</time>
      </trkpt>
      <trkpt lat="5.0515093468" lon="-73.4186173137">
        <ele>1909.61</ele>
        <time>2022-04-28T19:00:23Z</time>
      </trkpt>
      <trkpt lat="5.0514220912" lon="-73.4186850395">
        <ele>1910.44</ele>
        <time>2022-04-28T19:00:29Z</time>
      </trkpt>
      <trkpt lat="5.0512329955" lon="-73.4188329801">
        <ele>1911.88</ele>
        <time>2022-04-28T19:00:42Z</time>
      </trkpt>
      <trkpt lat="5.0510340929" lon="-73.4188883845">
        <ele>1913.54</ele>
        <time>2022-04-28T19:00:53Z</time>
      </trkpt>
      <trkpt lat="5.0509143993" lon="-73.4189445432">
        <ele>1914.51</ele>
        <time>2022-04-28T19:01:00Z</time>
      </trkpt>
      <trkpt lat="5.0507973041" lon="-73.4189644083">
        <ele>1914.92</ele>
        <time>2022-04-28T19:01:06Z</time>
      </trkpt>
      <trkpt lat="5.0507582445" lon="-73.4189410228">
        <ele>1915.35</ele>
        <time>2022-04-28T19:01:10Z</time>
      </trkpt>
      <trkpt lat="5.0505927019" lon="-73.4188653342">
        <ele>1915.83</ele>
        <time>2022-04-28T19:01:17Z</time>
      </trkpt>
      <trkpt lat="5.0502979942" lon="-73.4187945072">
        <ele>1914.76</ele>
        <time>2022-04-28T19:01:22Z</time>
      </trkpt>
      <trkpt lat="5.0501739420" lon="-73.4187240992">
        <ele>1913.87</ele>
        <time>2022-04-28T19:01:24Z</time>
      </trkpt>
      <trkpt lat="5.0498458743" lon="-73.4185023978">
        <ele>1909.91</ele>
        <time>2022-04-28T19:01:29Z</time>
      </trkpt>
      <trkpt lat="5.0497175474" lon="-73.4182588197">
        <ele>1906.05</ele>
        <time>2022-04-28T19:01:33Z</time>
      </trkpt>
      <trkpt lat="5.0497513264" lon="-73.4181527048">
        <ele>1904.45</ele>
        <time>2022-04-28T19:01:35Z</time>
      </trkpt>
      <trkpt lat="5.0498668291" lon="-73.4179366194">
        <ele>1901.94</ele>
        <time>2022-04-28T19:01:40Z</time>
      </trkpt>
      <trkpt lat="5.0499188807" lon="-73.4178296663">
        <ele>1900.56</ele>
        <time>2022-04-28T19:01:49Z</time>
      </trkpt>
      <trkpt lat="5.0498999376" lon="-73.4178126510">
        <ele>1900.13</ele>
        <time>2022-04-28T19:02:29Z</time>
      </trkpt>
      <trkpt lat="5.0499063078" lon="-73.4178194404">
        <ele>1900.58</ele>
        <time>2022-04-28T19:03:24Z</time>
      </trkpt>
      <trkpt lat="5.0498972554" lon="-73.4178050235">
        <ele>1900.67</ele>
        <time>2022-04-28T19:04:09Z</time>
      </trkpt>
      <trkpt lat="5.0498850178" lon="-73.4178158361">
        <ele>1901.12</ele>
        <time>2022-04-28T19:04:56Z</time>
      </trkpt>
      <trkpt lat="5.0498923939" lon="-73.4178147465">
        <ele>1901.38</ele>
        <time>2022-04-28T19:05:41Z</time>
      </trkpt>
      <trkpt lat="5.0498852693" lon="-73.4178253077">
        <ele>1901.20</ele>
        <time>2022-04-28T19:06:23Z</time>
      </trkpt>
      <trkpt lat="5.0499145221" lon="-73.4177958034">
        <ele>1901.24</ele>
        <time>2022-04-28T19:06:56Z</time>
      </trkpt>
      <trkpt lat="5.0499084033" lon="-73.4177687299">
        <ele>1901.60</ele>
        <time>2022-04-28T19:07:13Z</time>
      </trkpt>
      <trkpt lat="5.0499221496" lon="-73.4176999982">
        <ele>1901.82</ele>
        <time>2022-04-28T19:07:18Z</time>
      </trkpt>
      <trkpt lat="5.0499441940" lon="-73.4175083879">
        <ele>1903.15</ele>
        <time>2022-04-28T19:07:31Z</time>
      </trkpt>
      <trkpt lat="5.0499517377" lon="-73.4173079766">
        <ele>1906.08</ele>
        <time>2022-04-28T19:07:44Z</time>
      </trkpt>
      <trkpt lat="5.0499020331" lon="-73.4172038734">
        <ele>1907.20</ele>
        <time>2022-04-28T19:07:51Z</time>
      </trkpt>
      <trkpt lat="5.0498378277" lon="-73.4171763808">
        <ele>1907.87</ele>
        <time>2022-04-28T19:07:55Z</time>
      </trkpt>
      <trkpt lat="5.0494678505" lon="-73.4170961659">
        <ele>1909.46</ele>
        <time>2022-04-28T19:08:09Z</time>
      </trkpt>
      <trkpt lat="5.0492559560" lon="-73.4169510752">
        <ele>1909.03</ele>
        <time>2022-04-28T19:08:15Z</time>
      </trkpt>
      <trkpt lat="5.0487192627" lon="-73.4166083392">
        <ele>1907.27</ele>
        <time>2022-04-28T19:08:31Z</time>
      </trkpt>
      <trkpt lat="5.0484005827" lon="-73.4163526073">
        <ele>1906.36</ele>
        <time>2022-04-28T19:08:43Z</time>
      </trkpt>
      <trkpt lat="5.0480539910" lon="-73.4162216820">
        <ele>1907.93</ele>
        <time>2022-04-28T19:08:56Z</time>
      </trkpt>
      <trkpt lat="5.0477786455" lon="-73.4162081033">
        <ele>1907.78</ele>
        <time>2022-04-28T19:09:01Z</time>
      </trkpt>
      <trkpt lat="5.0475379173" lon="-73.4161405452">
        <ele>1907.20</ele>
        <time>2022-04-28T19:09:05Z</time>
      </trkpt>
      <trkpt lat="5.0471195765" lon="-73.4161547106">
        <ele>1906.02</ele>
        <time>2022-04-28T19:09:11Z</time>
      </trkpt>
      <trkpt lat="5.0469362643" lon="-73.4162023198">
        <ele>1905.48</ele>
        <time>2022-04-28T19:09:14Z</time>
      </trkpt>
      <trkpt lat="5.0467694644" lon="-73.4160587378">
        <ele>1904.32</ele>
        <time>2022-04-28T19:09:21Z</time>
      </trkpt>
      <trkpt lat="5.0467773434" lon="-73.4160166606">
        <ele>1904.22</ele>
        <time>2022-04-28T19:09:22Z</time>
      </trkpt>
      <trkpt lat="5.0468255393" lon="-73.4157201089">
        <ele>1904.88</ele>
        <time>2022-04-28T19:09:29Z</time>
      </trkpt>
      <trkpt lat="5.0468779262" lon="-73.4154435899">
        <ele>1905.83</ele>
        <time>2022-04-28T19:09:35Z</time>
      </trkpt>
      <trkpt lat="5.0468847156" lon="-73.4153549932">
        <ele>1905.98</ele>
        <time>2022-04-28T19:09:37Z</time>
      </trkpt>
      <trkpt lat="5.0469454005" lon="-73.4150422644">
        <ele>1906.06</ele>
        <time>2022-04-28T19:09:43Z</time>
      </trkpt>
      <trkpt lat="5.0472581293" lon="-73.4144617338">
        <ele>1905.26</ele>
        <time>2022-04-28T19:09:52Z</time>
      </trkpt>
      <trkpt lat="5.0472783297" lon="-73.4141002223">
        <ele>1903.67</ele>
        <time>2022-04-28T19:09:57Z</time>
      </trkpt>
      <trkpt lat="5.0471252762" lon="-73.4136347752">
        <ele>1901.68</ele>
        <time>2022-04-28T19:10:03Z</time>
      </trkpt>
      <trkpt lat="5.0471191574" lon="-73.4133620281">
        <ele>1900.39</ele>
        <time>2022-04-28T19:10:08Z</time>
      </trkpt>
      <trkpt lat="5.0471407827" lon="-73.4130473714">
        <ele>1900.16</ele>
        <time>2022-04-28T19:10:16Z</time>
      </trkpt>
      <trkpt lat="5.0472511724" lon="-73.4129791427">
        <ele>1900.54</ele>
        <time>2022-04-28T19:10:19Z</time>
      </trkpt>
      <trkpt lat="5.0474198163" lon="-73.4127981775">
        <ele>1901.74</ele>
        <time>2022-04-28T19:10:25Z</time>
      </trkpt>
      <trkpt lat="5.0476421881" lon="-73.4123746399">
        <ele>1903.98</ele>
        <time>2022-04-28T19:10:40Z</time>
      </trkpt>
      <trkpt lat="5.0477234088" lon="-73.4120941814">
        <ele>1905.34</ele>
        <time>2022-04-28T19:10:54Z</time>
      </trkpt>
      <trkpt lat="5.0477613788" lon="-73.4119830374">
        <ele>1905.91</ele>
        <time>2022-04-28T19:11:00Z</time>
      </trkpt>
      <trkpt lat="5.0476716086" lon="-73.4118290618">
        <ele>1907.63</ele>
        <time>2022-04-28T19:11:12Z</time>
      </trkpt>
      <trkpt lat="5.0475980993" lon="-73.4117923491">
        <ele>1908.44</ele>
        <time>2022-04-28T19:11:17Z</time>
      </trkpt>
      <trkpt lat="5.0473970175" lon="-73.4118894115">
        <ele>1910.34</ele>
        <time>2022-04-28T19:11:31Z</time>
      </trkpt>
      <trkpt lat="5.0472686905" lon="-73.4119073488">
        <ele>1911.21</ele>
        <time>2022-04-28T19:11:39Z</time>
      </trkpt>
      <trkpt lat="5.0470221788" lon="-73.4119556285">
        <ele>1913.44</ele>
        <time>2022-04-28T19:11:54Z</time>
      </trkpt>
      <trkpt lat="5.0468055904" lon="-73.4119378589">
        <ele>1914.27</ele>
        <time>2022-04-28T19:12:07Z</time>
      </trkpt>
      <trkpt lat="5.0465550553" lon="-73.4119258728">
        <ele>1915.79</ele>
        <time>2022-04-28T19:12:21Z</time>
      </trkpt>
      <trkpt lat="5.0462862477" lon="-73.4118324146">
        <ele>1917.95</ele>
        <time>2022-04-28T19:12:37Z</time>
      </trkpt>
      <trkpt lat="5.0460351259" lon="-73.4117829613">
        <ele>1920.46</ele>
        <time>2022-04-28T19:12:51Z</time>
      </trkpt>
      <trkpt lat="5.0458498020" lon="-73.4118903335">
        <ele>1922.85</ele>
        <time>2022-04-28T19:13:05Z</time>
      </trkpt>
      <trkpt lat="5.0457612891" lon="-73.4119989630">
        <ele>1923.11</ele>
        <time>2022-04-28T19:13:13Z</time>
      </trkpt>
      <trkpt lat="5.0454949122" lon="-73.4121798445">
        <ele>1925.00</ele>
        <time>2022-04-28T19:13:29Z</time>
      </trkpt>
      <trkpt lat="5.0451897271" lon="-73.4121951833">
        <ele>1925.06</ele>
        <time>2022-04-28T19:13:39Z</time>
      </trkpt>
      <trkpt lat="5.0446905009" lon="-73.4120383579">
        <ele>1924.45</ele>
        <time>2022-04-28T19:13:55Z</time>
      </trkpt>
      <trkpt lat="5.0443398859" lon="-73.4119241126">
        <ele>1924.23</ele>
        <time>2022-04-28T19:14:07Z</time>
      </trkpt>
      <trkpt lat="5.0440654624" lon="-73.4118785150">
        <ele>1926.06</ele>
        <time>2022-04-28T19:14:18Z</time>
      </trkpt>
      <trkpt lat="5.0438782107" lon="-73.4120220132">
        <ele>1928.37</ele>
        <time>2022-04-28T19:14:32Z</time>
      </trkpt>
      <trkpt lat="5.0437184516" lon="-73.4121889807">
        <ele>1930.06</ele>
        <time>2022-04-28T19:14:46Z</time>
      </trkpt>
      <trkpt lat="5.0436738599" lon="-73.4122118633">
        <ele>1930.52</ele>
        <time>2022-04-28T19:14:49Z</time>
      </trkpt>
      <trkpt lat="5.0434488058" lon="-73.4122589696">
        <ele>1932.64</ele>
        <time>2022-04-28T19:15:03Z</time>
      </trkpt>
      <trkpt lat="5.0432714447" lon="-73.4122390207">
        <ele>1935.03</ele>
        <time>2022-04-28T19:15:16Z</time>
      </trkpt>
      <trkpt lat="5.0430038106" lon="-73.4122030623">
        <ele>1935.82</ele>
        <time>2022-04-28T19:15:28Z</time>
      </trkpt>
      <trkpt lat="5.0428039860" lon="-73.4121829458">
        <ele>1937.14</ele>
        <time>2022-04-28T19:15:40Z</time>
      </trkpt>
      <trkpt lat="5.0425614137" lon="-73.4121490829">
        <ele>1938.05</ele>
        <time>2022-04-28T19:15:52Z</time>
      </trkpt>
      <trkpt lat="5.0422753394" lon="-73.4121023957">
        <ele>1937.63</ele>
        <time>2022-04-28T19:16:03Z</time>
      </trkpt>
      <trkpt lat="5.0422371179" lon="-73.4121036530">
        <ele>1937.64</ele>
        <time>2022-04-28T19:16:05Z</time>
      </trkpt>
      <trkpt lat="5.0421708170" lon="-73.4120473266">
        <ele>1937.90</ele>
        <time>2022-04-28T19:16:09Z</time>
      </trkpt>
      <trkpt lat="5.0419647899" lon="-73.4118017368">
        <ele>1939.46</ele>
        <time>2022-04-28T19:16:22Z</time>
      </trkpt>
      <trkpt lat="5.0417642109" lon="-73.4117116313">
        <ele>1942.55</ele>
        <time>2022-04-28T19:16:33Z</time>
      </trkpt>
      <trkpt lat="5.0415618718" lon="-73.4114491101">
        <ele>1943.53</ele>
        <time>2022-04-28T19:16:47Z</time>
      </trkpt>
      <trkpt lat="5.0414982531" lon="-73.4113490302">
        <ele>1943.49</ele>
        <time>2022-04-28T19:16:52Z</time>
      </trkpt>
      <trkpt lat="5.0414371490" lon="-73.4112934582">
        <ele>1943.56</ele>
        <time>2022-04-28T19:16:56Z</time>
      </trkpt>
      <trkpt lat="5.0414017774" lon="-73.4110539872">
        <ele>1945.04</ele>
        <time>2022-04-28T19:17:09Z</time>
      </trkpt>
      <trkpt lat="5.0414192956" lon="-73.4109019395">
        <ele>1946.46</ele>
        <time>2022-04-28T19:17:20Z</time>
      </trkpt>
      <trkpt lat="5.0414744485" lon="-73.4108764585">
        <ele>1946.50</ele>
        <time>2022-04-28T19:17:54Z</time>
      </trkpt>
      <trkpt lat="5.0415029470" lon="-73.4108695854">
        <ele>1946.45</ele>
        <time>2022-04-28T19:18:42Z</time>
      </trkpt>
      <trkpt lat="5.0414928049" lon="-73.4108843375">
        <ele>1946.64</ele>
        <time>2022-04-28T19:19:27Z</time>
      </trkpt>
      <trkpt lat="5.0414876919" lon="-73.4108871035">
        <ele>1946.72</ele>
        <time>2022-04-28T19:20:09Z</time>
      </trkpt>
      <trkpt lat="5.0415190402" lon="-73.4108095709">
        <ele>1947.45</ele>
        <time>2022-04-28T19:20:36Z</time>
      </trkpt>
      <trkpt lat="5.0413988438" lon="-73.4106111713">
        <ele>1948.50</ele>
        <time>2022-04-28T19:20:50Z</time>
      </trkpt>
      <trkpt lat="5.0412519090" lon="-73.4105723631">
        <ele>1948.87</ele>
        <time>2022-04-28T19:20:55Z</time>
      </trkpt>
      <trkpt lat="5.0408903975" lon="-73.4105126001">
        <ele>1948.96</ele>
        <time>2022-04-28T19:21:06Z</time>
      </trkpt>
      <trkpt lat="5.0405661855" lon="-73.4104484785">
        <ele>1949.83</ele>
        <time>2022-04-28T19:21:20Z</time>
      </trkpt>
      <trkpt lat="5.0402476732" lon="-73.4104138613">
        <ele>1949.51</ele>
        <time>2022-04-28T19:21:30Z</time>
      </trkpt>
      <trkpt lat="5.0396530610" lon="-73.4103337303">
        <ele>1947.21</ele>
        <time>2022-04-28T19:21:44Z</time>
      </trkpt>
      <trkpt lat="5.0396033563" lon="-73.4103255160">
        <ele>1947.11</ele>
        <time>2022-04-28T19:21:45Z</time>
      </trkpt>
      <trkpt lat="5.0392721873" lon="-73.4102268610">
        <ele>1946.16</ele>
        <time>2022-04-28T19:21:51Z</time>
      </trkpt>
      <trkpt lat="5.0389542617" lon="-73.4098334983">
        <ele>1943.91</ele>
        <time>2022-04-28T19:21:59Z</time>
      </trkpt>
      <trkpt lat="5.0385985337" lon="-73.4095513634">
        <ele>1940.37</ele>
        <time>2022-04-28T19:22:06Z</time>
      </trkpt>
      <trkpt lat="5.0384723861" lon="-73.4094686341">
        <ele>1938.81</ele>
        <time>2022-04-28T19:22:08Z</time>
      </trkpt>
      <trkpt lat="5.0381407142" lon="-73.4094052669">
        <ele>1934.92</ele>
        <time>2022-04-28T19:22:13Z</time>
      </trkpt>
      <trkpt lat="5.0378609262" lon="-73.4093886707">
        <ele>1931.82</ele>
        <time>2022-04-28T19:22:17Z</time>
      </trkpt>
      <trkpt lat="5.0377963018" lon="-73.4093575738">
        <ele>1931.11</ele>
        <time>2022-04-28T19:22:18Z</time>
      </trkpt>
      <trkpt lat="5.0376656279" lon="-73.4092928655">
        <ele>1929.69</ele>
        <time>2022-04-28T19:22:20Z</time>
      </trkpt>
      <trkpt lat="5.0373979099" lon="-73.4093130659">
        <ele>1925.62</ele>
        <time>2022-04-28T19:22:25Z</time>
      </trkpt>
      <trkpt lat="5.0373499654" lon="-73.4094257187">
        <ele>1923.92</ele>
        <time>2022-04-28T19:22:27Z</time>
      </trkpt>
      <trkpt lat="5.0373053737" lon="-73.4097850509">
        <ele>1920.61</ele>
        <time>2022-04-28T19:22:32Z</time>
      </trkpt>
      <trkpt lat="5.0371603668" lon="-73.4101887234">
        <ele>1917.86</ele>
        <time>2022-04-28T19:22:38Z</time>
      </trkpt>
      <trkpt lat="5.0371204689" lon="-73.4104558546">
        <ele>1916.45</ele>
        <time>2022-04-28T19:22:42Z</time>
      </trkpt>
      <trkpt lat="5.0368411001" lon="-73.4107582737">
        <ele>1915.13</ele>
        <time>2022-04-28T19:22:48Z</time>
      </trkpt>
      <trkpt lat="5.0367789064" lon="-73.4107999317">
        <ele>1914.91</ele>
        <time>2022-04-28T19:22:49Z</time>
      </trkpt>
      <trkpt lat="5.0364719611" lon="-73.4110859223">
        <ele>1913.25</ele>
        <time>2022-04-28T19:22:54Z</time>
      </trkpt>
      <trkpt lat="5.0363784190" lon="-73.4112177696">
        <ele>1912.87</ele>
        <time>2022-04-28T19:22:56Z</time>
      </trkpt>
      <trkpt lat="5.0361873955" lon="-73.4114603419">
        <ele>1911.99</ele>
        <time>2022-04-28T19:23:00Z</time>
      </trkpt>
      <trkpt lat="5.0358032528" lon="-73.4115284868">
        <ele>1910.81</ele>
        <time>2022-04-28T19:23:07Z</time>
      </trkpt>
      <trkpt lat="5.0357189309" lon="-73.4114755969">
        <ele>1910.28</ele>
        <time>2022-04-28T19:23:09Z</time>
      </trkpt>
      <trkpt lat="5.0354360417" lon="-73.4112258162">
        <ele>1908.72</ele>
        <time>2022-04-28T19:23:19Z</time>
      </trkpt>
      <trkpt lat="5.0352317747" lon="-73.4107862692">
        <ele>1907.71</ele>
        <time>2022-04-28T19:23:30Z</time>
      </trkpt>
      <trkpt lat="5.0349964108" lon="-73.4106428549">
        <ele>1908.43</ele>
        <time>2022-04-28T19:23:42Z</time>
      </trkpt>
      <trkpt lat="5.0346803293" lon="-73.4107606206">
        <ele>1908.67</ele>
        <time>2022-04-28T19:23:56Z</time>
      </trkpt>
      <trkpt lat="5.0343194045" lon="-73.4109219722">
        <ele>1909.18</ele>
        <time>2022-04-28T19:24:12Z</time>
      </trkpt>
      <trkpt lat="5.0339959469" lon="-73.4111029375">
        <ele>1911.25</ele>
        <time>2022-04-28T19:24:31Z</time>
      </trkpt>
      <trkpt lat="5.0337632652" lon="-73.4111705795">
        <ele>1913.37</ele>
        <time>2022-04-28T19:24:45Z</time>
      </trkpt>
      <trkpt lat="5.0336600840" lon="-73.4112032689">
        <ele>1914.73</ele>
        <time>2022-04-28T19:24:52Z</time>
      </trkpt>
      <trkpt lat="5.0334466808" lon="-73.4112463519">
        <ele>1916.17</ele>
        <time>2022-04-28T19:25:05Z</time>
      </trkpt>
      <trkpt lat="5.0332903583" lon="-73.4111161809">
        <ele>1916.12</ele>
        <time>2022-04-28T19:25:13Z</time>
      </trkpt>
      <trkpt lat="5.0331895240" lon="-73.4108000994">
        <ele>1915.99</ele>
        <time>2022-04-28T19:25:24Z</time>
      </trkpt>
      <trkpt lat="5.0331220496" lon="-73.4105408471">
        <ele>1917.90</ele>
        <time>2022-04-28T19:25:38Z</time>
      </trkpt>
      <trkpt lat="5.0330648012" lon="-73.4103164636">
        <ele>1919.44</ele>
        <time>2022-04-28T19:25:50Z</time>
      </trkpt>
      <trkpt lat="5.0330831576" lon="-73.4100637492">
        <ele>1920.51</ele>
        <time>2022-04-28T19:26:03Z</time>
      </trkpt>
      <trkpt lat="5.0330436788" lon="-73.4097252879">
        <ele>1920.70</ele>
        <time>2022-04-28T19:26:18Z</time>
      </trkpt>
      <trkpt lat="5.0329290982" lon="-73.4096364398">
        <ele>1920.56</ele>
        <time>2022-04-28T19:26:23Z</time>
      </trkpt>
      <trkpt lat="5.0326039642" lon="-73.4095895849">
        <ele>1920.87</ele>
        <time>2022-04-28T19:26:36Z</time>
      </trkpt>
      <trkpt lat="5.0325371604" lon="-73.4096277226">
        <ele>1921.01</ele>
        <time>2022-04-28T19:26:38Z</time>
      </trkpt>
      <trkpt lat="5.0323547702" lon="-73.4096294828">
        <ele>1921.21</ele>
        <time>2022-04-28T19:26:42Z</time>
      </trkpt>
      <trkpt lat="5.0321184844" lon="-73.4096445702">
        <ele>1920.35</ele>
        <time>2022-04-28T19:26:46Z</time>
      </trkpt>
      <trkpt lat="5.0318320747" lon="-73.4096319973">
        <ele>1919.03</ele>
        <time>2022-04-28T19:26:50Z</time>
      </trkpt>
      <trkpt lat="5.0311707426" lon="-73.4094107151">
        <ele>1915.24</ele>
        <time>2022-04-28T19:26:58Z</time>
      </trkpt>
      <trkpt lat="5.0310137495" lon="-73.4093385469">
        <ele>1914.15</ele>
        <time>2022-04-28T19:27:00Z</time>
      </trkpt>
      <trkpt lat="5.0305485539" lon="-73.4092371259">
        <ele>1910.36</ele>
        <time>2022-04-28T19:27:05Z</time>
      </trkpt>
      <trkpt lat="5.0303531718" lon="-73.4091926180">
        <ele>1909.24</ele>
        <time>2022-04-28T19:27:07Z</time>
      </trkpt>
      <trkpt lat="5.0297883153" lon="-73.4090782888">
        <ele>1905.41</ele>
        <time>2022-04-28T19:27:13Z</time>
      </trkpt>
      <trkpt lat="5.0293133967" lon="-73.4090596810">
        <ele>1902.76</ele>
        <time>2022-04-28T19:27:18Z</time>
      </trkpt>
      <trkpt lat="5.0284764636" lon="-73.4091127384">
        <ele>1898.47</ele>
        <time>2022-04-28T19:27:26Z</time>
      </trkpt>
      <trkpt lat="5.0283871964" lon="-73.4091105592">
        <ele>1896.81</ele>
        <time>2022-04-28T19:27:27Z</time>
      </trkpt>
      <trkpt lat="5.0281328894" lon="-73.4092529677">
        <ele>1894.32</ele>
        <time>2022-04-28T19:27:31Z</time>
      </trkpt>
      <trkpt lat="5.0276240241" lon="-73.4099246096">
        <ele>1890.46</ele>
        <time>2022-04-28T19:27:40Z</time>
      </trkpt>
      <trkpt lat="5.0271278992" lon="-73.4104357380">
        <ele>1887.22</ele>
        <time>2022-04-28T19:27:47Z</time>
      </trkpt>
      <trkpt lat="5.0270040147" lon="-73.4105374105">
        <ele>1886.45</ele>
        <time>2022-04-28T19:27:49Z</time>
      </trkpt>
      <trkpt lat="5.0268846564" lon="-73.4107586090">
        <ele>1884.56</ele>
        <time>2022-04-28T19:27:53Z</time>
      </trkpt>
      <trkpt lat="5.0267743506" lon="-73.4110825695">
        <ele>1884.17</ele>
        <time>2022-04-28T19:28:04Z</time>
      </trkpt>
      <trkpt lat="5.0266599376" lon="-73.4113465995">
        <ele>1886.60</ele>
        <time>2022-04-28T19:28:18Z</time>
      </trkpt>
      <trkpt lat="5.0265507214" lon="-73.4115330130">
        <ele>1888.81</ele>
        <time>2022-04-28T19:28:32Z</time>
      </trkpt>
      <trkpt lat="5.0264929701" lon="-73.4116173349">
        <ele>1889.99</ele>
        <time>2022-04-28T19:28:40Z</time>
      </trkpt>
      <trkpt lat="5.0264586881" lon="-73.4116903413">
        <ele>1890.92</ele>
        <time>2022-04-28T19:28:47Z</time>
      </trkpt>
      <trkpt lat="5.0264039543" lon="-73.4117478412">
        <ele>1891.75</ele>
        <time>2022-04-28T19:28:53Z</time>
      </trkpt>
      <trkpt lat="5.0263454486" lon="-73.4118631762">
        <ele>1893.14</ele>
        <time>2022-04-28T19:29:04Z</time>
      </trkpt>
      <trkpt lat="5.0262515713" lon="-73.4120502602">
        <ele>1895.02</ele>
        <time>2022-04-28T19:29:19Z</time>
      </trkpt>
      <trkpt lat="5.0262368191" lon="-73.4121806826">
        <ele>1896.61</ele>
        <time>2022-04-28T19:29:29Z</time>
      </trkpt>
      <trkpt lat="5.0262904633" lon="-73.4122722130">
        <ele>1897.87</ele>
        <time>2022-04-28T19:29:37Z</time>
      </trkpt>
      <trkpt lat="5.0264435168" lon="-73.4124232549">
        <ele>1899.37</ele>
        <time>2022-04-28T19:29:52Z</time>
      </trkpt>
      <trkpt lat="5.0265644677" lon="-73.4125518333">
        <ele>1901.19</ele>
        <time>2022-04-28T19:30:05Z</time>
      </trkpt>
      <trkpt lat="5.0266471971" lon="-73.4126773104">
        <ele>1902.66</ele>
        <time>2022-04-28T19:30:17Z</time>
      </trkpt>
      <trkpt lat="5.0267368834" lon="-73.4128287714">
        <ele>1905.00</ele>
        <time>2022-04-28T19:30:31Z</time>
      </trkpt>
      <trkpt lat="5.0267446786" lon="-73.4128412604">
        <ele>1905.14</ele>
        <time>2022-04-28T19:30:32Z</time>
      </trkpt>
      <trkpt lat="5.0267371349" lon="-73.4129707608">
        <ele>1907.72</ele>
        <time>2022-04-28T19:30:46Z</time>
      </trkpt>
      <trkpt lat="5.0266444311" lon="-73.4130517300">
        <ele>1908.79</ele>
        <time>2022-04-28T19:30:55Z</time>
      </trkpt>
      <trkpt lat="5.0266124960" lon="-73.4130930528">
        <ele>1909.12</ele>
        <time>2022-04-28T19:30:59Z</time>
      </trkpt>
      <trkpt lat="5.0265242346" lon="-73.4131399076">
        <ele>1909.68</ele>
        <time>2022-04-28T19:31:05Z</time>
      </trkpt>
      <trkpt lat="5.0263554230" lon="-73.4131807275">
        <ele>1910.94</ele>
        <time>2022-04-28T19:31:16Z</time>
      </trkpt>
      <trkpt lat="5.0262530800" lon="-73.4131884389">
        <ele>1912.12</ele>
        <time>2022-04-28T19:31:23Z</time>
      </trkpt>
      <trkpt lat="5.0260183867" lon="-73.4132670611">
        <ele>1915.21</ele>
        <time>2022-04-28T19:31:38Z</time>
      </trkpt>
      <trkpt lat="5.0259887148" lon="-73.4132642951">
        <ele>1915.53</ele>
        <time>2022-04-28T19:31:40Z</time>
      </trkpt>
      <trkpt lat="5.0258816779" lon="-73.4132888541">
        <ele>1916.85</ele>
        <time>2022-04-28T19:31:49Z</time>
      </trkpt>
      <trkpt lat="5.0256214198" lon="-73.4132755268">
        <ele>1919.14</ele>
        <time>2022-04-28T19:32:06Z</time>
      </trkpt>
      <trkpt lat="5.0255793426" lon="-73.4132536501">
        <ele>1919.44</ele>
        <time>2022-04-28T19:32:09Z</time>
      </trkpt>
      <trkpt lat="5.0253760815" lon="-73.4131827392">
        <ele>1921.60</ele>
        <time>2022-04-28T19:32:23Z</time>
      </trkpt>
      <trkpt lat="5.0251465850" lon="-73.4131668136">
        <ele>1924.58</ele>
        <time>2022-04-28T19:32:38Z</time>
      </trkpt>
      <trkpt lat="5.0249879155" lon="-73.4132026881">
        <ele>1926.11</ele>
        <time>2022-04-28T19:32:49Z</time>
      </trkpt>
      <trkpt lat="5.0249070302" lon="-73.4132632054">
        <ele>1927.31</ele>
        <time>2022-04-28T19:32:58Z</time>
      </trkpt>
      <trkpt lat="5.0247683935" lon="-73.4133309312">
        <ele>1928.92</ele>
        <time>2022-04-28T19:33:11Z</time>
      </trkpt>
      <trkpt lat="5.0247517973" lon="-73.4133431688">
        <ele>1929.26</ele>
        <time>2022-04-28T19:33:13Z</time>
      </trkpt>
      <trkpt lat="5.0247089658" lon="-73.4133993275">
        <ele>1930.45</ele>
        <time>2022-04-28T19:33:19Z</time>
      </trkpt>
      <trkpt lat="5.0246619433" lon="-73.4134771116">
        <ele>1931.66</ele>
        <time>2022-04-28T19:33:27Z</time>
      </trkpt>
      <trkpt lat="5.0246114843" lon="-73.4135973919">
        <ele>1933.31</ele>
        <time>2022-04-28T19:33:39Z</time>
      </trkpt>
      <trkpt lat="5.0246346183" lon="-73.4137783572">
        <ele>1936.38</ele>
        <time>2022-04-28T19:33:57Z</time>
      </trkpt>
      <trkpt lat="5.0246094726" lon="-73.4138373658">
        <ele>1937.62</ele>
        <time>2022-04-28T19:34:03Z</time>
      </trkpt>
      <trkpt lat="5.0245802198" lon="-73.4138733242">
        <ele>1938.20</ele>
        <time>2022-04-28T19:34:06Z</time>
      </trkpt>
      <trkpt lat="5.0245511346" lon="-73.4139027447">
        <ele>1938.99</ele>
        <time>2022-04-28T19:34:09Z</time>
      </trkpt>
      <trkpt lat="5.0245454349" lon="-73.4139394574">
        <ele>1939.53</ele>
        <time>2022-04-28T19:34:12Z</time>
      </trkpt>
      <trkpt lat="5.0245140027" lon="-73.4139786847">
        <ele>1940.14</ele>
        <time>2022-04-28T19:34:16Z</time>
      </trkpt>
      <trkpt lat="5.0244965684" lon="-73.4140063450">
        <ele>1940.56</ele>
        <time>2022-04-28T19:34:19Z</time>
      </trkpt>
      <trkpt lat="5.0244433433" lon="-73.4141828679">
        <ele>1941.87</ele>
        <time>2022-04-28T19:34:33Z</time>
      </trkpt>
      <trkpt lat="5.0244943891" lon="-73.4143647552">
        <ele>1943.07</ele>
        <time>2022-04-28T19:34:47Z</time>
      </trkpt>
      <trkpt lat="5.0245592650" lon="-73.4145678487">
        <ele>1945.86</ele>
        <time>2022-04-28T19:34:59Z</time>
      </trkpt>
      <trkpt lat="5.0246036053" lon="-73.4146324731">
        <ele>1947.43</ele>
        <time>2022-04-28T19:35:04Z</time>
      </trkpt>
      <trkpt lat="5.0246572495" lon="-73.4146856144">
        <ele>1948.46</ele>
        <time>2022-04-28T19:35:09Z</time>
      </trkpt>
      <trkpt lat="5.0247533061" lon="-73.4147066530">
        <ele>1949.25</ele>
        <time>2022-04-28T19:35:15Z</time>
      </trkpt>
      <trkpt lat="5.0249503646" lon="-73.4147956688">
        <ele>1950.86</ele>
        <time>2022-04-28T19:35:28Z</time>
      </trkpt>
      <trkpt lat="5.0251116324" lon="-73.4150336310">
        <ele>1952.13</ele>
        <time>2022-04-28T19:35:44Z</time>
      </trkpt>
      <trkpt lat="5.0251663662" lon="-73.4153803065">
        <ele>1952.73</ele>
        <time>2022-04-28T19:36:01Z</time>
      </trkpt>
      <trkpt lat="5.0251202658" lon="-73.4157260600">
        <ele>1953.86</ele>
        <time>2022-04-28T19:36:16Z</time>
      </trkpt>
      <trkpt lat="5.0249346904" lon="-73.4160828777">
        <ele>1954.17</ele>
        <time>2022-04-28T19:36:31Z</time>
      </trkpt>
      <trkpt lat="5.0247509591" lon="-73.4163495060">
        <ele>1955.22</ele>
        <time>2022-04-28T19:36:44Z</time>
      </trkpt>
      <trkpt lat="5.0243917946" lon="-73.4164552856">
        <ele>1956.39</ele>
        <time>2022-04-28T19:36:58Z</time>
      </trkpt>
      <trkpt lat="5.0240030419" lon="-73.4163744841">
        <ele>1957.47</ele>
        <time>2022-04-28T19:37:12Z</time>
      </trkpt>
      <trkpt lat="5.0238916464" lon="-73.4162853844">
        <ele>1957.35</ele>
        <time>2022-04-28T19:37:17Z</time>
      </trkpt>
      <trkpt lat="5.0236225035" lon="-73.4165287111">
        <ele>1956.83</ele>
        <time>2022-04-28T19:37:25Z</time>
      </trkpt>
      <trkpt lat="5.0236112718" lon="-73.4165976103">
        <ele>1956.62</ele>
        <time>2022-04-28T19:37:26Z</time>
      </trkpt>
      <trkpt lat="5.0232988782" lon="-73.4173865151">
        <ele>1953.16</ele>
        <time>2022-04-28T19:37:36Z</time>
      </trkpt>
      <trkpt lat="5.0232884847" lon="-73.4178605117">
        <ele>1951.71</ele>
        <time>2022-04-28T19:37:41Z</time>
      </trkpt>
      <trkpt lat="5.0232127961" lon="-73.4184983745">
        <ele>1948.35</ele>
        <time>2022-04-28T19:37:47Z</time>
      </trkpt>
      <trkpt lat="5.0229369476" lon="-73.4189608041">
        <ele>1945.08</ele>
        <time>2022-04-28T19:37:52Z</time>
      </trkpt>
      <trkpt lat="5.0224449299" lon="-73.4193679132">
        <ele>1940.97</ele>
        <time>2022-04-28T19:37:58Z</time>
      </trkpt>
      <trkpt lat="5.0222099014" lon="-73.4195010178">
        <ele>1939.67</ele>
        <time>2022-04-28T19:38:01Z</time>
      </trkpt>
      <trkpt lat="5.0220683310" lon="-73.4197445121">
        <ele>1938.73</ele>
        <time>2022-04-28T19:38:05Z</time>
      </trkpt>
      <trkpt lat="5.0220418442" lon="-73.4201080352">
        <ele>1937.37</ele>
        <time>2022-04-28T19:38:10Z</time>
      </trkpt>
      <trkpt lat="5.0221823249" lon="-73.4204849694">
        <ele>1936.02</ele>
        <time>2022-04-28T19:38:15Z</time>
      </trkpt>
      <trkpt lat="5.0222658925" lon="-73.4209681861">
        <ele>1934.85</ele>
        <time>2022-04-28T19:38:21Z</time>
      </trkpt>
      <trkpt lat="5.0224025175" lon="-73.4212842677">
        <ele>1933.59</ele>
        <time>2022-04-28T19:38:26Z</time>
      </trkpt>
      <trkpt lat="5.0224616099" lon="-73.4214367345">
        <ele>1932.60</ele>
        <time>2022-04-28T19:38:29Z</time>
      </trkpt>
      <trkpt lat="5.0225056987" lon="-73.4215299413">
        <ele>1932.12</ele>
        <time>2022-04-28T19:38:31Z</time>
      </trkpt>
      <trkpt lat="5.0226176810" lon="-73.4218956437">
        <ele>1931.35</ele>
        <time>2022-04-28T19:38:43Z</time>
      </trkpt>
      <trkpt lat="5.0226264820" lon="-73.4221738391">
        <ele>1932.02</ele>
        <time>2022-04-28T19:38:55Z</time>
      </trkpt>
      <trkpt lat="5.0226005819" lon="-73.4222781099">
        <ele>1932.24</ele>
        <time>2022-04-28T19:39:00Z</time>
      </trkpt>
      <trkpt lat="5.0225943793" lon="-73.4225298185">
        <ele>1933.73</ele>
        <time>2022-04-28T19:39:12Z</time>
      </trkpt>
      <trkpt lat="5.0225864165" lon="-73.4227182437">
        <ele>1934.75</ele>
        <time>2022-04-28T19:39:21Z</time>
      </trkpt>
      <trkpt lat="5.0226118136" lon="-73.4229449742">
        <ele>1936.59</ele>
        <time>2022-04-28T19:39:33Z</time>
      </trkpt>
      <trkpt lat="5.0226108916" lon="-73.4230064973">
        <ele>1937.05</ele>
        <time>2022-04-28T19:39:36Z</time>
      </trkpt>
      <trkpt lat="5.0225817226" lon="-73.4230855387">
        <ele>1937.67</ele>
        <time>2022-04-28T19:39:40Z</time>
      </trkpt>
      <trkpt lat="5.0223316066" lon="-73.4232317191">
        <ele>1938.99</ele>
        <time>2022-04-28T19:39:55Z</time>
      </trkpt>
      <trkpt lat="5.0221426785" lon="-73.4233332239">
        <ele>1941.53</ele>
        <time>2022-04-28T19:40:08Z</time>
      </trkpt>
      <trkpt lat="5.0220505614" lon="-73.4235327132">
        <ele>1943.52</ele>
        <time>2022-04-28T19:40:22Z</time>
      </trkpt>
      <trkpt lat="5.0220120046" lon="-73.4236923885">
        <ele>1944.69</ele>
        <time>2022-04-28T19:40:33Z</time>
      </trkpt>
      <trkpt lat="5.0221623760" lon="-73.4239938017">
        <ele>1944.43</ele>
        <time>2022-04-28T19:40:46Z</time>
      </trkpt>
      <trkpt lat="5.0224088039" lon="-73.4242651239">
        <ele>1944.80</ele>
        <time>2022-04-28T19:41:00Z</time>
      </trkpt>
      <trkpt lat="5.0227375422" lon="-73.4245375358">
        <ele>1944.64</ele>
        <time>2022-04-28T19:41:15Z</time>
      </trkpt>
      <trkpt lat="5.0227799546" lon="-73.4247736540">
        <ele>1946.17</ele>
        <time>2022-04-28T19:41:28Z</time>
      </trkpt>
      <trkpt lat="5.0226693973" lon="-73.4249838721">
        <ele>1949.06</ele>
        <time>2022-04-28T19:41:42Z</time>
      </trkpt>
      <trkpt lat="5.0225117337" lon="-73.4251498338">
        <ele>1951.15</ele>
        <time>2022-04-28T19:41:57Z</time>
      </trkpt>
      <trkpt lat="5.0225081295" lon="-73.4251570422">
        <ele>1951.23</ele>
        <time>2022-04-28T19:41:58Z</time>
      </trkpt>
      <trkpt lat="5.0226137415" lon="-73.4253225848">
        <ele>1953.13</ele>
        <time>2022-04-28T19:42:13Z</time>
      </trkpt>
      <trkpt lat="5.0228716526" lon="-73.4254374169">
        <ele>1954.59</ele>
        <time>2022-04-28T19:42:29Z</time>
      </trkpt>
      <trkpt lat="5.0229434017" lon="-73.4254649095">
        <ele>1955.11</ele>
        <time>2022-04-28T19:42:33Z</time>
      </trkpt>
      <trkpt lat="5.0231583975" lon="-73.4256726131">
        <ele>1956.03</ele>
        <time>2022-04-28T19:42:47Z</time>
      </trkpt>
      <trkpt lat="5.0231785141" lon="-73.4258016944">
        <ele>1957.16</ele>
        <time>2022-04-28T19:42:55Z</time>
      </trkpt>
      <trkpt lat="5.0231716409" lon="-73.4258365631">
        <ele>1957.66</ele>
        <time>2022-04-28T19:42:58Z</time>
      </trkpt>
      <trkpt lat="5.0231623370" lon="-73.4259291831">
        <ele>1958.03</ele>
        <time>2022-04-28T19:43:04Z</time>
      </trkpt>
      <trkpt lat="5.0234207511" lon="-73.4261160996">
        <ele>1958.85</ele>
        <time>2022-04-28T19:43:16Z</time>
      </trkpt>
      <trkpt lat="5.0234712102" lon="-73.4261402395">
        <ele>1958.80</ele>
        <time>2022-04-28T19:43:17Z</time>
      </trkpt>
      <trkpt lat="5.0239650719" lon="-73.4264658764">
        <ele>1957.28</ele>
        <time>2022-04-28T19:43:25Z</time>
      </trkpt>
      <trkpt lat="5.0242536608" lon="-73.4266082011">
        <ele>1956.82</ele>
        <time>2022-04-28T19:43:29Z</time>
      </trkpt>
      <trkpt lat="5.0246776175" lon="-73.4268288966">
        <ele>1954.08</ele>
        <time>2022-04-28T19:43:35Z</time>
      </trkpt>
      <trkpt lat="5.0248157512" lon="-73.4269741550">
        <ele>1952.80</ele>
        <time>2022-04-28T19:43:37Z</time>
      </trkpt>
      <trkpt lat="5.0251462497" lon="-73.4275204036">
        <ele>1948.98</ele>
        <time>2022-04-28T19:43:46Z</time>
      </trkpt>
      <trkpt lat="5.0252076052" lon="-73.4276488144">
        <ele>1948.13</ele>
        <time>2022-04-28T19:43:48Z</time>
      </trkpt>
      <trkpt lat="5.0252381153" lon="-73.4279660694">
        <ele>1947.28</ele>
        <time>2022-04-28T19:43:52Z</time>
      </trkpt>
      <trkpt lat="5.0251655281" lon="-73.4282875992">
        <ele>1946.37</ele>
        <time>2022-04-28T19:43:56Z</time>
      </trkpt>
      <trkpt lat="5.0252052583" lon="-73.4285068698">
        <ele>1942.72</ele>
        <time>2022-04-28T19:44:00Z</time>
      </trkpt>
      <trkpt lat="5.0254138838" lon="-73.4284602664">
        <ele>1939.45</ele>
        <time>2022-04-28T19:44:03Z</time>
      </trkpt>
      <trkpt lat="5.0256820209" lon="-73.4282506350">
        <ele>1936.23</ele>
        <time>2022-04-28T19:44:07Z</time>
      </trkpt>
      <trkpt lat="5.0258318055" lon="-73.4281686600">
        <ele>1934.69</ele>
        <time>2022-04-28T19:44:09Z</time>
      </trkpt>
      <trkpt lat="5.0263747014" lon="-73.4281094838">
        <ele>1930.22</ele>
        <time>2022-04-28T19:44:15Z</time>
      </trkpt>
      <trkpt lat="5.0264762901" lon="-73.4280978329">
        <ele>1929.67</ele>
        <time>2022-04-28T19:44:16Z</time>
      </trkpt>
      <trkpt lat="5.0266875140" lon="-73.4280692507">
        <ele>1928.75</ele>
        <time>2022-04-28T19:44:18Z</time>
      </trkpt>
      <trkpt lat="5.0270268973" lon="-73.4282696620">
        <ele>1925.03</ele>
        <time>2022-04-28T19:44:24Z</time>
      </trkpt>
      <trkpt lat="5.0271040108" lon="-73.4285273217">
        <ele>1921.47</ele>
        <time>2022-04-28T19:44:33Z</time>
      </trkpt>
      <trkpt lat="5.0270235445" lon="-73.4288138989">
        <ele>1921.30</ele>
        <time>2022-04-28T19:44:43Z</time>
      </trkpt>
      <trkpt lat="5.0269600097" lon="-73.4290557168">
        <ele>1923.07</ele>
        <time>2022-04-28T19:44:55Z</time>
      </trkpt>
      <trkpt lat="5.0269631948" lon="-73.4291573893">
        <ele>1925.36</ele>
        <time>2022-04-28T19:45:02Z</time>
      </trkpt>
      <trkpt lat="5.0270041823" lon="-73.4292749874">
        <ele>1927.32</ele>
        <time>2022-04-28T19:45:12Z</time>
      </trkpt>
      <trkpt lat="5.0270361174" lon="-73.4294096846">
        <ele>1928.47</ele>
        <time>2022-04-28T19:45:21Z</time>
      </trkpt>
      <trkpt lat="5.0270546414" lon="-73.4294665977">
        <ele>1928.96</ele>
        <time>2022-04-28T19:45:25Z</time>
      </trkpt>
      <trkpt lat="5.0270569883" lon="-73.4295284562">
        <ele>1930.00</ele>
        <time>2022-04-28T19:45:29Z</time>
      </trkpt>
      <trkpt lat="5.0270815473" lon="-73.4295996185">
        <ele>1930.48</ele>
        <time>2022-04-28T19:45:34Z</time>
      </trkpt>
      <trkpt lat="5.0270185154" lon="-73.4298885427">
        <ele>1931.11</ele>
        <time>2022-04-28T19:45:50Z</time>
      </trkpt>
      <trkpt lat="5.0268229656" lon="-73.4301077295">
        <ele>1932.40</ele>
        <time>2022-04-28T19:46:05Z</time>
      </trkpt>
      <trkpt lat="5.0265723467" lon="-73.4303378128">
        <ele>1932.89</ele>
        <time>2022-04-28T19:46:20Z</time>
      </trkpt>
      <trkpt lat="5.0264373980" lon="-73.4304921236">
        <ele>1932.69</ele>
        <time>2022-04-28T19:46:27Z</time>
      </trkpt>
      <trkpt lat="5.0264883600" lon="-73.4306628630">
        <ele>1932.14</ele>
        <time>2022-04-28T19:46:31Z</time>
      </trkpt>
      <trkpt lat="5.0265862606" lon="-73.4311578143">
        <ele>1929.46</ele>
        <time>2022-04-28T19:46:39Z</time>
      </trkpt>
      <trkpt lat="5.0266891904" lon="-73.4316578787">
        <ele>1924.80</ele>
        <time>2022-04-28T19:46:45Z</time>
      </trkpt>
      <trkpt lat="5.0266572554" lon="-73.4321198054">
        <ele>1921.38</ele>
        <time>2022-04-28T19:46:50Z</time>
      </trkpt>
      <trkpt lat="5.0265888590" lon="-73.4323164448">
        <ele>1920.07</ele>
        <time>2022-04-28T19:46:53Z</time>
      </trkpt>
      <trkpt lat="5.0265254918" lon="-73.4327908605">
        <ele>1917.42</ele>
        <time>2022-04-28T19:47:02Z</time>
      </trkpt>
      <trkpt lat="5.0264047086" lon="-73.4330581594">
        <ele>1916.33</ele>
        <time>2022-04-28T19:47:06Z</time>
      </trkpt>
      <trkpt lat="5.0264683273" lon="-73.4335200861">
        <ele>1913.99</ele>
        <time>2022-04-28T19:47:13Z</time>
      </trkpt>
      <trkpt lat="5.0265087280" lon="-73.4335541166">
        <ele>1913.67</ele>
        <time>2022-04-28T19:47:14Z</time>
      </trkpt>
      <trkpt lat="5.0266740192" lon="-73.4338959306">
        <ele>1912.83</ele>
        <time>2022-04-28T19:47:25Z</time>
      </trkpt>
      <trkpt lat="5.0266579259" lon="-73.4339570347">
        <ele>1912.78</ele>
        <time>2022-04-28T19:47:28Z</time>
      </trkpt>
      <trkpt lat="5.0265953969" lon="-73.4340261016">
        <ele>1913.28</ele>
        <time>2022-04-28T19:47:32Z</time>
      </trkpt>
      <trkpt lat="5.0262700114" lon="-73.4342036303">
        <ele>1914.57</ele>
        <time>2022-04-28T19:47:46Z</time>
      </trkpt>
      <trkpt lat="5.0260470528" lon="-73.4344140999">
        <ele>1915.68</ele>
        <time>2022-04-28T19:47:58Z</time>
      </trkpt>
      <trkpt lat="5.0259901397" lon="-73.4346907027">
        <ele>1915.76</ele>
        <time>2022-04-28T19:48:08Z</time>
      </trkpt>
      <trkpt lat="5.0260173809" lon="-73.4351459239">
        <ele>1915.05</ele>
        <time>2022-04-28T19:48:19Z</time>
      </trkpt>
      <trkpt lat="5.0260297023" lon="-73.4351860732">
        <ele>1914.96</ele>
        <time>2022-04-28T19:48:20Z</time>
      </trkpt>
      <trkpt lat="5.0261154491" lon="-73.4354641847">
        <ele>1914.68</ele>
        <time>2022-04-28T19:48:26Z</time>
      </trkpt>
      <trkpt lat="5.0262229051" lon="-73.4357149713">
        <ele>1914.29</ele>
        <time>2022-04-28T19:48:32Z</time>
      </trkpt>
      <trkpt lat="5.0263377372" lon="-73.4361489862">
        <ele>1914.11</ele>
        <time>2022-04-28T19:48:45Z</time>
      </trkpt>
      <trkpt lat="5.0263968296" lon="-73.4364781436">
        <ele>1917.16</ele>
        <time>2022-04-28T19:48:59Z</time>
      </trkpt>
      <trkpt lat="5.0264072232" lon="-73.4365617950">
        <ele>1917.94</ele>
        <time>2022-04-28T19:49:03Z</time>
      </trkpt>
      <trkpt lat="5.0264170300" lon="-73.4366508946">
        <ele>1918.95</ele>
        <time>2022-04-28T19:49:09Z</time>
      </trkpt>
      <trkpt lat="5.0264425110" lon="-73.4368088935">
        <ele>1920.23</ele>
        <time>2022-04-28T19:49:19Z</time>
      </trkpt>
      <trkpt lat="5.0264669023" lon="-73.4368808102">
        <ele>1920.87</ele>
        <time>2022-04-28T19:49:24Z</time>
      </trkpt>
      <trkpt lat="5.0264596939" lon="-73.4369433392">
        <ele>1921.59</ele>
        <time>2022-04-28T19:49:28Z</time>
      </trkpt>
      <trkpt lat="5.0263766292" lon="-73.4372838121">
        <ele>1922.99</ele>
        <time>2022-04-28T19:49:45Z</time>
      </trkpt>
      <trkpt lat="5.0262193847" lon="-73.4376892447">
        <ele>1923.47</ele>
        <time>2022-04-28T19:49:59Z</time>
      </trkpt>
      <trkpt lat="5.0261975918" lon="-73.4379152209">
        <ele>1923.34</ele>
        <time>2022-04-28T19:50:06Z</time>
      </trkpt>
      <trkpt lat="5.0262589473" lon="-73.4384113457">
        <ele>1922.18</ele>
        <time>2022-04-28T19:50:14Z</time>
      </trkpt>
      <trkpt lat="5.0259821769" lon="-73.4388092346">
        <ele>1920.07</ele>
        <time>2022-04-28T19:50:21Z</time>
      </trkpt>
      <trkpt lat="5.0256318133" lon="-73.4388373978">
        <ele>1917.39</ele>
        <time>2022-04-28T19:50:31Z</time>
      </trkpt>
      <trkpt lat="5.0253417157" lon="-73.4389917925">
        <ele>1917.64</ele>
        <time>2022-04-28T19:50:44Z</time>
      </trkpt>
      <trkpt lat="5.0250369497" lon="-73.4393529687">
        <ele>1917.19</ele>
        <time>2022-04-28T19:50:59Z</time>
      </trkpt>
      <trkpt lat="5.0249807071" lon="-73.4397993889">
        <ele>1916.77</ele>
        <time>2022-04-28T19:51:12Z</time>
      </trkpt>
      <trkpt lat="5.0250790268" lon="-73.4402452223">
        <ele>1917.47</ele>
        <time>2022-04-28T19:51:26Z</time>
      </trkpt>
      <trkpt lat="5.0251125544" lon="-73.4406462125">
        <ele>1920.85</ele>
        <time>2022-04-28T19:51:39Z</time>
      </trkpt>
      <trkpt lat="5.0251520332" lon="-73.4408225678">
        <ele>1923.92</ele>
        <time>2022-04-28T19:51:46Z</time>
      </trkpt>
      <trkpt lat="5.0252589025" lon="-73.4409196302">
        <ele>1925.95</ele>
        <time>2022-04-28T19:51:56Z</time>
      </trkpt>
      <trkpt lat="5.0253828708" lon="-73.4409974143">
        <ele>1926.59</ele>
        <time>2022-04-28T19:52:04Z</time>
      </trkpt>
      <trkpt lat="5.0257624034" lon="-73.4410212189">
        <ele>1926.95</ele>
        <time>2022-04-28T19:52:20Z</time>
      </trkpt>
      <trkpt lat="5.0258877128" lon="-73.4410472028">
        <ele>1927.24</ele>
        <time>2022-04-28T19:52:26Z</time>
      </trkpt>
      <trkpt lat="5.0261915568" lon="-73.4410720132">
        <ele>1927.39</ele>
        <time>2022-04-28T19:52:40Z</time>
      </trkpt>
      <trkpt lat="5.0264957361" lon="-73.4411416668">
        <ele>1928.66</ele>
        <time>2022-04-28T19:52:54Z</time>
      </trkpt>
      <trkpt lat="5.0266005937" lon="-73.4411600232">
        <ele>1929.79</ele>
        <time>2022-04-28T19:52:59Z</time>
      </trkpt>
      <trkpt lat="5.0268186070" lon="-73.4411411639">
        <ele>1931.96</ele>
        <time>2022-04-28T19:53:09Z</time>
      </trkpt>
      <trkpt lat="5.0270685554" lon="-73.4411542397">
        <ele>1933.34</ele>
        <time>2022-04-28T19:53:20Z</time>
      </trkpt>
      <trkpt lat="5.0273534562" lon="-73.4413613565">
        <ele>1932.66</ele>
        <time>2022-04-28T19:53:28Z</time>
      </trkpt>
      <trkpt lat="5.0273341779" lon="-73.4416101314">
        <ele>1931.51</ele>
        <time>2022-04-28T19:53:34Z</time>
      </trkpt>
      <trkpt lat="5.0272970460" lon="-73.4417416435">
        <ele>1931.07</ele>
        <time>2022-04-28T19:53:37Z</time>
      </trkpt>
      <trkpt lat="5.0271647796" lon="-73.4419368580">
        <ele>1930.55</ele>
        <time>2022-04-28T19:53:41Z</time>
      </trkpt>
      <trkpt lat="5.0270156655" lon="-73.4421557933">
        <ele>1930.11</ele>
        <time>2022-04-28T19:53:45Z</time>
      </trkpt>
      <trkpt lat="5.0268939603" lon="-73.4424938355">
        <ele>1929.26</ele>
        <time>2022-04-28T19:53:54Z</time>
      </trkpt>
      <trkpt lat="5.0266782101" lon="-73.4427739587">
        <ele>1929.82</ele>
        <time>2022-04-28T19:54:07Z</time>
      </trkpt>
      <trkpt lat="5.0264638849" lon="-73.4430274274">
        <ele>1930.00</ele>
        <time>2022-04-28T19:54:20Z</time>
      </trkpt>
      <trkpt lat="5.0262301974" lon="-73.4433749411">
        <ele>1930.47</ele>
        <time>2022-04-28T19:54:33Z</time>
      </trkpt>
      <trkpt lat="5.0261836778" lon="-73.4435520507">
        <ele>1930.10</ele>
        <time>2022-04-28T19:54:36Z</time>
      </trkpt>
      <trkpt lat="5.0262148585" lon="-73.4438174218">
        <ele>1929.06</ele>
        <time>2022-04-28T19:54:40Z</time>
      </trkpt>
      <trkpt lat="5.0260789040" lon="-73.4440600779">
        <ele>1926.34</ele>
        <time>2022-04-28T19:54:46Z</time>
      </trkpt>
      <trkpt lat="5.0257077534" lon="-73.4441241995">
        <ele>1925.20</ele>
        <time>2022-04-28T19:54:58Z</time>
      </trkpt>
      <trkpt lat="5.0254683662" lon="-73.4443146363">
        <ele>1927.37</ele>
        <time>2022-04-28T19:55:11Z</time>
      </trkpt>
      <trkpt lat="5.0253462419" lon="-73.4445263632">
        <ele>1928.81</ele>
        <time>2022-04-28T19:55:22Z</time>
      </trkpt>
      <trkpt lat="5.0252624229" lon="-73.4447105974">
        <ele>1931.35</ele>
        <time>2022-04-28T19:55:31Z</time>
      </trkpt>
      <trkpt lat="5.0251661148" lon="-73.4448710270">
        <ele>1933.71</ele>
        <time>2022-04-28T19:55:44Z</time>
      </trkpt>
      <trkpt lat="5.0249662064" lon="-73.4451171197">
        <ele>1934.47</ele>
        <time>2022-04-28T19:55:58Z</time>
      </trkpt>
      <trkpt lat="5.0246720854" lon="-73.4453086462">
        <ele>1934.59</ele>
        <time>2022-04-28T19:56:10Z</time>
      </trkpt>
      <trkpt lat="5.0243525673" lon="-73.4455420822">
        <ele>1934.65</ele>
        <time>2022-04-28T19:56:24Z</time>
      </trkpt>
      <trkpt lat="5.0241690036" lon="-73.4458189365">
        <ele>1935.18</ele>
        <time>2022-04-28T19:56:36Z</time>
      </trkpt>
      <trkpt lat="5.0239038840" lon="-73.4461408854">
        <ele>1935.53</ele>
        <time>2022-04-28T19:56:50Z</time>
      </trkpt>
      <trkpt lat="5.0237246789" lon="-73.4464870580">
        <ele>1936.44</ele>
        <time>2022-04-28T19:57:03Z</time>
      </trkpt>
      <trkpt lat="5.0237520039" lon="-73.4467424545">
        <ele>1937.95</ele>
        <time>2022-04-28T19:57:13Z</time>
      </trkpt>
      <trkpt lat="5.0239247549" lon="-73.4470904712">
        <ele>1937.11</ele>
        <time>2022-04-28T19:57:20Z</time>
      </trkpt>
      <trkpt lat="5.0242514815" lon="-73.4475813154">
        <ele>1935.96</ele>
        <time>2022-04-28T19:57:29Z</time>
      </trkpt>
      <trkpt lat="5.0242700893" lon="-73.4477376379">
        <ele>1935.43</ele>
        <time>2022-04-28T19:57:33Z</time>
      </trkpt>
      <trkpt lat="5.0241074804" lon="-73.4480499476">
        <ele>1935.68</ele>
        <time>2022-04-28T19:57:46Z</time>
      </trkpt>
      <trkpt lat="5.0239781477" lon="-73.4483423922">
        <ele>1938.47</ele>
        <time>2022-04-28T19:58:00Z</time>
      </trkpt>
      <trkpt lat="5.0238963403" lon="-73.4485615790">
        <ele>1940.82</ele>
        <time>2022-04-28T19:58:15Z</time>
      </trkpt>
      <trkpt lat="5.0237524230" lon="-73.4487778321">
        <ele>1941.90</ele>
        <time>2022-04-28T19:58:29Z</time>
      </trkpt>
      <trkpt lat="5.0235531013" lon="-73.4489917383">
        <ele>1942.75</ele>
        <time>2022-04-28T19:58:43Z</time>
      </trkpt>
      <trkpt lat="5.0234186556" lon="-73.4491560236">
        <ele>1943.40</ele>
        <time>2022-04-28T19:58:54Z</time>
      </trkpt>
      <trkpt lat="5.0233233534" lon="-73.4494047146">
        <ele>1944.63</ele>
        <time>2022-04-28T19:59:08Z</time>
      </trkpt>
      <trkpt lat="5.0232765824" lon="-73.4498485364">
        <ele>1944.75</ele>
        <time>2022-04-28T19:59:18Z</time>
      </trkpt>
      <trkpt lat="5.0232597347" lon="-73.4499076288">
        <ele>1944.74</ele>
        <time>2022-04-28T19:59:19Z</time>
      </trkpt>
      <trkpt lat="5.0232107844" lon="-73.4500129055">
        <ele>1944.62</ele>
        <time>2022-04-28T19:59:21Z</time>
      </trkpt>
      <trkpt lat="5.0230356865" lon="-73.4503925219">
        <ele>1943.99</ele>
        <time>2022-04-28T19:59:32Z</time>
      </trkpt>
      <trkpt lat="5.0229250453" lon="-73.4506127145">
        <ele>1946.27</ele>
        <time>2022-04-28T19:59:45Z</time>
      </trkpt>
      <trkpt lat="5.0229258835" lon="-73.4506275505">
        <ele>1946.47</ele>
        <time>2022-04-28T19:59:46Z</time>
      </trkpt>
      <trkpt lat="5.0229278114" lon="-73.4506415483">
        <ele>1946.78</ele>
        <time>2022-04-28T19:59:47Z</time>
      </trkpt>
      <trkpt lat="5.0229361095" lon="-73.4506574739">
        <ele>1946.89</ele>
        <time>2022-04-28T19:59:48Z</time>
      </trkpt>
      <trkpt lat="5.0229453295" lon="-73.4506746568">
        <ele>1947.00</ele>
        <time>2022-04-28T19:59:49Z</time>
      </trkpt>
      <trkpt lat="5.0229546335" lon="-73.4506875649">
        <ele>1947.09</ele>
        <time>2022-04-28T19:59:50Z</time>
      </trkpt>
      <trkpt lat="5.0229626801" lon="-73.4507001378">
        <ele>1947.18</ele>
        <time>2022-04-28T19:59:51Z</time>
      </trkpt>
      <trkpt lat="5.0229722355" lon="-73.4507122915">
        <ele>1947.28</ele>
        <time>2022-04-28T19:59:52Z</time>
      </trkpt>
      <trkpt lat="5.0230084453" lon="-73.4507507645">
        <ele>1947.78</ele>
        <time>2022-04-28T20:00:03Z</time>
      </trkpt>
      <trkpt lat="5.0229569804" lon="-73.4507480823">
        <ele>1948.08</ele>
        <time>2022-04-28T20:00:52Z</time>
      </trkpt>
      <trkpt lat="5.0229716487" lon="-73.4507348388">
        <ele>1947.70</ele>
        <time>2022-04-28T20:01:47Z</time>
      </trkpt>
      <trkpt lat="5.0229579024" lon="-73.4507180750">
        <ele>1947.51</ele>
        <time>2022-04-28T20:02:33Z</time>
      </trkpt>
      <trkpt lat="5.0229617581" lon="-73.4507053345">
        <ele>1947.47</ele>
        <time>2022-04-28T20:02:37Z</time>
      </trkpt>
      <trkpt lat="5.0229085330" lon="-73.4507414605">
        <ele>1947.44</ele>
        <time>2022-04-28T20:02:41Z</time>
      </trkpt>
      <trkpt lat="5.0228783581" lon="-73.4507540334">
        <ele>1947.41</ele>
        <time>2022-04-28T20:02:42Z</time>
      </trkpt>
      <trkpt lat="5.0224842411" lon="-73.4511505812">
        <ele>1944.90</ele>
        <time>2022-04-28T20:02:56Z</time>
      </trkpt>
      <trkpt lat="5.0222055428" lon="-73.4514459595">
        <ele>1942.48</ele>
        <time>2022-04-28T20:03:04Z</time>
      </trkpt>
      <trkpt lat="5.0221741945" lon="-73.4514868632">
        <ele>1942.22</ele>
        <time>2022-04-28T20:03:05Z</time>
      </trkpt>
      <trkpt lat="5.0221431814" lon="-73.4515308682">
        <ele>1941.97</ele>
        <time>2022-04-28T20:03:06Z</time>
      </trkpt>
      <trkpt lat="5.0216263533" lon="-73.4520295914">
        <ele>1939.59</ele>
        <time>2022-04-28T20:03:17Z</time>
      </trkpt>
      <trkpt lat="5.0214453042" lon="-73.4521376342">
        <ele>1938.65</ele>
        <time>2022-04-28T20:03:20Z</time>
      </trkpt>
      <trkpt lat="5.0212827791" lon="-73.4522081260">
        <ele>1937.84</ele>
        <time>2022-04-28T20:03:23Z</time>
      </trkpt>
      <trkpt lat="5.0212484971" lon="-73.4522463474">
        <ele>1937.26</ele>
        <time>2022-04-28T20:03:24Z</time>
      </trkpt>
      <trkpt lat="5.0212287158" lon="-73.4522896819">
        <ele>1936.98</ele>
        <time>2022-04-28T20:03:25Z</time>
      </trkpt>
      <trkpt lat="5.0211487524" lon="-73.4524719883">
        <ele>1936.52</ele>
        <time>2022-04-28T20:03:34Z</time>
      </trkpt>
      <trkpt lat="5.0210850500" lon="-73.4527283907">
        <ele>1938.50</ele>
        <time>2022-04-28T20:03:48Z</time>
      </trkpt>
      <trkpt lat="5.0211062562" lon="-73.4527969547">
        <ele>1939.19</ele>
        <time>2022-04-28T20:03:52Z</time>
      </trkpt>
      <trkpt lat="5.0212503411" lon="-73.4528807737">
        <ele>1940.14</ele>
        <time>2022-04-28T20:04:01Z</time>
      </trkpt>
      <trkpt lat="5.0212579686" lon="-73.4528953582">
        <ele>1940.26</ele>
        <time>2022-04-28T20:04:02Z</time>
      </trkpt>
      <trkpt lat="5.0212609861" lon="-73.4529133793">
        <ele>1940.35</ele>
        <time>2022-04-28T20:04:03Z</time>
      </trkpt>
      <trkpt lat="5.0212607346" lon="-73.4529330768">
        <ele>1940.42</ele>
        <time>2022-04-28T20:04:04Z</time>
      </trkpt>
      <trkpt lat="5.0212456472" lon="-73.4529656824">
        <ele>1940.50</ele>
        <time>2022-04-28T20:04:06Z</time>
      </trkpt>
      <trkpt lat="5.0212119520" lon="-73.4529899061">
        <ele>1940.50</ele>
        <time>2022-04-28T20:04:08Z</time>
      </trkpt>
      <trkpt lat="5.0211456511" lon="-73.4529255331">
        <ele>1940.33</ele>
        <time>2022-04-28T20:04:13Z</time>
      </trkpt>
      <trkpt lat="5.0211815257" lon="-73.4528377745">
        <ele>1940.40</ele>
        <time>2022-04-28T20:04:18Z</time>
      </trkpt>
      <trkpt lat="5.0212266203" lon="-73.4528094437">
        <ele>1940.49</ele>
        <time>2022-04-28T20:04:21Z</time>
      </trkpt>
      <trkpt lat="5.0213354174" lon="-73.4528659377">
        <ele>1941.57</ele>
        <time>2022-04-28T20:04:30Z</time>
      </trkpt>
      <trkpt lat="5.0213980302" lon="-73.4528980404">
        <ele>1941.99</ele>
        <time>2022-04-28T20:04:34Z</time>
      </trkpt>
      <trkpt lat="5.0214895606" lon="-73.4528764151">
        <ele>1943.13</ele>
        <time>2022-04-28T20:04:40Z</time>
      </trkpt>
      <trkpt lat="5.0215163827" lon="-73.4529378545">
        <ele>1943.98</ele>
        <time>2022-04-28T20:04:45Z</time>
      </trkpt>
      <trkpt lat="5.0215359963" lon="-73.4530331567">
        <ele>1944.81</ele>
        <time>2022-04-28T20:04:52Z</time>
      </trkpt>
      <trkpt lat="5.0215318054" lon="-73.4531156346">
        <ele>1945.69</ele>
        <time>2022-04-28T20:04:57Z</time>
      </trkpt>
      <trkpt lat="5.0215658359" lon="-73.4532547742">
        <ele>1946.95</ele>
        <time>2022-04-28T20:05:06Z</time>
      </trkpt>
      <trkpt lat="5.0216115173" lon="-73.4533325583">
        <ele>1948.13</ele>
        <time>2022-04-28T20:05:14Z</time>
      </trkpt>
      <trkpt lat="5.0217269361" lon="-73.4533288702">
        <ele>1949.17</ele>
        <time>2022-04-28T20:05:22Z</time>
      </trkpt>
      <trkpt lat="5.0217758026" lon="-73.4532893915">
        <ele>1949.78</ele>
        <time>2022-04-28T20:05:27Z</time>
      </trkpt>
      <trkpt lat="5.0219039619" lon="-73.4531736374">
        <ele>1951.96</ele>
        <time>2022-04-28T20:05:43Z</time>
      </trkpt>
      <trkpt lat="5.0219250005" lon="-73.4531401936">
        <ele>1952.44</ele>
        <time>2022-04-28T20:05:48Z</time>
      </trkpt>
      <trkpt lat="5.0220150221" lon="-73.4531815164">
        <ele>1953.83</ele>
        <time>2022-04-28T20:06:01Z</time>
      </trkpt>
      <trkpt lat="5.0220243260" lon="-73.4531812649">
        <ele>1954.03</ele>
        <time>2022-04-28T20:06:02Z</time>
      </trkpt>
      <trkpt lat="5.0221125036" lon="-73.4532352444">
        <ele>1956.43</ele>
        <time>2022-04-28T20:06:16Z</time>
      </trkpt>
      <trkpt lat="5.0221872702" lon="-73.4532540198">
        <ele>1957.24</ele>
        <time>2022-04-28T20:06:25Z</time>
      </trkpt>
      <trkpt lat="5.0221950654" lon="-73.4532454703">
        <ele>1957.54</ele>
        <time>2022-04-28T20:06:26Z</time>
      </trkpt>
      <trkpt lat="5.0222036149" lon="-73.4532259405">
        <ele>1957.86</ele>
        <time>2022-04-28T20:06:28Z</time>
      </trkpt>
      <trkpt lat="5.0222281739" lon="-73.4531216696">
        <ele>1959.37</ele>
        <time>2022-04-28T20:06:38Z</time>
      </trkpt>
      <trkpt lat="5.0222481228" lon="-73.4530667681">
        <ele>1960.36</ele>
        <time>2022-04-28T20:06:47Z</time>
      </trkpt>
      <trkpt lat="5.0222227257" lon="-73.4532579593">
        <ele>1959.69</ele>
        <time>2022-04-28T20:06:56Z</time>
      </trkpt>
      <trkpt lat="5.0222277548" lon="-73.4532828536">
        <ele>1959.54</ele>
        <time>2022-04-28T20:06:57Z</time>
      </trkpt>
      <trkpt lat="5.0222335383" lon="-73.4532950073">
        <ele>1959.43</ele>
        <time>2022-04-28T20:06:58Z</time>
      </trkpt>
      <trkpt lat="5.0222405791" lon="-73.4533039760">
        <ele>1959.35</ele>
        <time>2022-04-28T20:06:59Z</time>
      </trkpt>
      <trkpt lat="5.0222483743" lon="-73.4533158783">
        <ele>1959.32</ele>
        <time>2022-04-28T20:07:00Z</time>
      </trkpt>
      <trkpt lat="5.0222632941" lon="-73.4533328936">
        <ele>1959.38</ele>
        <time>2022-04-28T20:07:02Z</time>
      </trkpt>
      <trkpt lat="5.0222745258" lon="-73.4533360787">
        <ele>1959.54</ele>
        <time>2022-04-28T20:07:03Z</time>
      </trkpt>
      <trkpt lat="5.0223095622" lon="-73.4533294570">
        <ele>1960.22</ele>
        <time>2022-04-28T20:07:06Z</time>
      </trkpt>
      <trkpt lat="5.0223212130" lon="-73.4533337317">
        <ele>1960.43</ele>
        <time>2022-04-28T20:07:07Z</time>
      </trkpt>
      <trkpt lat="5.0223316904" lon="-73.4533427842">
        <ele>1960.63</ele>
        <time>2022-04-28T20:07:08Z</time>
      </trkpt>
      <trkpt lat="5.0223418325" lon="-73.4533510823">
        <ele>1960.82</ele>
        <time>2022-04-28T20:07:09Z</time>
      </trkpt>
      <trkpt lat="5.0223489571" lon="-73.4533603024">
        <ele>1961.01</ele>
        <time>2022-04-28T20:07:10Z</time>
      </trkpt>
      <trkpt lat="5.0223554112" lon="-73.4533706121">
        <ele>1961.19</ele>
        <time>2022-04-28T20:07:11Z</time>
      </trkpt>
      <trkpt lat="5.0224906951" lon="-73.4534669202">
        <ele>1963.02</ele>
        <time>2022-04-28T20:07:25Z</time>
      </trkpt>
      <trkpt lat="5.0225528050" lon="-73.4534840193">
        <ele>1963.48</ele>
        <time>2022-04-28T20:07:30Z</time>
      </trkpt>
      <trkpt lat="5.0225641206" lon="-73.4534872044">
        <ele>1963.56</ele>
        <time>2022-04-28T20:07:31Z</time>
      </trkpt>
      <trkpt lat="5.0226525497" lon="-73.4535029624">
        <ele>1963.93</ele>
        <time>2022-04-28T20:07:38Z</time>
      </trkpt>
      <trkpt lat="5.0226644520" lon="-73.4535077401">
        <ele>1963.97</ele>
        <time>2022-04-28T20:07:39Z</time>
      </trkpt>
      <trkpt lat="5.0226766057" lon="-73.4535128530">
        <ele>1963.99</ele>
        <time>2022-04-28T20:07:40Z</time>
      </trkpt>
      <trkpt lat="5.0226889271" lon="-73.4535176307">
        <ele>1964.03</ele>
        <time>2022-04-28T20:07:41Z</time>
      </trkpt>
      <trkpt lat="5.0227025896" lon="-73.4535221569">
        <ele>1964.06</ele>
        <time>2022-04-28T20:07:42Z</time>
      </trkpt>
      <trkpt lat="5.0227152463" lon="-73.4535253420">
        <ele>1964.10</ele>
        <time>2022-04-28T20:07:43Z</time>
      </trkpt>
      <trkpt lat="5.0227288250" lon="-73.4535286948">
        <ele>1964.12</ele>
        <time>2022-04-28T20:07:44Z</time>
      </trkpt>
      <trkpt lat="5.0227588322" lon="-73.4535410162">
        <ele>1964.17</ele>
        <time>2022-04-28T20:07:46Z</time>
      </trkpt>
      <trkpt lat="5.0229989737" lon="-73.4536850173">
        <ele>1964.54</ele>
        <time>2022-04-28T20:08:02Z</time>
      </trkpt>
      <trkpt lat="5.0231528655" lon="-73.4537986759">
        <ele>1965.47</ele>
        <time>2022-04-28T20:08:17Z</time>
      </trkpt>
      <trkpt lat="5.0232615788" lon="-73.4539199620">
        <ele>1968.49</ele>
        <time>2022-04-28T20:08:36Z</time>
      </trkpt>
      <trkpt lat="5.0233386084" lon="-73.4540098999">
        <ele>1971.34</ele>
        <time>2022-04-28T20:08:56Z</time>
      </trkpt>
      <trkpt lat="5.0234105252" lon="-73.4540702496">
        <ele>1973.97</ele>
        <time>2022-04-28T20:09:15Z</time>
      </trkpt>
      <trkpt lat="5.0234763231" lon="-73.4541289229">
        <ele>1976.52</ele>
        <time>2022-04-28T20:09:35Z</time>
      </trkpt>
      <trkpt lat="5.0235629920" lon="-73.4541736823">
        <ele>1978.82</ele>
        <time>2022-04-28T20:09:54Z</time>
      </trkpt>
      <trkpt lat="5.0235757325" lon="-73.4542279132">
        <ele>1979.87</ele>
        <time>2022-04-28T20:10:13Z</time>
      </trkpt>
      <trkpt lat="5.0235556997" lon="-73.4542862512">
        <ele>1980.29</ele>
        <time>2022-04-28T20:10:22Z</time>
      </trkpt>
      <trkpt lat="5.0235563703" lon="-73.4543020930">
        <ele>1980.41</ele>
        <time>2022-04-28T20:10:23Z</time>
      </trkpt>
      <trkpt lat="5.0235555321" lon="-73.4543178510">
        <ele>1980.43</ele>
        <time>2022-04-28T20:10:24Z</time>
      </trkpt>
      <trkpt lat="5.0235767383" lon="-73.4545019176">
        <ele>1980.93</ele>
        <time>2022-04-28T20:10:36Z</time>
      </trkpt>
      <trkpt lat="5.0235766545" lon="-73.4545196872">
        <ele>1980.98</ele>
        <time>2022-04-28T20:10:37Z</time>
      </trkpt>
      <trkpt lat="5.0235753134" lon="-73.4545356128">
        <ele>1981.04</ele>
        <time>2022-04-28T20:10:38Z</time>
      </trkpt>
      <trkpt lat="5.0235940050" lon="-73.4546383750">
        <ele>1981.54</ele>
        <time>2022-04-28T20:10:45Z</time>
      </trkpt>
      <trkpt lat="5.0235927477" lon="-73.4546536300">
        <ele>1981.60</ele>
        <time>2022-04-28T20:10:46Z</time>
      </trkpt>
      <trkpt lat="5.0235827733" lon="-73.4549904149">
        <ele>1982.28</ele>
        <time>2022-04-28T20:11:01Z</time>
      </trkpt>
      <trkpt lat="5.0235914066" lon="-73.4552728012">
        <ele>1981.02</ele>
        <time>2022-04-28T20:11:09Z</time>
      </trkpt>
      <trkpt lat="5.0236204080" lon="-73.4553056583">
        <ele>1980.70</ele>
        <time>2022-04-28T20:11:10Z</time>
      </trkpt>
      <trkpt lat="5.0236559473" lon="-73.4553352464">
        <ele>1980.37</ele>
        <time>2022-04-28T20:11:11Z</time>
      </trkpt>
      <trkpt lat="5.0236992817" lon="-73.4553650022">
        <ele>1980.01</ele>
        <time>2022-04-28T20:11:12Z</time>
      </trkpt>
      <trkpt lat="5.0237484835" lon="-73.4554028045">
        <ele>1979.59</ele>
        <time>2022-04-28T20:11:13Z</time>
      </trkpt>
      <trkpt lat="5.0237976853" lon="-73.4554526769">
        <ele>1979.06</ele>
        <time>2022-04-28T20:11:14Z</time>
      </trkpt>
      <trkpt lat="5.0238448754" lon="-73.4555125237">
        <ele>1977.85</ele>
        <time>2022-04-28T20:11:15Z</time>
      </trkpt>
      <trkpt lat="5.0238910597" lon="-73.4555793274">
        <ele>1977.30</ele>
        <time>2022-04-28T20:11:16Z</time>
      </trkpt>
      <trkpt lat="5.0241410919" lon="-73.4559992608">
        <ele>1974.26</ele>
        <time>2022-04-28T20:11:22Z</time>
      </trkpt>
      <trkpt lat="5.0242376514" lon="-73.4562592674">
        <ele>1972.95</ele>
        <time>2022-04-28T20:11:29Z</time>
      </trkpt>
      <trkpt lat="5.0242742803" lon="-73.4564182721">
        <ele>1974.19</ele>
        <time>2022-04-28T20:11:44Z</time>
      </trkpt>
      <trkpt lat="5.0243083108" lon="-73.4566193540">
        <ele>1975.67</ele>
        <time>2022-04-28T20:12:00Z</time>
      </trkpt>
      <trkpt lat="5.0243181176" lon="-73.4567486867">
        <ele>1978.15</ele>
        <time>2022-04-28T20:12:16Z</time>
      </trkpt>
      <trkpt lat="5.0242938101" lon="-73.4569143970">
        <ele>1980.35</ele>
        <time>2022-04-28T20:12:34Z</time>
      </trkpt>
      <trkpt lat="5.0243362226" lon="-73.4570363536">
        <ele>1981.87</ele>
        <time>2022-04-28T20:12:49Z</time>
      </trkpt>
      <trkpt lat="5.0244223885" lon="-73.4572215937">
        <ele>1983.15</ele>
        <time>2022-04-28T20:13:08Z</time>
      </trkpt>
      <trkpt lat="5.0244366378" lon="-73.4574515093">
        <ele>1985.17</ele>
        <time>2022-04-28T20:13:27Z</time>
      </trkpt>
      <trkpt lat="5.0244777929" lon="-73.4576493222">
        <ele>1986.94</ele>
        <time>2022-04-28T20:13:48Z</time>
      </trkpt>
      <trkpt lat="5.0245171040" lon="-73.4578217380">
        <ele>1988.74</ele>
        <time>2022-04-28T20:14:07Z</time>
      </trkpt>
      <trkpt lat="5.0245492905" lon="-73.4578526672">
        <ele>1989.26</ele>
        <time>2022-04-28T20:14:28Z</time>
      </trkpt>
      <trkpt lat="5.0245465245" lon="-73.4578862786">
        <ele>1989.22</ele>
        <time>2022-04-28T20:15:12Z</time>
      </trkpt>
      <trkpt lat="5.0246179383" lon="-73.4580928925">
        <ele>1988.97</ele>
        <time>2022-04-28T20:15:25Z</time>
      </trkpt>
      <trkpt lat="5.0248525478" lon="-73.4584902786">
        <ele>1985.61</ele>
        <time>2022-04-28T20:15:36Z</time>
      </trkpt>
      <trkpt lat="5.0249086227" lon="-73.4585815575">
        <ele>1984.42</ele>
        <time>2022-04-28T20:15:38Z</time>
      </trkpt>
      <trkpt lat="5.0251847226" lon="-73.4589091223">
        <ele>1979.50</ele>
        <time>2022-04-28T20:15:45Z</time>
      </trkpt>
      <trkpt lat="5.0252682064" lon="-73.4590132255">
        <ele>1978.43</ele>
        <time>2022-04-28T20:15:47Z</time>
      </trkpt>
      <trkpt lat="5.0254526921" lon="-73.4592382796">
        <ele>1976.44</ele>
        <time>2022-04-28T20:15:52Z</time>
      </trkpt>
      <trkpt lat="5.0255701225" lon="-73.4595080093">
        <ele>1974.40</ele>
        <time>2022-04-28T20:15:56Z</time>
      </trkpt>
      <trkpt lat="5.0257437956" lon="-73.4597696085">
        <ele>1970.84</ele>
        <time>2022-04-28T20:16:03Z</time>
      </trkpt>
      <trkpt lat="5.0258217473" lon="-73.4598416928">
        <ele>1971.50</ele>
        <time>2022-04-28T20:16:18Z</time>
      </trkpt>
      <trkpt lat="5.0259514991" lon="-73.4599325527">
        <ele>1972.70</ele>
        <time>2022-04-28T20:16:33Z</time>
      </trkpt>
      <trkpt lat="5.0260740425" lon="-73.4600453731">
        <ele>1974.08</ele>
        <time>2022-04-28T20:16:51Z</time>
      </trkpt>
      <trkpt lat="5.0261208136" lon="-73.4601983428">
        <ele>1976.66</ele>
        <time>2022-04-28T20:17:11Z</time>
      </trkpt>
      <trkpt lat="5.0261311233" lon="-73.4603588562">
        <ele>1979.40</ele>
        <time>2022-04-28T20:17:34Z</time>
      </trkpt>
      <trkpt lat="5.0261412654" lon="-73.4604358859">
        <ele>1980.29</ele>
        <time>2022-04-28T20:17:43Z</time>
      </trkpt>
      <trkpt lat="5.0262089074" lon="-73.4606087208">
        <ele>1981.78</ele>
        <time>2022-04-28T20:18:00Z</time>
      </trkpt>
      <trkpt lat="5.0263655651" lon="-73.4608896822">
        <ele>1981.99</ele>
        <time>2022-04-28T20:18:11Z</time>
      </trkpt>
      <trkpt lat="5.0265260786" lon="-73.4612203483">
        <ele>1980.74</ele>
        <time>2022-04-28T20:18:15Z</time>
      </trkpt>
      <trkpt lat="5.0266550761" lon="-73.4614063427">
        <ele>1978.91</ele>
        <time>2022-04-28T20:18:22Z</time>
      </trkpt>
      <trkpt lat="5.0267520547" lon="-73.4615179058">
        <ele>1980.59</ele>
        <time>2022-04-28T20:18:42Z</time>
      </trkpt>
      <trkpt lat="5.0267957244" lon="-73.4616018925">
        <ele>1983.35</ele>
        <time>2022-04-28T20:19:02Z</time>
      </trkpt>
      <trkpt lat="5.0267989933" lon="-73.4616807662">
        <ele>1985.64</ele>
        <time>2022-04-28T20:19:25Z</time>
      </trkpt>
      <trkpt lat="5.0268437527" lon="-73.4617819358">
        <ele>1987.47</ele>
        <time>2022-04-28T20:19:46Z</time>
      </trkpt>
      <trkpt lat="5.0269116461" lon="-73.4618804231">
        <ele>1990.58</ele>
        <time>2022-04-28T20:20:10Z</time>
      </trkpt>
      <trkpt lat="5.0269559026" lon="-73.4619693551">
        <ele>1992.35</ele>
        <time>2022-04-28T20:20:29Z</time>
      </trkpt>
      <trkpt lat="5.0269972254" lon="-73.4620968439">
        <ele>1995.42</ele>
        <time>2022-04-28T20:20:52Z</time>
      </trkpt>
      <trkpt lat="5.0270771049" lon="-73.4622243326">
        <ele>1997.42</ele>
        <time>2022-04-28T20:21:14Z</time>
      </trkpt>
      <trkpt lat="5.0272214413" lon="-73.4624415915">
        <ele>1997.33</ele>
        <time>2022-04-28T20:21:27Z</time>
      </trkpt>
      <trkpt lat="5.0272816233" lon="-73.4626032785">
        <ele>1999.08</ele>
        <time>2022-04-28T20:21:46Z</time>
      </trkpt>
      <trkpt lat="5.0272710621" lon="-73.4627560806">
        <ele>2002.11</ele>
        <time>2022-04-28T20:22:05Z</time>
      </trkpt>
      <trkpt lat="5.0273535401" lon="-73.4628668055">
        <ele>2004.70</ele>
        <time>2022-04-28T20:22:26Z</time>
      </trkpt>
      <trkpt lat="5.0274771731" lon="-73.4629647061">
        <ele>2007.14</ele>
        <time>2022-04-28T20:22:49Z</time>
      </trkpt>
      <trkpt lat="5.0275904126" lon="-73.4630217031">
        <ele>2009.75</ele>
        <time>2022-04-28T20:23:10Z</time>
      </trkpt>
      <trkpt lat="5.0276968628" lon="-73.4630795382">
        <ele>2012.89</ele>
        <time>2022-04-28T20:23:32Z</time>
      </trkpt>
      <trkpt lat="5.0278132036" lon="-73.4631398879">
        <ele>2015.48</ele>
        <time>2022-04-28T20:23:53Z</time>
      </trkpt>
      <trkpt lat="5.0279162172" lon="-73.4631578252">
        <ele>2017.04</ele>
        <time>2022-04-28T20:24:08Z</time>
      </trkpt>
      <trkpt lat="5.0280538481" lon="-73.4631801210">
        <ele>2018.98</ele>
        <time>2022-04-28T20:24:26Z</time>
      </trkpt>
      <trkpt lat="5.0282012019" lon="-73.4632371180">
        <ele>2020.62</ele>
        <time>2022-04-28T20:24:46Z</time>
      </trkpt>
      <trkpt lat="5.0282583665" lon="-73.4633387905">
        <ele>2022.77</ele>
        <time>2022-04-28T20:25:05Z</time>
      </trkpt>
      <trkpt lat="5.0282757170" lon="-73.4634761699">
        <ele>2025.85</ele>
        <time>2022-04-28T20:25:25Z</time>
      </trkpt>
      <trkpt lat="5.0283695944" lon="-73.4635756630">
        <ele>2027.27</ele>
        <time>2022-04-28T20:25:43Z</time>
      </trkpt>
      <trkpt lat="5.0285963248" lon="-73.4637100250">
        <ele>2027.07</ele>
        <time>2022-04-28T20:25:56Z</time>
      </trkpt>
      <trkpt lat="5.0286980812" lon="-73.4637570474">
        <ele>2027.99</ele>
        <time>2022-04-28T20:26:11Z</time>
      </trkpt>
      <trkpt lat="5.0288477819" lon="-73.4637952689">
        <ele>2030.97</ele>
        <time>2022-04-28T20:26:30Z</time>
      </trkpt>
      <trkpt lat="5.0289784558" lon="-73.4638750646">
        <ele>2032.77</ele>
        <time>2022-04-28T20:26:47Z</time>
      </trkpt>
      <trkpt lat="5.0290916115" lon="-73.4639531840">
        <ele>2033.42</ele>
        <time>2022-04-28T20:27:03Z</time>
      </trkpt>
      <trkpt lat="5.0291704014" lon="-73.4640080854">
        <ele>2033.64</ele>
        <time>2022-04-28T20:27:08Z</time>
      </trkpt>
      <trkpt lat="5.0293079484" lon="-73.4640578739">
        <ele>2034.34</ele>
        <time>2022-04-28T20:27:16Z</time>
      </trkpt>
      <trkpt lat="5.0292776059" lon="-73.4642584529">
        <ele>2034.55</ele>
        <time>2022-04-28T20:27:24Z</time>
      </trkpt>
      <trkpt lat="5.0291809626" lon="-73.4642670862">
        <ele>2034.42</ele>
        <time>2022-04-28T20:27:26Z</time>
      </trkpt>
      <trkpt lat="5.0284340512" lon="-73.4643584490">
        <ele>2032.01</ele>
        <time>2022-04-28T20:27:38Z</time>
      </trkpt>
      <trkpt lat="5.0276740640" lon="-73.4646508098">
        <ele>2028.49</ele>
        <time>2022-04-28T20:27:46Z</time>
      </trkpt>
      <trkpt lat="5.0274939369" lon="-73.4647043701">
        <ele>2027.55</ele>
        <time>2022-04-28T20:27:48Z</time>
      </trkpt>
      <trkpt lat="5.0271124765" lon="-73.4649020992">
        <ele>2025.58</ele>
        <time>2022-04-28T20:27:52Z</time>
      </trkpt>
      <trkpt lat="5.0265781302" lon="-73.4650787059">
        <ele>2021.20</ele>
        <time>2022-04-28T20:27:58Z</time>
      </trkpt>
      <trkpt lat="5.0261866953" lon="-73.4652100503">
        <ele>2017.71</ele>
        <time>2022-04-28T20:28:02Z</time>
      </trkpt>
      <trkpt lat="5.0259445421" lon="-73.4653056040">
        <ele>2014.60</ele>
        <time>2022-04-28T20:28:05Z</time>
      </trkpt>
      <trkpt lat="5.0258728769" lon="-73.4653343540">
        <ele>2013.27</ele>
        <time>2022-04-28T20:28:06Z</time>
      </trkpt>
      <trkpt lat="5.0257312227" lon="-73.4653667919">
        <ele>2008.73</ele>
        <time>2022-04-28T20:28:09Z</time>
      </trkpt>
      <trkpt lat="5.0256971084" lon="-73.4653641097">
        <ele>2007.50</ele>
        <time>2022-04-28T20:28:10Z</time>
      </trkpt>
      <trkpt lat="5.0255743973" lon="-73.4653156623">
        <ele>2003.48</ele>
        <time>2022-04-28T20:28:18Z</time>
      </trkpt>
      <trkpt lat="5.0254148897" lon="-73.4651830606">
        <ele>2004.11</ele>
        <time>2022-04-28T20:28:31Z</time>
      </trkpt>
      <trkpt lat="5.0253340043" lon="-73.4650723357">
        <ele>2005.38</ele>
        <time>2022-04-28T20:28:39Z</time>
      </trkpt>
      <trkpt lat="5.0251014065" lon="-73.4648096468">
        <ele>2005.18</ele>
        <time>2022-04-28T20:28:52Z</time>
      </trkpt>
      <trkpt lat="5.0250709802" lon="-73.4647891112">
        <ele>2004.62</ele>
        <time>2022-04-28T20:28:53Z</time>
      </trkpt>
      <trkpt lat="5.0248142425" lon="-73.4648134187">
        <ele>2001.51</ele>
        <time>2022-04-28T20:28:58Z</time>
      </trkpt>
      <trkpt lat="5.0243313611" lon="-73.4649481997">
        <ele>1997.15</ele>
        <time>2022-04-28T20:29:04Z</time>
      </trkpt>
      <trkpt lat="5.0240398385" lon="-73.4650007542">
        <ele>1993.85</ele>
        <time>2022-04-28T20:29:07Z</time>
      </trkpt>
      <trkpt lat="5.0238619745" lon="-73.4650129080">
        <ele>1992.13</ele>
        <time>2022-04-28T20:29:09Z</time>
      </trkpt>
      <trkpt lat="5.0233909953" lon="-73.4649487864">
        <ele>1987.82</ele>
        <time>2022-04-28T20:29:14Z</time>
      </trkpt>
      <trkpt lat="5.0232952740" lon="-73.4649299271">
        <ele>1987.21</ele>
        <time>2022-04-28T20:29:15Z</time>
      </trkpt>
      <trkpt lat="5.0228624325" lon="-73.4647733532">
        <ele>1983.58</ele>
        <time>2022-04-28T20:29:20Z</time>
      </trkpt>
      <trkpt lat="5.0224761106" lon="-73.4647272527">
        <ele>1979.22</ele>
        <time>2022-04-28T20:29:24Z</time>
      </trkpt>
      <trkpt lat="5.0221384875" lon="-73.4646959044">
        <ele>1975.78</ele>
        <time>2022-04-28T20:29:28Z</time>
      </trkpt>
      <trkpt lat="5.0220560934" lon="-73.4646840021">
        <ele>1975.18</ele>
        <time>2022-04-28T20:29:29Z</time>
      </trkpt>
      <trkpt lat="5.0217430294" lon="-73.4647563379">
        <ele>1973.78</ele>
        <time>2022-04-28T20:29:33Z</time>
      </trkpt>
      <trkpt lat="5.0214778259" lon="-73.4648075514">
        <ele>1972.97</ele>
        <time>2022-04-28T20:29:37Z</time>
      </trkpt>
      <trkpt lat="5.0212499220" lon="-73.4648175258">
        <ele>1973.04</ele>
        <time>2022-04-28T20:29:47Z</time>
      </trkpt>
      <trkpt lat="5.0209668651" lon="-73.4648451023">
        <ele>1975.09</ele>
        <time>2022-04-28T20:30:01Z</time>
      </trkpt>
      <trkpt lat="5.0208448246" lon="-73.4648938850">
        <ele>1976.74</ele>
        <time>2022-04-28T20:30:09Z</time>
      </trkpt>
      <trkpt lat="5.0206041802" lon="-73.4651782829">
        <ele>1976.72</ele>
        <time>2022-04-28T20:30:19Z</time>
      </trkpt>
      <trkpt lat="5.0203287508" lon="-73.4656190034">
        <ele>1975.32</ele>
        <time>2022-04-28T20:30:25Z</time>
      </trkpt>
      <trkpt lat="5.0200591888" lon="-73.4658750705">
        <ele>1973.60</ele>
        <time>2022-04-28T20:30:30Z</time>
      </trkpt>
      <trkpt lat="5.0197460409" lon="-73.4661157150">
        <ele>1971.92</ele>
        <time>2022-04-28T20:30:38Z</time>
      </trkpt>
      <trkpt lat="5.0195645727" lon="-73.4662958421">
        <ele>1972.14</ele>
        <time>2022-04-28T20:30:50Z</time>
      </trkpt>
      <trkpt lat="5.0194929074" lon="-73.4663078282">
        <ele>1972.13</ele>
        <time>2022-04-28T20:30:52Z</time>
      </trkpt>
      <trkpt lat="5.0193511695" lon="-73.4663090855">
        <ele>1972.09</ele>
        <time>2022-04-28T20:30:55Z</time>
      </trkpt>
      <trkpt lat="5.0184658729" lon="-73.4662817605">
        <ele>1969.10</ele>
        <time>2022-04-28T20:31:09Z</time>
      </trkpt>
      <trkpt lat="5.0183530524" lon="-73.4662815090">
        <ele>1968.64</ele>
        <time>2022-04-28T20:31:11Z</time>
      </trkpt>
      <trkpt lat="5.0178902037" lon="-73.4663545154">
        <ele>1965.29</ele>
        <time>2022-04-28T20:31:20Z</time>
      </trkpt>
      <trkpt lat="5.0177230686" lon="-73.4663820080">
        <ele>1962.29</ele>
        <time>2022-04-28T20:31:25Z</time>
      </trkpt>
      <trkpt lat="5.0176883675" lon="-73.4663804993">
        <ele>1961.02</ele>
        <time>2022-04-28T20:31:27Z</time>
      </trkpt>
      <trkpt lat="5.0176426861" lon="-73.4664012864">
        <ele>1958.83</ele>
        <time>2022-04-28T20:31:31Z</time>
      </trkpt>
      <trkpt lat="5.0174521655" lon="-73.4664670005">
        <ele>1956.47</ele>
        <time>2022-04-28T20:31:39Z</time>
      </trkpt>
      <trkpt lat="5.0173069909" lon="-73.4665026236">
        <ele>1955.82</ele>
        <time>2022-04-28T20:31:42Z</time>
      </trkpt>
      <trkpt lat="5.0170199946" lon="-73.4666380752">
        <ele>1951.74</ele>
        <time>2022-04-28T20:31:49Z</time>
      </trkpt>
      <trkpt lat="5.0168065075" lon="-73.4667423461">
        <ele>1948.50</ele>
        <time>2022-04-28T20:31:54Z</time>
      </trkpt>
      <trkpt lat="5.0165633485" lon="-73.4668927174">
        <ele>1945.07</ele>
        <time>2022-04-28T20:31:59Z</time>
      </trkpt>
      <trkpt lat="5.0164174195" lon="-73.4669989999">
        <ele>1942.76</ele>
        <time>2022-04-28T20:32:02Z</time>
      </trkpt>
      <trkpt lat="5.0162400585" lon="-73.4671766125">
        <ele>1939.86</ele>
        <time>2022-04-28T20:32:06Z</time>
      </trkpt>
      <trkpt lat="5.0161559880" lon="-73.4672595095">
        <ele>1938.19</ele>
        <time>2022-04-28T20:32:08Z</time>
      </trkpt>
      <trkpt lat="5.0160231348" lon="-73.4673810471">
        <ele>1935.04</ele>
        <time>2022-04-28T20:32:11Z</time>
      </trkpt>
      <trkpt lat="5.0158010144" lon="-73.4675908461">
        <ele>1931.55</ele>
        <time>2022-04-28T20:32:16Z</time>
      </trkpt>
      <trkpt lat="5.0156274252" lon="-73.4678221866">
        <ele>1928.49</ele>
        <time>2022-04-28T20:32:20Z</time>
      </trkpt>
      <trkpt lat="5.0153699331" lon="-73.4680242743">
        <ele>1924.72</ele>
        <time>2022-04-28T20:32:25Z</time>
      </trkpt>
      <trkpt lat="5.0151052326" lon="-73.4681403637">
        <ele>1921.46</ele>
        <time>2022-04-28T20:32:29Z</time>
      </trkpt>
      <trkpt lat="5.0149417855" lon="-73.4682710376">
        <ele>1918.39</ele>
        <time>2022-04-28T20:32:32Z</time>
      </trkpt>
      <trkpt lat="5.0148596428" lon="-73.4683649149">
        <ele>1914.77</ele>
        <time>2022-04-28T20:32:34Z</time>
      </trkpt>
      <trkpt lat="5.0147834513" lon="-73.4684732091">
        <ele>1911.56</ele>
        <time>2022-04-28T20:32:37Z</time>
      </trkpt>
      <trkpt lat="5.0147053320" lon="-73.4684836864">
        <ele>1907.52</ele>
        <time>2022-04-28T20:32:42Z</time>
      </trkpt>
      <trkpt lat="5.0145800225" lon="-73.4684358258">
        <ele>1906.06</ele>
        <time>2022-04-28T20:32:46Z</time>
      </trkpt>
      <trkpt lat="5.0142472610" lon="-73.4683246817">
        <ele>1902.65</ele>
        <time>2022-04-28T20:32:53Z</time>
      </trkpt>
      <trkpt lat="5.0140486099" lon="-73.4682582133">
        <ele>1900.29</ele>
        <time>2022-04-28T20:32:56Z</time>
      </trkpt>
      <trkpt lat="5.0138971489" lon="-73.4681967739">
        <ele>1896.80</ele>
        <time>2022-04-28T20:32:59Z</time>
      </trkpt>
      <trkpt lat="5.0137492921" lon="-73.4681384359">
        <ele>1893.71</ele>
        <time>2022-04-28T20:33:03Z</time>
      </trkpt>
      <trkpt lat="5.0137089752" lon="-73.4681251086">
        <ele>1892.98</ele>
        <time>2022-04-28T20:33:04Z</time>
      </trkpt>
      <trkpt lat="5.0134715997" lon="-73.4680551197">
        <ele>1888.53</ele>
        <time>2022-04-28T20:33:10Z</time>
      </trkpt>
      <trkpt lat="5.0133251678" lon="-73.4680003021">
        <ele>1885.07</ele>
        <time>2022-04-28T20:33:14Z</time>
      </trkpt>
      <trkpt lat="5.0131543446" lon="-73.4679113701">
        <ele>1881.97</ele>
        <time>2022-04-28T20:33:18Z</time>
      </trkpt>
      <trkpt lat="5.0131215714" lon="-73.4678893257">
        <ele>1881.01</ele>
        <time>2022-04-28T20:33:19Z</time>
      </trkpt>
      <trkpt lat="5.0131146982" lon="-73.4677677881">
        <ele>1876.91</ele>
        <time>2022-04-28T20:33:23Z</time>
      </trkpt>
      <trkpt lat="5.0133048836" lon="-73.4673620202">
        <ele>1873.40</ele>
        <time>2022-04-28T20:33:36Z</time>
      </trkpt>
      <trkpt lat="5.0131543446" lon="-73.4672263172">
        <ele>1872.12</ele>
        <time>2022-04-28T20:33:41Z</time>
      </trkpt>
      <trkpt lat="5.0127813499" lon="-73.4670289233">
        <ele>1868.76</ele>
        <time>2022-04-28T20:33:48Z</time>
      </trkpt>
      <trkpt lat="5.0122133922" lon="-73.4667084832">
        <ele>1865.62</ele>
        <time>2022-04-28T20:33:58Z</time>
      </trkpt>
      <trkpt lat="5.0121877436" lon="-73.4666949045">
        <ele>1865.18</ele>
        <time>2022-04-28T20:33:59Z</time>
      </trkpt>
      <trkpt lat="5.0119900145" lon="-73.4668341279">
        <ele>1861.86</ele>
        <time>2022-04-28T20:34:06Z</time>
      </trkpt>
      <trkpt lat="5.0119529665" lon="-73.4668637998">
        <ele>1861.60</ele>
        <time>2022-04-28T20:34:07Z</time>
      </trkpt>
      <trkpt lat="5.0119113084" lon="-73.4668896161">
        <ele>1861.37</ele>
        <time>2022-04-28T20:34:08Z</time>
      </trkpt>
      <trkpt lat="5.0118692312" lon="-73.4669136722">
        <ele>1861.15</ele>
        <time>2022-04-28T20:34:09Z</time>
      </trkpt>
      <trkpt lat="5.0113456137" lon="-73.4672445059">
        <ele>1857.79</ele>
        <time>2022-04-28T20:34:20Z</time>
      </trkpt>
      <trkpt lat="5.0112545863" lon="-73.4673078731">
        <ele>1857.18</ele>
        <time>2022-04-28T20:34:22Z</time>
      </trkpt>
      <trkpt lat="5.0108496565" lon="-73.4676091187">
        <ele>1854.10</ele>
        <time>2022-04-28T20:34:32Z</time>
      </trkpt>
      <trkpt lat="5.0108383410" lon="-73.4676345997">
        <ele>1853.82</ele>
        <time>2022-04-28T20:34:33Z</time>
      </trkpt>
      <trkpt lat="5.0108801667" lon="-73.4676952846">
        <ele>1852.52</ele>
        <time>2022-04-28T20:34:38Z</time>
      </trkpt>
      <trkpt lat="5.0111338031" lon="-73.4677863121">
        <ele>1853.10</ele>
        <time>2022-04-28T20:34:55Z</time>
      </trkpt>
      <trkpt lat="5.0113787223" lon="-73.4678856377">
        <ele>1853.47</ele>
        <time>2022-04-28T20:35:07Z</time>
      </trkpt>
      <trkpt lat="5.0117206201" lon="-73.4680245258">
        <ele>1854.40</ele>
        <time>2022-04-28T20:35:24Z</time>
      </trkpt>
      <trkpt lat="5.0118908565" lon="-73.4681274556">
        <ele>1855.43</ele>
        <time>2022-04-28T20:35:36Z</time>
      </trkpt>
      <trkpt lat="5.0118996575" lon="-73.4681729693">
        <ele>1855.65</ele>
        <time>2022-04-28T20:35:47Z</time>
      </trkpt>
    </trkseg>
  </trk>
</gpx>
